[[{"header":{"parameterUnit":"m.s-1","parameterCategory":1,"la1":30.6,"la2":29.2853,"lo1":-89.7004,"lo2":-87.6739,"dx":0.0162,"dy":0.0183,"nx":112,"ny":82,"refTime":"2023-02-08T18:00:00:Z","depth":0,"parameterNumber":2,"parameterNumberName":"U-component_of_WINDS"},"data":[0.0,0.0,0.0,0.0,0.0,0.0,0.0,0.0,0.0,0.0,0.0,0.0,0.0,0.0,0.0,0.0,0.0,0.0,0.0,0.0,0.0,0.0,0.0,0.0,0.0,0.0,0.0,0.0,0.0,0.0,0.0,0.0,0.0,0.0,0.0,0.0,0.0,0.0,0.0,0.0,0.0,0.0,0.0,0.0,0.0,0.0,0.0,0.0,0.0,0.0,0.0,0.0,0.0,0.0,0.0,0.0,0.0,0.0,0.0,0.0,0.0,0.0,0.0,0.0,0.0,0.0,0.0,0.0,0.0,0.0,0.0,0.0,0.0,0.0,0.0,0.0,0.0,0.0,0.0,0.0,0.0,0.0,0.0,0.0,0.0,0.0,0.0,0.0,0.0,0.0,0.0,3.5614,3.7641,3.9104,3.9265,3.8958,3.7676,3.52,0.0,0.0,0.0,0.0,0.0,0.0,0.0,0.0,0.0,0.0,0.0,0.0,0.0,0.0,0.0,0.0,0.0,0.0,0.0,0.0,0.0,0.0,0.0,0.0,0.0,0.0,0.0,0.0,0.0,0.0,0.0,0.0,0.0,0.0,0.0,0.0,0.0,0.0,0.0,0.0,0.0,0.0,0.0,0.0,0.0,0.0,0.0,0.0,0.0,0.0,0.0,0.0,0.0,0.0,0.0,0.0,0.0,0.0,0.0,0.0,0.0,0.0,0.0,0.0,0.0,0.0,0.0,0.0,0.0,0.0,0.0,0.0,0.0,0.0,0.0,0.0,0.0,0.0,0.0,0.0,0.0,0.0,0.0,0.0,0.0,0.0,0.0,0.0,0.0,0.0,0.0,0.0,0.0,0.0,0.0,0.0,0.0,0.0,0.0,0.0,0.0,0.0,0.0,0.0,3.6451,3.8652,3.8707,3.859,3.8664,3.859,3.7418,3.4695,0.0,0.0,0.0,0.0,0.0,0.0,0.0,0.0,0.0,0.0,0.0,0.0,0.0,0.0,0.0,0.0,0.0,0.0,0.0,0.0,0.0,0.0,0.0,0.0,0.0,0.0,0.0,0.0,0.0,0.0,0.0,0.0,0.0,0.0,0.0,0.0,0.0,0.0,0.0,0.0,0.0,0.0,0.0,0.0,0.0,0.0,0.0,0.0,0.0,0.0,0.0,0.0,0.0,0.0,0.0,0.0,0.0,0.0,0.0,0.0,0.0,0.0,0.0,0.0,0.0,0.0,0.0,0.0,0.0,0.0,0.0,0.0,0.0,0.0,0.0,0.0,0.0,0.0,0.0,0.0,0.0,0.0,0.0,0.0,0.0,0.0,0.0,0.0,0.0,0.0,0.0,0.0,0.0,0.0,0.0,0.0,0.0,0.0,0.0,0.0,0.0,0.0,0.0,3.4537,3.6081,3.872,3.8723,3.8516,3.8649,3.859,3.7418,3.4829,3.4481,0.0,0.0,0.0,0.0,0.0,0.0,0.0,0.0,0.0,0.0,0.0,0.0,0.0,0.0,0.0,0.0,0.0,0.0,0.0,0.0,0.0,0.0,0.0,0.0,0.0,0.0,0.0,0.0,0.0,0.0,0.0,0.0,0.0,0.0,0.0,0.0,0.0,0.0,0.0,0.0,0.0,0.0,0.0,0.0,0.0,0.0,0.0,0.0,0.0,0.0,0.0,0.0,0.0,0.0,0.0,0.0,0.0,0.0,0.0,0.0,0.0,0.0,0.0,0.0,0.0,0.0,0.0,0.0,0.0,0.0,0.0,0.0,0.0,0.0,0.0,0.0,0.0,0.0,0.0,0.0,0.0,0.0,0.0,0.0,0.0,0.0,0.0,0.0,0.0,0.0,0.0,0.0,0.0,0.0,0.0,0.0,0.0,0.0,0.0,0.0,0.0,0.0,3.499,3.6237,3.8311,3.8516,3.859,3.8723,3.859,3.7418,3.4963,3.4534,0.0,0.0,0.0,0.0,0.0,0.0,0.0,0.0,0.0,0.0,0.0,0.0,0.0,0.0,0.0,0.0,0.0,0.0,0.0,0.0,0.0,0.0,0.0,0.0,0.0,0.0,0.0,0.0,0.0,0.0,0.0,0.0,0.0,0.0,0.0,0.0,0.0,0.0,0.0,0.0,0.0,0.0,0.0,0.0,0.0,0.0,0.0,0.0,0.0,0.0,0.0,0.0,0.0,0.0,0.0,0.0,0.0,0.0,0.0,0.0,0.0,0.0,0.0,0.0,0.0,0.0,0.0,0.0,0.0,0.0,0.0,0.0,0.0,0.0,0.0,0.0,0.0,0.0,0.0,0.0,0.0,0.0,0.0,0.0,0.0,0.0,0.0,0.0,0.0,0.0,0.0,0.0,0.0,0.0,0.0,0.0,0.0,0.0,0.0,0.0,0.0,0.0,3.6475,3.8088,3.8501,3.8516,3.8516,3.8516,3.8516,3.7346,3.4641,3.4414,0.0,0.0,0.0,0.0,0.0,0.0,0.0,0.0,0.0,0.0,0.0,0.0,0.0,0.0,0.0,0.0,0.0,0.0,0.0,0.0,0.0,0.0,0.0,0.0,0.0,0.0,0.0,0.0,0.0,0.0,0.0,0.0,0.0,0.0,0.0,0.0,0.0,0.0,0.0,0.0,0.0,0.0,0.0,0.0,0.0,0.0,0.0,0.0,0.0,0.0,0.0,0.0,0.0,0.0,0.0,0.0,0.0,0.0,0.0,0.0,0.0,0.0,0.0,0.0,0.0,0.0,0.0,0.0,0.0,0.0,0.0,0.0,0.0,0.0,0.0,0.0,0.0,0.0,0.0,0.0,0.0,0.0,0.0,0.0,0.0,0.0,0.0,0.0,0.0,0.0,0.0,0.0,0.0,0.0,0.0,0.0,0.0,0.0,0.0,0.0,0.0,0.0,3.6023,3.7478,0.0,3.8277,3.8277,3.8277,3.8277,3.7201,3.4574,0.0,0.0,0.0,0.0,0.0,0.0,0.0,0.0,0.0,0.0,0.0,0.0,0.0,0.0,0.0,0.0,0.0,0.0,0.0,0.0,0.0,0.0,0.0,0.0,0.0,0.0,0.0,0.0,0.0,0.0,0.0,0.0,0.0,0.0,0.0,0.0,0.0,0.0,0.0,0.0,0.0,0.0,0.0,0.0,0.0,0.0,0.0,0.0,0.0,0.0,0.0,0.0,0.0,0.0,0.0,0.0,0.0,0.0,0.0,0.0,0.0,0.0,0.0,0.0,0.0,0.0,0.0,0.0,0.0,0.0,0.0,0.0,0.0,0.0,0.0,0.0,0.0,0.0,0.0,0.0,0.0,0.0,0.0,0.0,0.0,0.0,0.0,0.0,0.0,0.0,0.0,0.0,0.0,0.0,0.0,0.0,0.0,0.0,0.0,0.0,0.0,0.0,3.4537,3.6076,3.7405,0.0,3.8202,3.8202,3.8202,3.8202,3.7114,3.4574,0.0,0.0,0.0,0.0,0.0,0.0,0.0,0.0,0.0,0.0,0.0,0.0,0.0,0.0,0.0,0.0,0.0,0.0,0.0,0.0,0.0,0.0,0.0,0.0,0.0,0.0,0.0,0.0,0.0,0.0,0.0,0.0,0.0,0.0,0.0,0.0,0.0,0.0,0.0,0.0,0.0,0.0,0.0,0.0,0.0,0.0,0.0,0.0,0.0,0.0,0.0,0.0,0.0,0.0,0.0,0.0,0.0,0.0,0.0,0.0,0.0,0.0,0.0,0.0,0.0,0.0,0.0,0.0,0.0,0.0,0.0,0.0,0.0,0.0,0.0,0.0,0.0,0.0,0.0,0.0,0.0,0.0,0.0,0.0,0.0,0.0,0.0,0.0,0.0,0.0,0.0,0.0,0.0,0.0,0.0,0.0,0.0,0.0,0.0,0.0,0.0,0.0,3.519,3.7019,3.8202,3.8202,3.8202,3.8202,3.8202,3.8202,3.7114,0.0,0.0,0.0,0.0,0.0,0.0,0.0,0.0,0.0,0.0,0.0,0.0,0.0,0.0,0.0,0.0,0.0,0.0,0.0,0.0,0.0,0.0,0.0,0.0,0.0,0.0,0.0,0.0,0.0,0.0,0.0,0.0,0.0,0.0,0.0,0.0,0.0,0.0,0.0,0.0,0.0,0.0,0.0,0.0,0.0,0.0,0.0,0.0,0.0,0.0,0.0,0.0,0.0,0.0,0.0,0.0,0.0,0.0,0.0,0.0,0.0,0.0,0.0,0.0,0.0,0.0,0.0,0.0,0.0,0.0,0.0,0.0,0.0,0.0,0.0,0.0,0.0,0.0,0.0,0.0,0.0,0.0,0.0,0.0,0.0,0.0,0.0,0.0,0.0,0.0,0.0,0.0,0.0,0.0,0.0,0.0,0.0,0.0,0.0,0.0,0.0,0.0,0.0,3.5234,3.6963,3.8202,3.8202,3.8202,3.8202,3.8202,3.8202,3.7114,3.4574,0.0,0.0,0.0,0.0,0.0,0.0,0.0,0.0,0.0,0.0,0.0,0.0,0.0,0.0,0.0,0.0,0.0,0.0,0.0,0.0,0.0,0.0,0.0,0.0,0.0,0.0,0.0,0.0,0.0,0.0,0.0,0.0,0.0,0.0,0.0,0.0,0.0,0.0,0.0,0.0,0.0,0.0,0.0,0.0,0.0,0.0,0.0,0.0,0.0,0.0,0.0,0.0,0.0,0.0,0.0,0.0,0.0,0.0,0.0,0.0,0.0,0.0,0.0,0.0,0.0,0.0,0.0,0.0,0.0,0.0,0.0,0.0,0.0,0.0,0.0,0.0,0.0,0.0,0.0,0.0,0.0,0.0,0.0,0.0,0.0,0.0,0.0,0.0,0.0,0.0,0.0,0.0,0.0,0.0,0.0,0.0,0.0,0.0,0.0,0.0,0.0,0.0,3.5544,3.7175,3.8202,3.8202,3.8202,3.8202,3.8202,3.8202,3.7331,3.5299,0.0,0.0,0.0,0.0,0.0,0.0,0.0,0.0,0.0,0.0,0.0,0.0,0.0,0.0,0.0,0.0,0.0,0.0,0.0,0.0,0.0,0.0,0.0,0.0,0.0,0.0,0.0,0.0,0.0,0.0,0.0,0.0,0.0,0.0,0.0,0.0,0.0,0.0,0.0,0.0,0.0,0.0,0.0,0.0,0.0,0.0,0.0,0.0,0.0,0.0,0.0,0.0,0.0,0.0,0.0,0.0,0.0,0.0,0.0,0.0,0.0,0.0,0.0,0.0,0.0,0.0,0.0,0.0,0.0,0.0,0.0,0.0,0.0,0.0,0.0,0.0,0.0,0.0,0.0,0.0,0.0,0.0,0.0,0.0,0.0,0.0,0.0,0.0,0.0,0.0,0.0,0.0,0.0,0.0,0.0,0.0,0.0,0.0,0.0,0.0,0.0,0.0,3.5961,3.7356,3.8202,3.8202,3.8202,3.8202,3.8202,3.826,3.7752,3.6475,0.0,0.0,0.0,0.0,0.0,0.0,0.0,0.0,0.0,0.0,0.0,0.0,0.0,0.0,0.0,0.0,0.0,0.0,0.0,0.0,0.0,0.0,0.0,0.0,0.0,0.0,0.0,0.0,0.0,0.0,0.0,0.0,0.0,0.0,0.0,0.0,0.0,0.0,0.0,0.0,0.0,0.0,0.0,0.0,0.0,0.0,0.0,0.0,0.0,0.0,0.0,0.0,0.0,0.0,0.0,0.0,0.0,0.0,0.0,0.0,3.5507,0.0,0.0,0.0,0.0,0.0,0.0,0.0,0.0,0.0,0.0,0.0,0.0,0.0,0.0,0.0,0.0,0.0,0.0,0.0,0.0,0.0,0.0,0.0,0.0,0.0,0.0,0.0,0.0,0.0,0.0,0.0,0.0,0.0,0.0,0.0,0.0,0.0,0.0,0.0,0.0,0.0,3.5449,3.709,3.8202,3.8202,3.8202,3.8202,3.8202,3.8681,3.8449,3.7172,3.7404,0.0,0.0,0.0,0.0,0.0,0.0,0.0,0.0,0.0,0.0,0.0,0.0,0.0,0.0,0.0,0.0,0.0,0.0,0.0,0.0,0.0,0.0,0.0,0.0,0.0,0.0,0.0,0.0,0.0,0.0,0.0,0.0,0.0,0.0,0.0,0.0,0.0,0.0,0.0,0.0,0.0,0.0,0.0,0.0,0.0,0.0,0.0,0.0,0.0,0.0,0.0,0.0,0.0,0.0,0.0,0.0,0.0,0.0,0.0,0.0,3.5012,0.0,0.0,0.0,0.0,0.0,0.0,0.0,0.0,0.0,0.0,0.0,0.0,0.0,0.0,0.0,0.0,0.0,0.0,0.0,0.0,0.0,0.0,0.0,0.0,0.0,0.0,0.0,0.0,0.0,0.0,0.0,0.0,0.0,0.0,0.0,0.0,0.0,0.0,0.0,0.0,3.4837,3.6828,3.8202,3.8202,3.8202,3.8333,3.8652,3.9,3.9044,3.8667,3.8667,0.0,0.0,0.0,0.0,0.0,0.0,0.0,0.0,0.0,0.0,0.0,0.0,0.0,0.0,0.0,0.0,0.0,0.0,0.0,0.0,0.0,0.0,0.0,0.0,0.0,0.0,0.0,0.0,0.0,0.0,0.0,0.0,0.0,0.0,0.0,0.0,0.0,0.0,0.0,0.0,0.0,0.0,0.0,0.0,0.0,0.0,0.0,0.0,0.0,0.0,0.0,0.0,0.0,3.5219,3.5336,3.5078,3.5078,3.5449,3.6055,3.5928,3.6079,3.621,3.4644,0.0,0.0,0.0,0.0,0.0,0.0,0.0,0.0,0.0,0.0,0.0,0.0,0.0,0.0,0.0,0.0,0.0,0.0,0.0,0.0,0.0,0.0,0.0,0.0,3.588,3.6487,0.0,0.0,0.0,0.0,0.0,0.0,0.0,0.0,0.0,0.0,0.0,0.0,3.4644,3.6702,3.8202,3.8202,3.8304,3.8609,3.916,3.9407,3.9741,4.0234,3.9915,3.9596,0.0,0.0,0.0,0.0,0.0,0.0,0.0,0.0,0.0,0.0,0.0,0.0,0.0,0.0,0.0,0.0,0.0,0.0,0.0,0.0,0.0,0.0,0.0,0.0,0.0,0.0,0.0,0.0,0.0,0.0,0.0,0.0,3.4817,3.5176,0.0,0.0,0.0,0.0,0.0,0.0,0.0,0.0,0.0,0.0,0.0,0.0,0.0,3.3815,3.3862,3.515,3.5612,3.5133,3.6193,3.6717,3.6717,3.6717,3.6725,3.688,3.6864,0.0,3.5331,3.5137,0.0,0.0,0.0,0.0,0.0,0.0,0.0,0.0,0.0,0.0,0.0,0.0,0.0,0.0,0.0,0.0,0.0,0.0,0.0,0.0,0.0,0.0,3.7768,3.7709,3.7839,3.7912,0.0,3.6038,3.4491,3.4851,3.4589,0.0,0.0,0.0,0.0,0.0,0.0,0.0,3.593,3.7332,3.8202,3.8202,3.8725,3.9102,3.9189,4.0205,4.0887,4.096,4.1439,4.1192,4.0031,3.99,0.0,0.0,0.0,0.0,0.0,0.0,0.0,0.0,0.0,0.0,0.0,0.0,0.0,0.0,0.0,0.0,0.0,0.0,0.0,0.0,0.0,0.0,0.0,0.0,0.0,0.0,0.0,0.0,0.0,3.343,3.4254,3.42,3.3887,3.3123,0.0,0.0,0.0,0.0,0.0,0.0,0.0,0.0,0.0,3.464,3.4453,3.4646,3.5377,3.5669,3.5703,3.5499,3.6022,3.627,3.627,3.627,3.627,3.627,3.6536,3.6387,3.5844,3.5386,3.4534,3.348,0.0,0.0,0.0,0.0,3.2823,3.2817,3.4454,3.4953,0.0,3.4364,0.0,0.0,0.0,0.0,0.0,0.0,0.0,0.0,0.0,0.0,3.7317,3.7907,3.8142,3.8202,3.8202,3.7331,3.6401,0.0,3.5045,3.3908,3.2616,0.0,0.0,0.0,0.0,3.5473,3.5776,3.752,3.8768,3.8768,3.9334,3.9857,4.0234,4.0771,4.125,4.1628,4.1932,4.1831,4.125,4.0495,3.9581,0.0,0.0,0.0,0.0,0.0,0.0,0.0,0.0,0.0,0.0,0.0,0.0,0.0,0.0,0.0,0.0,0.0,0.0,0.0,0.0,0.0,0.0,0.0,0.0,0.0,0.0,0.0,0.0,3.4133,3.466,3.4117,3.4597,3.4179,0.0,0.0,0.0,0.0,0.0,0.0,3.3633,3.3818,3.4367,3.5272,3.501,3.5219,3.6218,3.5884,3.571,3.571,3.571,3.571,3.571,3.571,3.571,3.571,3.6058,3.6232,3.6163,3.5809,3.5386,3.4906,3.414,3.3522,3.3213,3.3606,3.3789,3.3972,3.5194,3.5691,3.5648,3.5264,0.0,3.4562,3.4043,0.0,0.0,0.0,0.0,3.4695,3.5823,3.6372,3.6822,3.7624,3.7915,3.8066,3.8127,3.775,3.7272,0.0,3.5952,3.4815,3.3413,0.0,0.0,0.0,0.0,3.6127,3.633,3.8014,3.9262,3.9407,3.9987,4.0554,4.1062,4.125,4.157,4.2063,4.2092,4.2092,4.2092,4.1134,4.0452,4.0104,0.0,0.0,0.0,0.0,0.0,0.0,0.0,0.0,0.0,0.0,0.0,0.0,0.0,0.0,0.0,0.0,0.0,0.0,0.0,0.0,0.0,0.0,0.0,0.0,0.0,0.0,0.0,0.0,0.0,3.6906,3.7033,0.0,0.0,0.0,0.0,3.3916,3.3644,3.3718,3.4389,3.408,3.4471,3.5668,3.5628,3.5655,3.571,3.571,3.571,3.571,3.571,3.571,3.571,3.571,3.571,3.571,3.571,3.5723,3.579,3.6596,3.5976,3.454,3.4934,3.4133,3.2883,3.4486,3.5127,3.531,3.6473,3.6894,3.6712,3.5574,3.4393,3.3621,3.4877,3.4397,0.0,0.0,3.5362,3.5719,3.6892,3.7372,3.7539,3.761,3.761,3.7687,3.7853,3.6518,3.5841,0.0,3.8028,3.7434,3.5558,0.0,3.5339,3.5209,3.5354,3.6286,3.8696,3.9117,3.9421,3.9987,4.0655,4.1062,4.1091,4.1686,4.2063,4.2092,4.2092,4.2092,4.2092,4.2034,4.1395,4.0118,4.0031,0.0,0.0,0.0,0.0,0.0,0.0,0.0,0.0,0.0,0.0,0.0,0.0,0.0,0.0,0.0,0.0,0.0,0.0,0.0,0.0,0.0,0.0,0.0,0.0,0.0,0.0,0.0,0.0,3.608,3.6884,0.0,3.3994,3.4342,3.4536,3.3951,3.452,3.5013,3.5295,3.5165,3.5289,3.571,3.548,3.5318,3.5318,3.4977,3.4895,3.4895,3.4895,3.4895,3.4895,3.4895,3.4895,3.4895,3.5154,3.5318,3.5399,3.5951,3.5785,3.5323,3.5806,3.5634,3.5148,3.6025,3.6332,3.6388,3.6838,3.6978,3.6908,3.6487,3.6037,3.5756,3.6282,3.6099,3.577,3.6282,3.6561,3.675,3.7035,3.738,3.7548,3.7457,3.7534,3.7625,3.7701,3.7171,3.6974,3.7875,3.7157,3.6156,3.5558,3.6373,3.6765,3.5546,3.678,3.8159,3.9088,3.9915,4.051,4.0713,4.1337,4.1744,4.1744,4.1961,4.2092,4.2092,4.2092,4.2092,4.2092,4.2092,4.1874,4.1395,4.1381,4.0147,0.0,0.0,0.0,0.0,0.0,0.0,0.0,0.0,0.0,0.0,0.0,0.0,0.0,0.0,0.0,0.0,0.0,0.0,0.0,0.0,0.0,0.0,0.0,0.0,0.0,0.0,3.7496,3.5629,3.6971,3.6814,3.3812,3.4803,3.5301,3.4543,3.5116,3.548,3.548,3.5386,3.5304,3.5304,3.4977,3.4825,3.4825,3.4577,3.4397,3.4397,3.4397,3.4397,3.4397,3.4397,3.4397,3.4397,3.4743,3.4825,3.4908,3.5141,3.5304,3.5304,3.5898,3.6072,3.6058,3.6615,3.6772,3.6836,3.6978,3.6978,3.6978,3.6978,3.6978,3.6978,3.6978,3.6978,3.6978,3.6978,3.707,3.7148,3.7056,3.7226,3.738,3.7226,3.7303,3.738,3.7457,3.7457,3.7625,3.7853,3.6981,3.6258,3.6315,3.7549,3.7883,3.5967,3.7854,3.9349,3.8928,4.0176,4.1192,4.141,4.1831,4.2092,4.2092,4.1497,4.1395,4.2049,4.1482,4.1424,4.2063,4.1671,4.1526,4.1758,4.1976,4.0945,3.858,0.0,0.0,0.0,0.0,0.0,0.0,0.0,0.0,0.0,0.0,0.0,0.0,0.0,0.0,0.0,0.0,0.0,0.0,0.0,0.0,0.0,0.0,0.0,3.5849,3.7303,3.78,3.5879,3.753,3.7842,3.5427,3.5906,3.6218,3.5723,3.5318,3.5086,3.5086,3.466,3.4397,3.4397,3.4397,3.4397,3.4397,3.4397,3.4397,3.4397,3.4397,3.4397,3.4397,3.4397,3.4397,3.4397,3.4397,3.4397,3.4397,3.4397,3.4397,3.4481,3.5386,3.548,3.5249,3.6072,3.6405,3.647,3.6836,3.6978,3.6978,3.6978,3.6978,3.6978,3.6978,3.6978,3.6978,3.6978,3.6978,3.6978,3.6978,3.6978,3.6978,3.6978,3.6978,3.707,3.7226,3.7317,3.7408,3.7806,3.7911,3.7973,3.8171,3.8797,3.8594,3.6707,3.8536,0.0,3.8449,3.9944,4.1352,4.1947,4.2005,4.2005,4.2005,4.0278,4.0031,4.1976,4.0336,4.0133,4.202,4.0844,4.0481,4.1149,4.1758,4.1758,4.1134,0.0,0.0,0.0,0.0,0.0,0.0,0.0,0.0,0.0,0.0,0.0,0.0,0.0,0.0,0.0,0.0,0.0,0.0,0.0,0.0,0.0,0.0,3.6604,3.7015,3.7988,3.8233,3.6894,3.7812,3.7667,3.5328,3.5826,3.5924,3.4812,3.4647,3.4564,3.4564,3.4481,3.4397,3.4397,3.4397,3.4397,3.4397,3.4397,3.4397,3.4397,3.4397,3.4397,3.4397,3.4397,3.4397,3.4397,3.4397,3.4397,3.4397,3.4397,3.4397,3.4481,3.5072,3.5236,3.5249,3.6072,3.6615,3.6836,3.6978,3.6978,3.6978,3.6978,3.6978,3.6978,3.6978,3.6978,3.6978,3.6978,3.6978,3.6978,3.6978,3.6978,3.6978,3.6978,3.6978,3.6978,3.707,3.7422,3.7811,3.8061,3.851,3.8853,3.8924,3.9436,3.9668,3.9146,4.006,0.0,4.035,4.1192,4.1352,4.0133,4.0002,4.0002,4.0002,3.9509,4.0031,4.1976,4.1599,4.1541,4.2078,4.1744,4.1845,4.2455,4.1744,4.1512,0.0,0.0,0.0,0.0,0.0,0.0,0.0,0.0,0.0,0.0,0.0,0.0,0.0,0.0,0.0,0.0,0.0,0.0,0.0,0.0,0.0,0.0,3.6214,3.7345,3.7931,3.8455,3.8383,3.7357,3.7615,3.7169,3.5318,3.5535,3.544,3.4481,3.4397,3.4397,3.4397,3.4397,3.4397,3.4397,3.4397,3.4397,3.4397,3.4397,3.4397,3.4397,3.4397,3.4397,3.4397,3.4397,3.4397,3.4397,3.4397,3.4397,3.4397,3.4397,3.4397,0.0,0.0,0.0,0.0,0.0,3.6363,3.6993,3.685,3.6836,3.6978,3.6978,3.6978,3.6978,3.6978,3.6978,3.6978,3.6978,3.6978,3.6978,3.6978,3.6978,3.6978,3.6978,3.7175,3.7372,3.7372,3.7864,3.8394,3.8555,3.9145,0.0,3.9838,4.0134,4.017,3.9421,4.0568,4.1221,4.0408,4.1352,4.1671,4.0539,4.0408,4.0408,4.0408,3.9668,0.0,0.0,0.0,4.112,4.1657,4.2179,0.0,0.0,0.0,4.276,4.3674,0.0,0.0,0.0,3.9827,3.863,0.0,0.0,0.0,0.0,0.0,0.0,0.0,0.0,0.0,0.0,0.0,0.0,0.0,0.0,0.0,0.0,3.7331,3.8412,3.8352,3.8412,3.8084,3.7204,3.7204,3.6674,3.5154,3.5154,3.5059,3.4481,3.4397,3.4397,3.4397,0.0,0.0,0.0,0.0,3.4397,3.4397,3.4397,3.4397,3.4397,3.4397,3.4397,3.4397,3.4397,3.4397,3.4397,3.4397,3.4397,3.4397,3.4397,3.4397,3.4397,3.4397,3.4397,3.4564,3.499,3.5965,3.6915,3.6549,0.0,0.0,3.6978,3.6978,3.6978,3.6978,3.6978,3.6978,3.6978,3.6978,3.6978,3.6978,3.7035,3.7091,3.7091,3.7555,3.8004,3.8004,3.851,3.9056,3.9219,3.9714,4.0319,4.0746,4.0828,4.032,3.8822,4.0532,4.1386,3.9663,4.1033,4.2005,4.1787,0.0,0.0,4.1773,4.0191,4.0031,4.1976,4.0539,4.0176,4.1381,4.2571,4.3195,4.3195,4.3863,4.4763,4.588,4.588,4.588,4.5808,4.1681,3.9305,0.0,0.0,0.0,0.0,0.0,0.0,0.0,0.0,0.0,0.0,0.0,0.0,0.0,0.0,0.0,3.5362,3.5983,3.6559,3.7372,3.678,3.6322,3.6452,3.7078,3.678,3.4729,3.5736,3.5963,3.4481,3.4397,3.4397,3.4397,3.4397,3.4397,3.4397,3.4397,3.4397,3.4397,3.4397,3.4397,3.4397,0.0,0.0,3.4397,3.4397,3.4397,3.4397,3.4397,3.4397,3.4397,3.4397,3.4397,3.4397,3.4397,3.4647,3.499,3.5386,3.5965,3.6549,3.6772,3.6915,3.6978,3.6978,3.6978,3.6978,3.6978,3.6978,0.0,3.6978,3.6978,3.6978,3.6978,3.7358,3.7723,3.7723,3.8215,3.8678,3.8678,3.917,3.9606,3.9689,4.0182,4.0689,4.0915,4.1112,4.1248,4.1025,4.1331,4.142,4.1198,4.1555,4.129,3.9929,3.9755,3.9755,3.9755,3.9421,4.0031,4.1976,4.2194,4.2615,4.3398,4.4124,4.4516,4.4516,4.5169,4.5634,4.588,4.588,4.588,4.5866,4.4933,4.4346,0.0,0.0,0.0,0.0,0.0,0.0,0.0,0.0,0.0,0.0,0.0,3.1816,0.0,0.0,3.4045,3.5328,3.5634,3.5937,3.6674,3.6308,3.6084,3.6308,3.6702,3.6452,3.5196,3.5816,3.5803,3.4481,3.4397,3.4397,3.4397,3.4397,3.4397,3.4397,3.4397,3.4397,3.4397,3.4397,3.4397,3.4397,3.4397,3.4397,3.4397,3.4397,3.4397,3.4397,3.4397,3.4397,3.4397,3.4397,3.4397,3.4397,3.4397,3.4647,3.5086,3.5318,3.5817,3.6405,3.6615,3.6836,3.6978,3.6978,3.6978,3.6978,3.6978,3.6978,3.7049,3.7358,3.7442,3.7512,3.7835,3.8145,3.8383,3.8383,3.8861,3.9325,3.9325,3.9802,4.0238,4.0238,4.0491,4.0787,4.1114,4.1198,4.1269,4.1619,4.1731,4.1829,4.1897,4.1897,4.1618,4.0742,4.0655,4.0655,4.0655,4.0931,4.1657,4.2963,4.3602,4.4095,4.4429,4.5053,4.5387,4.5387,4.5721,4.588,4.588,4.588,4.588,4.588,4.579,4.5398,0.0,0.0,0.0,0.0,0.0,0.0,0.0,0.0,3.0751,3.2219,3.2008,3.2159,3.3721,3.3726,3.3953,3.5319,3.5629,3.5857,3.6215,3.6215,3.6215,3.6373,3.6452,3.6136,3.5507,3.5588,3.5345,3.4481,3.4397,3.4397,3.4397,3.4397,3.4397,3.4397,3.4397,3.4397,3.4397,3.4397,3.4397,3.4397,3.4397,3.4397,3.4397,3.4397,3.4397,3.4397,3.4397,3.4397,3.4397,3.4397,3.4397,3.4397,3.4397,3.4647,3.5086,3.5086,3.5575,3.6312,3.6405,3.6693,3.6978,3.6978,3.6978,3.7007,3.7133,3.7161,3.7288,3.792,3.8088,3.8215,3.8735,3.8959,3.9044,3.9044,3.9521,3.9957,3.9957,4.035,4.0688,4.0773,4.0773,4.0859,4.1311,4.1283,4.1254,4.1604,4.1814,4.2009,4.1995,4.1995,4.1995,4.2092,4.2092,4.215,4.2266,4.2832,4.3471,4.4124,4.4618,4.4937,4.5082,4.559,4.588,4.588,4.588,4.588,4.588,4.588,4.588,4.588,4.57,4.5201,2.6831,2.797,0.0,3.0703,3.0939,3.1478,0.0,0.0,3.2712,3.3852,3.4088,3.4058,3.4258,3.4297,3.4502,3.5059,3.5453,3.583,3.6215,3.5976,3.6056,3.6738,3.6802,3.6267,3.4716,3.5277,3.5345,3.4481,3.4397,3.4397,3.4397,3.4397,3.4397,3.4397,3.4397,3.4397,3.4397,3.4397,3.4397,3.4397,3.4397,3.4397,3.4397,3.4397,3.4397,3.4397,3.4397,3.4397,3.4397,3.4397,3.4397,3.4397,3.4397,3.4647,3.5086,3.5086,3.5399,3.5804,3.6232,3.6693,3.6978,3.6978,3.6978,3.7091,3.7639,3.7793,3.7934,3.858,3.8763,3.8777,3.8847,3.9269,3.9676,3.9676,4.0154,4.0603,4.0603,4.0645,4.0773,4.0916,4.1001,4.11,4.1396,4.1535,4.1604,4.1688,4.1549,4.1564,4.1702,4.1702,4.18,4.2092,4.2092,4.231,4.2847,4.35,4.4139,4.4748,4.485,4.5155,4.575,4.5837,4.588,4.588,4.588,4.588,4.588,4.588,4.588,4.588,4.588,4.5595,3.0032,0.0,0.0,0.0,3.198,3.2228,3.3182,3.3038,3.3012,3.4162,3.4397,3.4397,3.4397,3.4397,3.4647,0.0,3.5196,3.5196,3.583,3.583,3.5816,3.6122,3.6582,3.6646,3.5949,3.5736,3.5588,3.5196,3.5196,3.495,3.4397,3.4868,3.495,3.4397,3.4397,3.4397,3.4397,3.4397,3.4397,3.4397,3.4397,3.4397,3.4397,3.4397,3.4397,3.4397,3.4397,3.4397,3.4397,3.4397,3.4397,3.4397,3.4729,3.4743,3.4729,3.5223,3.5737,3.6138,3.6615,3.6836,3.7049,3.74,3.7512,3.7639,3.8271,3.8454,3.8594,3.9226,3.9395,3.9479,3.9845,4.0112,4.0308,4.0308,4.0519,4.0702,4.0702,4.0773,4.093,4.1001,4.11,4.1283,4.1549,4.1619,4.1785,4.1897,4.1829,4.1829,4.1897,4.1897,4.2125,4.2571,4.2615,4.3021,4.4008,4.4342,4.4792,4.543,4.5459,4.559,4.588,4.588,4.588,4.588,4.588,4.588,4.588,4.588,4.588,4.588,4.57,4.5504,3.1326,0.0,0.0,3.2411,3.2934,3.3156,3.3156,3.3156,3.3404,3.4228,3.4397,3.4397,3.4397,3.4397,0.0,3.5277,3.5032,3.495,3.5588,3.5896,3.6042,3.6042,3.6582,3.6958,3.7218,3.6281,3.5816,3.6042,3.5816,3.5507,3.5101,3.5655,3.5655,3.4799,3.4799,3.4634,3.4397,3.4397,3.4397,3.4397,3.4397,3.4319,3.4175,3.4175,3.4254,3.4397,3.4397,3.4397,3.4397,3.4564,3.4564,3.4647,3.5072,3.5154,3.5059,3.5642,3.6058,3.6312,3.6693,3.7027,3.7316,3.7751,3.8018,3.8285,3.8931,3.9128,3.924,3.9859,4.0041,4.014,4.0589,4.0702,4.0702,4.0702,4.0702,4.0702,4.0773,4.093,4.1085,4.117,4.1367,4.1549,4.18,4.18,4.1897,4.2092,4.2092,4.2092,4.2092,4.2237,4.2586,4.3195,4.3413,4.3892,4.4806,4.5053,4.5358,4.5851,4.588,4.588,4.588,4.588,4.588,4.588,4.588,4.588,4.588,4.588,4.588,4.588,4.57,4.5504,0.0,0.0,3.1261,3.2411,3.3522,3.4345,3.4345,3.4345,3.4358,3.4384,3.4397,3.4397,3.4397,3.4397,3.4397,3.4481,3.5114,3.5669,3.5669,3.6346,3.688,3.688,3.6894,3.7204,0.0,3.6702,3.6042,3.6802,3.6122,3.6042,3.6802,3.688,3.6503,3.5669,3.5669,3.5277,3.4397,3.4397,3.4397,3.4397,3.4397,3.4123,3.3613,3.3613,3.3901,3.4397,3.4397,3.4397,3.4397,3.4908,3.5086,3.5086,3.5562,3.5978,3.6312,3.6405,3.6058,3.5804,3.6232,3.7083,3.7878,3.7892,3.8327,3.8959,3.9564,3.9746,3.9887,4.0491,4.0674,4.0674,4.0702,4.0702,4.0702,4.0702,4.0702,4.0773,4.0916,4.1001,4.117,4.1604,4.1702,4.18,4.1995,4.2092,4.2092,4.2092,4.2092,4.2092,4.2092,4.26,4.3224,4.3892,4.4487,4.485,4.4879,4.5488,4.5866,4.588,4.588,4.588,4.588,4.588,4.588,4.588,4.588,4.588,4.588,4.588,4.588,4.588,4.588,4.588,0.0,0.0,3.2853,3.4033,3.4616,3.4825,3.4481,3.4397,3.4397,3.4397,3.3796,3.326,3.326,3.326,3.3408,3.4005,3.4513,3.5264,3.6346,3.6281,3.6517,3.763,3.7782,0.0,0.0,0.0,0.0,3.7706,3.7491,3.7232,3.6894,3.7462,3.7155,3.5749,3.5669,3.5264,3.4397,3.4397,3.4214,3.3862,3.3862,3.3989,3.4353,3.4186,3.4228,3.4397,3.4743,3.4825,3.4908,3.5318,3.548,3.5562,3.5978,3.6058,3.6019,3.7059,3.7132,3.6823,3.7212,3.7938,3.8608,3.9016,3.9297,3.9592,4.0196,4.0393,4.0435,4.0631,4.0702,4.0702,4.0702,4.0702,4.0702,4.0702,4.0759,4.093,4.1001,4.1254,4.1521,4.1688,4.18,4.1995,4.2092,4.2092,4.2237,4.2629,4.2687,4.2687,4.2687,4.3253,4.3892,4.4516,4.4763,4.5068,4.5518,4.575,4.588,4.588,4.588,4.588,4.588,4.588,4.588,4.588,4.588,4.588,4.588,4.588,4.588,4.588,4.588,4.57,0.0,3.2881,3.358,3.4779,3.499,3.4743,3.4481,3.4397,3.4397,3.4397,3.3483,3.2685,3.2685,3.2685,3.2712,3.2874,3.3405,3.4246,3.5683,3.5697,3.6192,3.7965,3.8427,0.0,0.0,0.0,0.0,3.8575,3.8352,3.8113,3.7843,3.8023,3.772,3.6624,3.6294,3.5627,3.4563,3.4794,3.4607,3.3966,3.4046,3.4219,3.4553,3.4429,3.4462,3.4647,3.5154,3.5318,3.5318,3.5804,3.5978,3.5992,3.6692,3.6775,3.667,3.7858,3.8235,3.824,3.8246,3.8664,3.9269,3.9648,3.9929,4.0182,4.0575,4.0702,4.0702,4.0702,4.0702,4.0702,4.0702,4.0702,4.0702,4.0773,4.0845,4.093,4.117,4.1437,4.1619,4.18,4.1995,4.2165,4.2382,4.2615,4.2905,4.3297,4.3529,4.3674,4.3674,4.4052,4.4545,4.5169,4.5242,4.5416,4.5851,4.588,4.588,4.588,4.588,4.588,4.588,4.588,4.588,4.588,4.588,4.588,4.588,4.588,4.588,4.5895,4.6113,4.6032,3.3322,3.3742,3.366,3.4874,3.4825,3.4397,3.4397,3.4397,3.4384,3.4332,3.3378,3.2542,0.0,0.0,3.2238,3.1133,3.2011,3.3145,3.4033,3.4811,3.607,0.0,0.0,0.0,0.0,0.0,0.0,3.9424,0.0,3.8575,3.9337,3.8664,3.8263,3.8144,3.7329,3.6261,3.4866,3.5586,3.56,3.4852,3.4852,3.4687,3.4498,3.4324,3.4633,3.5154,3.5548,3.579,3.579,3.6298,3.6484,3.666,3.7601,3.792,3.8032,3.8678,3.9283,3.9704,3.9156,3.9339,3.9831,3.9831,4.0224,4.0702,4.0702,4.0702,4.0702,4.0702,4.0702,4.0702,4.0688,4.0702,4.0773,4.1001,4.0845,4.0944,4.1521,4.1549,4.1578,4.2053,4.2165,4.2382,4.2948,4.3587,4.4037,4.4037,4.4545,4.4922,4.4879,4.4922,4.5184,4.5822,4.588,4.588,4.588,4.588,4.588,4.588,4.588,4.588,4.588,4.588,4.588,4.588,4.588,4.5909,4.5938,4.5938,4.5953,4.5996,4.6592,4.6882,3.4272,3.479,3.517,3.548,3.5236,3.4825,3.4481,3.4397,3.4162,3.33,3.1875,3.0516,0.0,0.0,0.0,3.0408,3.2907,0.0,3.6039,3.6914,0.0,0.0,0.0,3.9424,3.9424,3.9424,0.0,0.0,3.9192,3.9192,3.9424,3.9192,3.8576,3.7476,3.7212,3.6678,3.56,3.6014,3.6404,3.6745,3.56,3.5452,3.6262,3.5792,3.5547,3.5548,3.6452,3.683,3.683,3.7337,3.779,3.8218,3.8453,3.8587,3.8693,3.9325,3.9648,3.9816,4.0126,4.0336,4.0463,4.0463,4.0561,4.0702,4.0702,4.0702,4.0702,4.0702,4.0702,4.0688,4.0845,4.0916,4.1015,4.1213,4.1367,4.1535,4.1688,4.1814,4.2056,4.2673,4.3166,4.3558,4.3718,4.4255,4.4661,4.4661,4.5213,4.5445,4.4951,4.5329,4.5692,4.5866,4.588,4.588,4.588,4.588,4.588,4.588,4.588,4.588,4.588,4.588,4.588,4.588,4.588,4.6113,4.6592,4.6592,4.6838,4.7303,4.7462,4.7442,3.5481,3.5825,3.5978,3.5978,3.5642,3.5183,3.4326,3.4219,3.3728,3.2296,3.0824,0.0,0.0,0.0,0.0,0.0,0.0,0.0,3.6634,3.7256,3.8053,0.0,3.9553,0.0,3.9424,3.9424,3.929,0.0,3.9245,3.929,3.899,3.8602,3.8192,3.7737,3.7346,3.7201,3.7099,3.6952,3.7084,3.7549,3.6989,3.6831,3.7189,3.6971,3.6894,3.6844,0.0,3.7904,3.7933,3.8174,3.8505,3.8802,3.9139,3.9272,3.9339,3.9957,4.0182,4.0224,4.0575,4.0702,4.0702,4.0702,4.0702,4.0702,4.0702,4.0702,4.0702,4.0702,4.0702,4.0773,4.0916,4.1001,4.1085,4.1451,4.1549,4.1774,4.2685,4.2621,4.2603,4.3311,4.395,4.4385,4.4385,4.4908,4.5329,4.5329,4.5648,4.575,4.5372,4.5648,4.588,4.588,4.588,4.588,4.588,4.588,4.588,4.588,4.588,4.588,4.588,4.588,4.588,4.588,4.6156,4.6475,4.6824,4.7114,4.7433,4.7796,4.8058,4.8093,3.6606,3.6693,3.6405,3.6405,3.6058,3.5398,3.414,3.3801,3.3219,3.1253,0.0,0.0,2.7878,0.0,3.0186,2.9961,0.0,3.4881,3.6679,3.7074,3.7805,3.9556,3.9768,3.9666,3.9376,3.9361,3.9148,3.8611,3.9058,3.9092,3.8507,3.7794,3.7723,3.8392,3.7794,3.7794,3.8702,3.8184,3.7984,3.8083,3.8516,3.8428,3.7814,3.8101,3.8175,3.819,3.8694,0.0,3.9033,3.8975,3.9001,3.926,3.9833,4.0067,4.0139,4.0746,4.0859,4.0859,4.0859,4.0859,4.0787,4.0702,4.0702,4.0702,4.0702,4.0773,4.0859,4.0773,4.0859,4.093,4.1085,4.1085,4.1269,4.1858,4.1901,4.2227,4.405,4.3642,4.3185,4.3993,4.4603,4.5024,4.5024,4.5503,4.588,4.588,4.588,4.588,4.588,4.588,4.588,4.588,4.588,4.588,4.588,4.588,4.588,4.588,4.588,4.588,4.588,4.588,4.5924,4.6011,4.6548,4.6911,4.7085,4.7637,4.7956,4.8043,4.8595,4.8856,3.7078,3.6693,3.6405,3.6405,3.6058,3.5398,3.414,3.3463,0.0,0.0,0.0,2.7552,2.6505,0.0,0.0,3.0695,0.0,0.0,0.0,0.0,0.0,0.0,0.0,0.0,0.0,0.0,0.0,0.0,0.0,3.8992,3.894,3.8632,3.8477,3.8617,3.8477,3.8602,3.8963,3.9525,3.9868,3.9853,3.926,3.9103,3.9292,3.9015,3.8796,3.8694,3.9307,0.0,4.0364,3.9771,4.0143,4.1125,4.1266,4.1285,4.1461,4.2044,4.1922,4.1535,4.1535,4.1535,4.1451,4.0859,4.0702,4.0702,4.0702,4.1339,4.1893,4.117,4.1561,4.2193,4.1673,4.1604,4.197,4.3523,4.3805,4.408,4.4915,4.484,4.4589,4.4705,4.5271,4.5706,4.5706,4.5808,4.588,4.588,4.588,4.588,4.588,4.588,4.588,4.588,4.588,4.588,4.588,4.588,4.588,4.588,4.588,4.588,4.588,4.588,4.6127,4.665,4.678,4.7346,4.8391,4.8508,4.8827,4.9349,4.9465,4.9509,3.7962,3.7596,3.7289,3.7596,3.7491,3.6679,3.4197,0.0,0.0,0.0,0.0,0.0,2.6189,0.0,0.0,0.0,0.0,0.0,0.0,0.0,0.0,0.0,0.0,0.0,0.0,0.0,0.0,0.0,0.0,3.853,3.8493,3.8728,3.8825,3.8825,3.9173,3.951,3.9703,4.0109,4.0347,4.0401,4.0005,3.9935,4.0106,3.9849,3.9778,3.9753,4.0416,0.0,4.1188,4.1175,4.159,4.2108,4.2119,4.2122,4.2237,4.2467,4.24,4.217,4.217,4.217,4.2155,4.2058,4.1961,4.1961,4.1961,4.2193,4.2356,4.1947,4.2179,4.2673,4.2878,4.3197,4.3817,4.5202,4.5723,4.5843,4.5187,4.5592,4.5976,4.549,4.5663,4.588,4.588,4.588,4.588,4.588,4.588,4.588,4.588,4.588,4.588,4.588,4.588,4.588,4.588,4.588,4.588,4.588,4.588,4.588,4.588,4.62,4.6519,4.6824,4.7477,4.8116,4.8725,4.9059,4.9378,4.9669,4.9669,4.9669,3.8825,3.8679,3.8457,3.8899,3.8987,3.7999,3.4353,3.3391,0.0,0.0,0.0,0.0,0.0,0.0,0.0,0.0,0.0,0.0,0.0,0.0,0.0,0.0,0.0,0.0,0.0,0.0,0.0,0.0,0.0,0.0,3.8272,3.8895,3.9245,3.9245,3.9792,4.0137,4.0331,4.0331,4.0401,4.0524,4.0524,4.0524,4.0524,4.0524,4.0616,4.0786,4.1355,0.0,0.0,4.2455,4.2649,4.2814,4.2837,4.279,4.2805,4.2966,4.2966,4.2805,4.2871,4.2951,4.3031,4.3397,4.3382,4.3225,4.3289,4.3289,4.313,4.2971,4.3235,4.3633,4.4173,4.4944,4.5677,4.6636,4.733,4.7415,4.5999,4.65,4.7031,4.6535,4.6299,4.6225,4.6225,4.6046,4.588,4.588,4.588,4.588,4.588,4.588,4.588,4.588,4.588,4.588,4.588,4.588,4.588,4.588,4.588,4.5953,4.6084,4.6563,4.6954,4.723,4.8217,4.8798,4.8928,4.9422,4.9669,4.9669,4.9669,4.9669,3.951,3.9703,3.9632,3.9703,3.9505,3.8381,3.5066,0.0,0.0,0.0,0.0,0.0,0.0,0.0,0.0,0.0,0.0,0.0,0.0,0.0,0.0,0.0,0.0,0.0,0.0,0.0,0.0,0.0,0.0,0.0,3.913,3.9788,4.017,4.017,4.0246,4.0331,4.0455,4.0455,4.0455,4.0524,4.0524,4.0524,4.0524,4.0524,4.0893,4.1509,4.1571,0.0,0.0,4.2819,4.2997,4.3539,4.3521,4.3551,4.3536,4.4174,4.402,4.3536,4.3912,4.4051,4.4143,4.451,4.4021,4.3304,4.3665,4.4373,4.5005,4.419,4.5124,4.6257,4.5542,4.5942,4.6667,4.7376,4.7942,4.8337,4.8254,4.7643,4.7448,4.8095,4.7603,4.7118,4.7118,4.6462,4.588,4.588,4.588,4.588,4.588,4.588,4.588,4.588,4.588,4.588,4.588,4.588,4.588,4.588,4.588,4.6142,4.6708,4.6795,4.7375,4.8522,4.8667,4.9016,4.9596,4.9654,4.9669,4.9669,4.9669,4.9669,4.0484,4.0622,4.0401,4.0774,3.9807,3.8018,3.5216,0.0,0.0,0.0,2.781,2.7715,0.0,0.0,0.0,0.0,0.0,0.0,0.0,0.0,0.0,0.0,0.0,0.0,0.0,0.0,0.0,0.0,0.0,0.0,3.9971,4.0247,4.0401,4.0401,4.0401,4.047,4.0524,4.0524,4.0524,4.0524,4.0524,4.0524,4.0539,4.097,4.1324,4.1632,4.2432,0.0,0.0,4.3987,4.4159,4.4251,4.4708,4.4783,4.4632,4.5157,4.5157,4.4918,4.5142,4.5142,4.5216,4.5567,4.5374,4.5064,4.5285,4.5447,4.563,4.5728,4.6206,4.6945,4.7385,4.8028,4.8528,4.8229,4.8327,4.8346,4.7858,4.7858,4.8095,4.8414,4.8263,4.7858,4.7276,4.7362,4.7276,4.6784,4.7118,4.7276,4.6799,4.6711,4.6462,4.597,4.588,4.588,4.588,4.588,4.588,4.588,4.6243,4.6563,4.6824,4.7564,4.8203,4.8711,4.9103,4.9422,4.9669,4.9669,4.9669,4.9669,4.9669,4.9669,4.0785,4.129,4.1393,4.1769,4.0214,3.7923,0.0,0.0,0.0,2.8719,2.8319,2.8383,2.8383,0.0,0.0,0.0,0.0,0.0,0.0,0.0,0.0,0.0,0.0,0.0,0.0,0.0,0.0,0.0,0.0,0.0,4.0524,4.0524,4.0524,4.0524,4.0524,4.0524,4.0524,4.0524,4.0524,4.0524,4.0524,4.0524,4.0555,4.1278,4.1709,4.1955,4.3225,0.0,0.0,4.5044,4.5247,4.5024,4.5541,4.5614,4.5395,4.5687,4.576,4.5832,4.5889,4.5961,4.6032,4.6372,4.6512,4.6545,4.6699,4.6621,4.6502,4.6996,4.7442,4.8031,4.9241,4.991,5.0026,4.9101,4.8922,4.8774,4.8111,4.8527,4.9019,4.9262,4.9101,4.8692,4.8111,4.8263,4.8263,4.7689,4.8095,4.8179,4.7276,4.7204,4.6872,4.597,4.588,4.588,4.588,4.588,4.588,4.588,4.649,4.6911,4.71,4.8145,4.8812,4.9001,4.9451,4.9669,4.9669,4.9669,4.9669,4.9669,4.9669,4.9669,4.014,4.1549,4.2571,4.2571,4.0694,3.8398,0.0,0.0,0.0,0.0,2.9075,2.9075,2.9075,2.9075,2.8982,2.8732,2.87,0.0,0.0,0.0,0.0,0.0,0.0,0.0,0.0,0.0,0.0,0.0,0.0,0.0,4.0524,4.0524,4.0524,4.0524,4.0524,4.0524,4.0524,4.0524,4.0524,4.0524,4.0524,4.0524,4.0555,4.1278,4.1971,0.0,0.0,0.0,0.0,4.5614,4.576,4.576,4.576,4.576,4.576,4.576,4.576,4.5832,4.6159,4.6285,4.6372,4.6738,4.6876,4.7022,4.7767,4.7993,4.801,4.801,4.9013,5.0244,5.0989,5.1167,5.094,5.012,4.9884,4.9868,4.9868,4.9868,5.012,5.1016,5.0448,4.9868,4.9868,4.9101,4.8496,4.8512,4.8496,4.8179,4.7276,4.7204,4.6872,4.597,4.588,4.588,4.588,4.588,4.588,4.588,4.649,4.7114,4.7738,4.8391,4.9016,4.9654,4.9669,4.9669,4.9669,4.9669,4.9669,4.9669,4.9669,4.9669,3.8683,3.9395,3.9735,3.9735,3.7688,3.5432,3.4823,0.0,0.0,0.0,0.0,0.0,0.0,2.9213,2.9075,2.8982,2.8982,2.9155,0.0,0.0,0.0,0.0,0.0,0.0,0.0,0.0,0.0,0.0,0.0,0.0,4.0524,4.073,4.0799,4.0524,4.0524,4.0524,4.0524,4.0524,4.0524,4.0524,4.0799,4.1062,4.1278,4.2224,4.3049,0.0,0.0,0.0,0.0,4.6017,4.6032,4.5832,4.6317,4.6388,4.6175,4.6458,4.6528,4.6598,4.6668,4.6738,4.6738,4.6892,4.7232,4.7702,4.7945,4.801,4.8204,4.9175,5.0115,5.0892,5.1118,5.0771,5.0276,4.9963,4.9868,4.9868,4.9868,5.037,5.0848,5.1183,5.1016,5.0618,5.0042,5.0182,5.0182,4.9534,4.9931,5.001,4.9116,4.8527,4.7758,4.6872,4.621,4.588,4.588,4.588,4.6069,4.6505,4.7129,4.7767,4.8406,4.903,4.9465,4.9669,4.9669,4.9669,4.9669,4.9669,4.9669,4.9669,4.9669,4.9669,0.0,3.8137,3.856,3.852,3.6291,0.0,0.0,0.0,0.0,0.0,0.0,0.0,0.0,2.9486,2.9366,2.9259,2.9259,2.9388,0.0,0.0,0.0,0.0,0.0,0.0,0.0,0.0,0.0,0.0,0.0,0.0,4.0919,4.1122,4.1189,4.0919,4.0919,4.0919,4.0919,4.0919,4.0919,4.0919,4.1455,4.1831,4.2023,4.3224,4.3952,0.0,0.0,0.0,0.0,4.6372,4.6372,4.6246,4.6738,4.6738,4.6582,4.6807,4.6876,4.6876,4.6876,4.6876,4.6925,4.7216,4.7993,4.8803,4.8803,4.8803,4.9046,5.0196,5.0843,5.1183,5.1183,5.0771,5.037,5.037,5.037,5.037,5.037,5.0848,5.1183,5.1183,5.1183,5.1016,5.0448,5.0848,5.1016,5.0448,5.0848,5.0864,5.0026,4.9101,4.8263,4.7773,4.6872,4.6476,4.674,4.641,4.6417,4.6809,4.7651,4.8319,4.8711,4.9335,4.9669,4.9669,4.9669,4.9669,4.9669,4.9669,4.9669,4.9669,4.9669,4.9669,0.0,0.0,0.0,0.0,0.0,0.0,0.0,0.0,0.0,0.0,0.0,0.0,0.0,0.0,2.9814,2.9576,2.9515,2.992,0.0,0.0,0.0,0.0,0.0,0.0,0.0,0.0,0.0,0.0,0.0,0.0,4.1588,4.1588,4.1654,4.1654,4.1654,4.1654,4.1588,4.1588,4.162,4.1667,4.2398,4.2762,4.2905,4.4186,4.4733,0.0,0.0,0.0,0.0,4.6738,4.6876,4.6876,4.6876,4.6876,4.6876,4.6876,4.6876,4.6876,4.6876,4.6909,4.7103,4.7896,4.9046,5.0115,5.0163,5.0179,5.0325,5.1005,5.1183,5.1183,5.1183,5.1183,5.1183,5.1183,5.1183,5.1183,5.1183,5.1183,5.1183,5.1183,5.1183,5.1183,5.1183,5.1183,5.1183,5.1183,5.1183,5.094,5.012,4.9181,4.8594,4.8594,4.7888,4.7605,4.8162,4.7447,4.6867,4.6954,4.8072,4.874,4.8798,4.9364,4.9669,4.9669,4.9669,4.9669,4.9669,4.9669,4.9669,4.9669,4.9669,4.9669,0.0,0.0,0.0,0.0,0.0,0.0,0.0,0.0,0.0,0.0,0.0,0.0,0.0,0.0,0.0,2.9814,2.9814,3.0271,0.0,0.0,0.0,0.0,0.0,0.0,0.0,0.0,0.0,0.0,0.0,4.1588,4.1588,4.1851,4.198,4.198,4.2238,4.2109,4.1588,4.1588,4.1857,4.2461,4.2903,4.3456,4.4266,4.484,4.5426,0.0,0.0,0.0,4.6738,4.6876,4.6876,4.6876,4.6876,4.6876,4.6876,4.6876,4.6876,4.6876,4.6876,4.7265,4.7961,4.9208,4.9839,5.0212,5.0762,5.0924,5.0973,5.1135,5.1183,5.1183,5.1183,5.1183,5.1183,5.1183,5.1183,5.1183,5.1183,5.1183,5.1183,5.1183,5.1183,5.1183,5.1183,5.1183,5.1183,5.1183,5.1183,5.1108,5.094,5.0104,4.9534,4.9534,4.9238,4.8779,4.8207,4.7971,4.795,4.8217,4.8551,4.8943,4.9436,4.9596,4.9669,4.9669,4.9669,4.9669,4.9669,4.9669,4.9669,4.9669,4.9669,4.9669,0.0,0.0,0.0,0.0,0.0,0.0,0.0,0.0,0.0,0.0,0.0,0.0,0.0,0.0,0.0,0.0,3.1326,0.0,0.0,0.0,0.0,0.0,0.0,0.0,0.0,0.0,0.0,0.0,0.0,4.2045,4.2045,4.2238,4.2302,4.2302,4.2508,4.2445,4.2045,4.2364,4.2797,4.3181,4.4021,4.4661,4.5245,4.5805,4.6244,0.0,0.0,0.0,4.6876,4.6876,4.6876,4.6876,4.6876,4.6876,4.6876,4.6876,4.6876,4.6941,4.7281,4.8091,4.9094,4.9855,5.0325,5.0681,5.107,5.1183,5.1183,5.1183,5.1183,5.1183,5.1183,5.1183,5.1183,5.1183,5.1183,5.1183,5.1183,5.1183,5.1183,5.1183,5.1183,5.1183,5.1183,5.1183,5.1183,5.1183,5.1183,5.1183,5.1183,5.0448,5.0153,5.0863,5.0481,5.0211,5.0334,5.038,4.9912,4.8763,4.9001,4.932,4.9654,4.9669,4.9669,4.9669,4.9669,4.9669,4.9669,4.9669,4.9669,4.9669,4.9669,4.9669,0.0,0.0,0.0,0.0,0.0,0.0,0.0,0.0,0.0,0.0,0.0,0.0,0.0,0.0,0.0,0.0,0.0,0.0,0.0,0.0,0.0,0.0,0.0,0.0,0.0,0.0,0.0,0.0,0.0,4.2634,4.2634,4.2634,4.2634,4.2634,4.2634,4.2682,4.2796,4.3411,4.3816,4.4043,4.5241,4.5856,4.5986,4.6601,4.6876,4.6876,0.0,0.0,4.6876,4.6876,4.6876,4.6876,4.6876,4.6876,4.6876,4.6876,4.6957,4.7184,4.8042,4.9111,5.0115,5.0228,5.0681,5.1183,5.1183,5.1183,5.1183,5.1183,5.1183,5.1183,5.1183,5.1183,5.1183,5.1183,5.1183,5.1183,5.1183,5.1183,5.1183,5.1183,5.1183,5.1183,5.1183,5.1258,5.1258,5.1183,5.1258,5.1258,5.1183,5.0621,5.0737,5.2139,5.1804,5.1914,5.2922,5.3028,5.2033,4.9493,4.9735,4.9863,4.9669,4.9669,4.9669,4.9669,4.9669,4.9669,4.9669,4.9669,4.9669,4.9669,4.9669,4.9669,0.0,0.0,0.0,0.0,0.0,0.0,0.0,0.0,0.0,0.0,0.0,0.0,0.0,0.0,0.0,0.0,0.0,0.0,0.0,0.0,0.0,0.0,0.0,0.0,0.0,0.0,0.0,0.0,0.0,4.2634,4.2634,4.2634,4.2634,4.2634,4.2634,4.2925,4.3541,4.3654,4.4302,4.5484,4.5694,4.6131,4.6714,4.6828,4.6876,4.6876,0.0,4.6876,4.6876,4.6876,4.6876,4.6876,4.6876,4.6876,4.6876,4.6876,4.7297,4.8026,4.9321,4.992,5.0212,5.0811,5.1086,5.1183,5.1183,5.1183,5.1183,5.1183,5.1183,5.1183,5.1183,5.1183,5.1183,5.1183,5.1183,5.1183,5.1183,5.1183,5.1183,5.1183,5.1183,5.1183,5.1183,5.135,5.1424,5.1258,5.135,5.1424,5.1183,5.1593,5.2013,5.2481,5.3477,5.3842,5.3267,5.3724,5.3514,5.2301,5.1406,5.0573,4.9766,4.9669,4.9669,4.9669,4.9669,4.9669,4.9669,4.9669,4.9669,4.9669,4.9669,4.9669,0.0,0.0,0.0,0.0,0.0,0.0,0.0,0.0,0.0,0.0,0.0,0.0,0.0,0.0,0.0,0.0,0.0,0.0,0.0,0.0,0.0,0.0,0.0,0.0,0.0,0.0,0.0,0.0,0.0,0.0,4.2634,4.2634,4.2634,4.2634,4.3022,4.3557,4.4285,4.4658,4.516,4.5807,4.6196,4.6552,4.6876,4.6876,4.6876,4.6876,0.0,4.6876,4.6876,4.6876,4.6876,4.6876,4.6876,4.6876,4.6941,4.7346,4.8188,4.924,4.9888,5.0357,5.0746,5.107,5.1183,5.1183,5.1183,5.1183,5.1183,5.1183,5.1183,5.1183,5.1183,5.1183,5.1183,5.1183,5.1183,5.1183,5.1183,5.1183,5.1183,5.1183,5.1258,5.135,5.135,5.1499,5.1647,5.1557,5.1631,5.1778,5.2095,5.2421,5.2927,5.3787,5.4456,5.4821,5.4632,5.502,5.4401,5.2305,5.1666,5.0857,4.9975,4.9781,4.9669,4.9669,4.9669,4.9669,4.9669,4.9669,4.9669,4.9669,4.9669,4.9669,0.0,0.0,0.0,0.0,0.0,0.0,0.0,0.0,0.0,0.0,0.0,0.0,0.0,0.0,0.0,0.0,0.0,0.0,0.0,0.0,0.0,0.0,0.0,0.0,0.0,0.0,0.0,0.0,0.0,0.0,4.2696,4.2634,4.2715,4.2877,4.3427,4.414,4.503,4.5548,4.5888,4.6067,4.6617,4.6876,4.6876,4.6876,4.6876,4.6876,4.6876,4.6876,4.6876,4.6876,4.6876,4.6876,4.6876,4.6989,4.7265,4.8171,4.9175,5.0131,5.0309,5.0714,5.1183,5.1275,5.1275,5.1258,5.1258,5.1258,5.1258,5.1275,5.1275,5.1275,5.1275,5.1333,5.1301,5.1258,5.135,5.1366,5.1275,5.1333,5.1333,5.1333,5.1483,5.1573,5.1573,5.1721,5.1851,5.1778,5.1999,5.231,5.2794,5.317,5.3776,5.4951,5.5214,5.548,5.5894,5.6086,5.5099,5.247,5.2018,5.1311,5.0183,4.9878,4.9781,4.9781,4.9781,4.9781,4.9781,4.9781,4.9669,4.9669,4.9669,4.9669,3.6382,3.7679,0.0,0.0,0.0,0.0,0.0,0.0,0.0,0.0,0.0,0.0,0.0,0.0,0.0,0.0,0.0,0.0,0.0,0.0,0.0,0.0,0.0,0.0,0.0,0.0,0.0,0.0,0.0,0.0,4.2899,4.2696,4.2941,4.3622,4.3686,4.435,4.571,4.5775,4.6131,4.6811,4.686,4.6876,4.6876,4.6876,4.6876,4.6876,4.6876,4.6876,4.6876,4.6876,4.6876,4.6876,4.6876,4.7313,4.8091,4.9451,5.0017,5.0196,5.0876,5.1135,5.1275,5.1473,5.1548,5.1499,5.1499,5.1499,5.1515,5.1548,5.1564,5.1564,5.1564,5.154,5.1533,5.1483,5.1712,5.1893,5.1515,5.1647,5.1778,5.1778,5.1778,5.1778,5.1778,5.1941,5.203,5.1851,5.2573,5.3033,5.295,5.4022,5.4951,5.5282,5.5907,5.6319,5.6385,5.6385,5.5878,5.4819,5.3514,5.2033,5.0168,4.9878,4.9781,5.0086,4.9878,4.9781,5.0086,4.9781,4.9669,4.9669,4.9669,4.9669,3.7217,3.838,0.0,0.0,0.0,0.0,0.0,0.0,0.0,0.0,0.0,0.0,0.0,0.0,0.0,0.0,0.0,0.0,0.0,0.0,0.0,0.0,0.0,0.0,0.0,0.0,0.0,0.0,0.0,0.0,4.299,4.3353,4.3681,4.3911,4.4838,4.5472,4.5791,4.6397,4.6754,4.6876,4.6876,4.6876,4.6876,4.6876,4.6876,4.6876,4.6876,4.6876,4.6876,4.6876,4.6876,4.6925,4.7394,4.8026,4.8754,4.9742,5.039,5.0811,5.1086,5.1291,5.1457,5.1531,5.1622,5.1803,5.1803,5.1754,5.1721,5.1737,5.1876,5.2032,5.1909,5.186,5.1811,5.1721,5.1811,5.1827,5.1721,5.1721,5.1778,5.1778,5.1868,5.2013,5.2013,5.2158,5.2379,5.2735,5.3106,5.3618,5.4467,5.5045,5.5556,5.6139,5.6298,5.6463,5.6619,5.6463,5.602,5.5231,5.403,5.2738,5.1497,5.0632,5.0294,5.039,5.0086,4.999,5.0086,4.9878,4.9669,4.9669,4.9669,4.9669,3.8563,0.0,0.0,0.0,0.0,0.0,0.0,0.0,0.0,0.0,0.0,0.0,0.0,0.0,0.0,0.0,0.0,0.0,0.0,0.0,0.0,0.0,0.0,0.0,0.0,0.0,0.0,0.0,0.0,0.0,0.0,4.3801,4.4246,4.4444,4.5685,4.6355,4.6366,4.699,4.7251,4.7098,4.7098,4.703,4.6961,4.6961,4.6945,4.703,4.703,4.6961,4.6892,4.703,4.716,4.7334,4.7967,4.8648,4.9321,5.0123,5.074,5.121,5.1317,5.1441,5.1548,5.1712,5.1876,5.2039,5.2039,5.199,5.1851,5.1851,5.2096,5.2307,5.2185,5.2112,5.2096,5.1957,5.1924,5.1997,5.1941,5.1924,5.2013,5.2013,5.2086,5.2175,5.2175,5.2318,5.2622,5.3318,5.3616,5.4212,5.5471,5.5819,5.615,5.663,5.6619,5.6541,5.668,5.6525,5.6274,5.5732,5.4469,5.3268,5.2274,5.109,5.0486,5.0567,5.039,5.0279,5.0361,5.0072,4.9878,4.9878,4.9878,4.9781,0.0,0.0,0.0,0.0,0.0,0.0,0.0,0.0,0.0,0.0,0.0,0.0,0.0,0.0,0.0,0.0,0.0,0.0,0.0,0.0,0.0,0.0,0.0,0.0,0.0,0.0,0.0,0.0,0.0,0.0,0.0,4.3941,4.4538,4.5275,4.6012,4.6733,4.747,4.7486,4.7486,4.7486,4.7486,4.7403,4.7183,4.703,4.703,4.7183,4.7183,4.7098,4.6961,4.7335,4.7812,4.8225,4.8567,4.9148,4.9904,5.0872,5.1247,5.1245,5.1672,5.1647,5.1606,5.2194,5.229,5.2102,5.2102,5.2102,5.2102,5.2102,5.2102,5.2175,5.239,5.2373,5.2373,5.2175,5.2247,5.239,5.2175,5.2247,5.2373,5.2373,5.2373,5.2373,5.2373,5.239,5.2622,5.3318,5.4063,5.4808,5.5554,5.6249,5.668,5.668,5.668,5.668,5.668,5.668,5.668,5.668,5.5001,5.3443,5.2274,5.109,5.0567,5.0807,5.0567,5.0567,5.0807,5.0567,5.039,5.0086,5.0086,4.9975,0.0,0.0,0.0,0.0,0.0,0.0,0.0,0.0,0.0,0.0,0.0,0.0,0.0,0.0,0.0,0.0,0.0,0.0,0.0,0.0,0.0,0.0,0.0,0.0,0.0,0.0,0.0,0.0,0.0,0.0,0.0,4.4946,4.561,4.6207,4.7094,4.7523,4.747,4.7588,4.7588,4.7486,4.7486,4.747,4.7403,4.7335,4.7319,4.7403,4.7403,4.7403,4.7368,4.7994,4.7939,4.77,4.9143,4.9642,4.9798,5.1246,5.1672,5.1655,5.1762,5.1933,5.2161,5.2185,5.228,5.2318,5.2318,5.2318,5.2318,5.2318,5.2318,5.2302,5.2373,5.2373,5.2373,5.2318,5.239,5.2373,5.2302,5.239,5.2373,5.2373,5.2373,5.2373,5.2373,5.2788,5.3351,5.408,5.4825,5.5554,5.6282,5.6547,5.668,5.668,5.668,5.668,5.668,5.668,5.668,5.668,5.5001,5.3805,5.3443,5.1896,5.1041,5.112,5.0822,5.0728,5.0807,5.0567,5.0501,5.039,5.0183,5.0183,0.0,0.0,0.0,0.0,0.0,0.0,0.0,0.0,0.0,0.0,0.0,0.0,0.0,0.0,0.0,0.0,0.0,0.0,0.0,0.0,0.0,0.0,0.0,0.0,0.0,0.0,0.0,0.0,0.0,0.0,0.0,4.5665,4.6364,4.673,4.7538,4.7869,4.7671,4.7787,4.7787,4.7671,4.7671,4.7671,4.7671,4.7537,4.7537,4.7604,4.7537,4.7768,4.8148,4.8491,4.8649,4.8907,5.0014,5.0451,5.0674,5.1783,5.2046,5.1908,5.1997,5.2135,5.229,5.2191,5.2302,5.2373,5.2373,5.2373,5.2373,5.2373,5.2373,5.2373,5.2373,5.2373,5.2373,5.2373,5.2373,5.2373,5.2373,5.2373,5.2373,5.2373,5.2373,5.2473,5.2738,5.3135,5.3765,5.4808,5.557,5.62,5.663,5.668,5.668,5.668,5.668,5.668,5.668,5.668,5.668,5.668,5.5001,5.3976,5.3976,5.217,5.1214,5.1214,5.1011,5.0917,5.0917,5.0852,5.0757,5.0662,5.0456,5.0375,0.0,0.0,0.0,0.0,0.0,0.0,0.0,0.0,0.0,0.0,0.0,0.0,0.0,0.0,0.0,0.0,0.0,0.0,0.0,0.0,0.0,0.0,0.0,0.0,0.0,0.0,0.0,0.0,0.0,0.0,0.0,4.6129,4.6924,4.699,4.7653,4.8001,4.8001,4.8001,4.8001,4.8001,4.8001,4.8001,4.8001,4.7671,4.7588,4.7704,4.767,4.8231,4.9127,4.9024,4.978,5.0966,5.1008,5.147,5.2053,5.2302,5.2214,5.2036,5.2302,5.2318,5.2175,5.2318,5.2373,5.2373,5.2373,5.2373,5.2373,5.2373,5.2373,5.2373,5.2373,5.2373,5.2373,5.2373,5.2373,5.2373,5.2373,5.2373,5.2373,5.2373,5.2423,5.2672,5.3318,5.3533,5.4096,5.5504,5.6266,5.668,5.668,5.668,5.668,5.668,5.668,5.668,5.668,5.668,5.668,5.668,5.5083,5.4062,5.3976,5.217,5.1214,5.1214,5.1214,5.1214,5.1214,5.1214,5.1105,5.0807,5.0807,5.0742,0.0,0.0,0.0,0.0,0.0,0.0,0.0,0.0,0.0,0.0,0.0,0.0,0.0,0.0,0.0,0.0,0.0,0.0,0.0,0.0,0.0,0.0,0.0,0.0,0.0,0.0,0.0,0.0,0.0,0.0,4.5516,4.6411,4.7173,4.7752,4.7918,4.8001,4.8001,4.8001,4.8001,0.0,4.8001,4.8001,4.8001,4.7935,4.7935,4.7968,4.8481,4.8895,4.9193,5.0336,5.083,5.0975,5.174,5.2191,5.2302,5.2373,5.2373,5.2302,5.2373,5.2373,5.2318,5.239,5.2373,5.2373,5.2373,5.2373,5.2373,5.2373,5.2373,5.2373,5.2373,5.2373,5.2373,5.2373,5.2373,5.2373,5.2373,5.2373,5.2373,5.2373,5.2821,5.3235,5.3384,5.4378,5.5438,5.6332,5.6581,5.668,5.668,5.668,5.668,5.668,5.668,5.668,5.668,5.668,5.668,5.668,5.5652,5.472,5.4078,5.217,5.1214,5.1214,5.1214,5.1214,5.1214,5.1214,5.1214,5.112,5.0902,5.0917,0.0,0.0,0.0,0.0,0.0,0.0,0.0,0.0,0.0,0.0,0.0,0.0,0.0,0.0,0.0,0.0,0.0,0.0,0.0,0.0,0.0,0.0,0.0,0.0,0.0,0.0,0.0,0.0,0.0,4.5824,4.6278,4.7023,4.7603,4.7984,4.8001,4.8001,4.8001,4.8001,4.8001,4.8001,4.8001,4.8001,4.8001,4.8001,4.8001,4.805,4.8796,4.9309,4.9723,5.0817,5.1429,5.1711,5.2191,5.2373,5.2373,5.2373,5.2373,5.2373,5.2373,5.2373,5.2373,5.2373,5.2373,5.2373,5.2373,5.2373,5.2373,5.2373,5.2373,5.2373,5.2373,5.2373,5.2373,5.2373,5.2373,5.2373,5.2373,5.2373,5.2473,5.2821,5.3169,5.3632,5.4345,5.5388,5.6266,5.663,5.668,5.668,5.668,5.668,5.668,5.668,5.668,5.668,5.668,5.668,5.668,5.668,5.5829,5.5133,5.4637,5.3284,5.2351,5.1911,5.1911,5.1911,5.1911,5.1386,5.1214,5.1214,5.1011,5.1105,0.0,0.0,0.0,0.0,0.0,0.0,0.0,0.0,0.0,0.0,0.0,0.0,0.0,0.0,0.0,0.0,0.0,0.0,0.0,0.0,0.0,0.0,0.0,0.0,0.0,0.0,0.0,0.0,0.0,4.6877,4.6922,4.7716,4.8115,4.8001,4.8001,4.8001,4.8001,4.8001,4.8001,4.8001,4.8001,4.8001,4.8017,4.8166,4.8216,4.8233,4.8978,4.9723,5.0452,5.1181,5.1827,5.2373,5.2373,5.2373,5.2373,5.2373,5.2373,5.2373,5.2373,5.2373,5.2373,5.2373,5.2373,5.2373,5.2373,5.2373,5.2373,5.2373,5.2373,5.2373,5.2373,5.2373,5.2373,5.2373,5.2373,5.2373,5.2373,5.2473,5.2738,5.3301,5.3616,5.4229,5.5587,5.6299,5.668,5.668,5.668,5.668,5.668,5.668,5.668,5.668,5.668,5.668,5.668,5.668,5.668,5.668,5.5988,5.5474,5.5296,5.4736,5.4062,5.3108,5.2769,5.2606,5.2606,5.165,5.1214,5.1214,5.1214,5.1214,0.0,0.0,0.0,0.0,0.0,0.0,0.0,0.0,0.0,0.0,0.0,0.0,0.0,0.0,0.0,0.0,0.0,0.0,0.0,0.0,0.0,0.0,0.0,0.0,0.0,0.0,0.0,0.0,4.7055,4.7316,4.6905,4.8094,4.856,4.8001,4.8001,4.8001,4.8001,4.8001,4.8001,4.8001,4.8001,4.8001,4.8034,4.8862,4.9144,4.8995,4.974,5.0469,5.1197,5.1926,5.2291,5.2373,5.2373,5.2373,5.2373,5.2373,5.2373,5.2373,5.2373,5.2373,5.2373,5.2373,5.2373,5.2373,5.2373,5.2373,5.2373,5.2373,5.2373,5.2373,5.2373,5.2373,5.2373,5.2373,5.2373,5.2373,5.2373,5.2854,5.3301,5.34,5.4444,5.5587,5.6398,5.6614,5.668,5.668,5.668,5.668,5.668,5.668,5.668,5.668,5.668,5.668,5.668,5.668,5.668,5.668,5.6603,5.6162,5.5296,5.5988,5.5908,5.4968,5.3356,5.2606,5.2606,5.165,5.1214,5.1214,5.1214,5.1214,0.0,0.0,0.0,0.0,0.0,0.0,0.0,0.0,0.0,0.0,0.0,0.0,0.0,0.0,0.0,0.0,0.0,0.0,0.0,0.0,0.0,0.0,0.0,0.0,0.0,0.0,0.0,0.0,4.806,4.8375,4.7535,4.8375,4.8606,4.8001,4.8001,4.8001,4.8001,4.8001,4.8001,4.8001,4.8001,4.8001,4.8034,4.8845,4.9277,4.936,5.0353,5.0982,5.133,5.2075,5.2373,5.2373,5.2373,5.2373,5.2373,5.2373,5.2373,5.2373,5.2373,5.2373,5.2373,5.2373,5.2373,5.2373,5.2373,5.2373,5.2373,5.2373,5.2373,5.2373,5.2373,5.2373,5.2373,5.2373,5.2672,5.2953,5.2953,5.3202,5.3665,5.4494,5.5504,5.6316,5.663,5.668,5.668,5.668,5.668,5.668,5.668,5.668,5.668,5.668,5.668,5.668,5.668,5.668,5.668,5.668,5.668,5.6508,5.6083,5.6508,5.6508,5.6083,5.4317,5.3371,5.3371,5.1911,5.1214,5.1214,5.1214,5.1214,0.0,0.0,0.0,0.0,0.0,0.0,0.0,0.0,0.0,0.0,0.0,0.0,0.0,0.0,0.0,0.0,0.0,0.0,0.0,0.0,0.0,0.0,0.0,0.0,0.0,0.0,0.0,0.0,4.8959,4.9382,4.8306,4.8776,4.8838,4.8227,4.8049,4.8001,4.8001,4.8001,4.8001,4.8001,4.8001,4.81,4.8299,4.9044,4.9541,4.994,5.0919,5.138,5.1595,5.2158,5.2373,5.2373,5.2373,5.2373,5.2373,5.2373,5.2373,5.2373,5.2373,5.2373,5.2373,5.2373,5.2373,5.2373,5.2373,5.2373,5.2373,5.2373,5.2373,5.2373,5.2373,5.2373,5.2373,5.2373,5.2904,5.3516,5.3897,5.398,5.4361,5.5653,5.6316,5.668,5.668,5.668,5.668,5.668,5.668,5.668,5.668,5.668,5.668,5.668,5.668,5.668,5.668,5.668,5.668,5.668,5.668,5.668,5.668,5.668,5.668,5.668,5.5149,5.4232,5.3992,5.2336,5.1386,5.1214,5.1214,5.1214,0.0,0.0,0.0,0.0,0.0,0.0,0.0,0.0,0.0,0.0,0.0,0.0,0.0,0.0,0.0,0.0,0.0,0.0,0.0,0.0,0.0,0.0,0.0,0.0,0.0,0.0,0.0,0.0,4.9344,4.9996,4.8911,4.9411,4.947,4.8883,4.8275,4.8001,4.8001,4.8001,4.8001,4.8001,4.8001,4.8365,4.9077,4.9823,5.0535,5.1164,5.1247,5.1678,5.2324,5.2357,5.2373,5.2373,5.2373,5.2373,5.2373,5.2373,5.2373,5.2373,5.2373,5.2373,5.2373,5.2373,5.2373,5.2373,5.2373,5.2373,5.2373,5.2373,5.2373,5.2373,5.2373,5.2373,5.2373,5.2373,5.2904,5.3798,5.5206,5.5521,5.5736,5.6481,5.6663,5.668,5.668,5.668,5.668,5.668,5.668,5.668,5.668,5.668,5.668,5.668,5.668,5.668,5.668,5.668,5.668,5.668,5.668,5.668,5.668,5.668,5.668,5.668,5.5732,5.4803,5.3976,5.3035,5.2078,5.1214,5.1214,5.1214,0.0,0.0,0.0,0.0,0.0,0.0,0.0,0.0,0.0,0.0,0.0,0.0,0.0,0.0,0.0,0.0,0.0,0.0,0.0,0.0,0.0,0.0,0.0,0.0,0.0,0.0,0.0,0.0,0.0,5.0857,4.9571,4.9688,4.9512,4.8944,4.8339,4.8001,4.8001,4.8001,4.8001,4.8017,4.8481,4.8845,4.9144,5.0336,5.1032,5.1313,5.1777,5.2142,5.2373,5.2373,5.2373,5.2373,5.2373,5.2373,5.2373,5.2373,5.2373,5.2373,5.2373,5.2373,5.2373,5.2373,5.2373,5.2373,5.2373,5.2373,5.2373,5.2373,5.2373,5.2373,5.2373,5.2373,5.2605,5.3533,5.4311,5.5106,5.61,5.6316,5.6382,5.663,5.668,5.668,5.668,5.668,5.668,5.668,5.668,5.668,5.668,5.668,5.668,5.668,5.668,5.668,5.668,5.668,5.668,5.668,5.668,5.668,5.668,5.668,5.668,5.668,5.6336,5.5491,5.3976,5.3035,5.2078,5.1214,5.1214,5.1214,0.0,0.0,0.0,0.0,0.0,0.0,0.0,0.0,0.0,0.0,0.0,0.0,0.0,0.0,0.0,0.0,0.0,0.0,0.0,0.0,0.0,0.0,0.0,0.0,0.0,0.0,0.0,0.0,0.0,0.0,5.0181,4.9976,4.9453,4.8606,4.8227,4.8001,4.8001,4.8001,4.8001,4.8017,4.8763,4.9243,4.9525,5.0717,5.1413,5.1678,5.2175,5.2373,5.2373,5.2373,5.2373,5.2373,5.2373,5.2373,5.2373,5.2373,5.2373,5.2373,5.2373,5.2373,5.2373,5.2373,5.2373,5.2373,5.2373,5.2373,5.2373,5.2373,5.2373,5.2373,5.2373,5.2556,5.3102,5.4543,5.5256,5.5819,5.6531,5.668,5.668,5.668,5.668,5.668,5.668,5.668,5.668,5.668,5.668,5.668,5.668,5.668,5.668,5.668,5.668,5.668,5.668,5.668,5.668,5.668,5.668,5.668,5.668,5.668,5.668,5.668,5.668,5.5845,5.3976,5.3371,5.2426,5.1214,5.1214,5.1214,0.0,0.0,0.0,0.0,0.0,0.0,0.0,0.0,0.0,0.0,0.0,0.0,0.0,0.0,0.0,0.0,0.0,0.0,0.0,0.0,0.0,0.0,0.0,0.0,0.0,0.0,0.0,0.0,5.1258,5.1722,5.0857,5.0331,4.9376,4.8049,4.8001,4.8001,4.8001,4.8001,4.8017,4.805,4.8796,4.9525,5.027,5.0982,5.1694,5.2373,5.2373,5.2373,5.2373,5.2373,5.2373,5.2373,5.2373,5.2373,5.2373,5.2373,5.2373,5.2373,5.2373,5.2373,5.2373,5.2373,5.2373,5.2373,5.2373,5.2373,5.2373,5.2373,5.2373,5.2373,5.2407,5.2937,5.3848,5.5289,5.5636,5.5852,5.6547,5.668,5.668,5.668,5.668,5.668,5.668,5.668,5.668,5.668,5.668,5.668,5.668,5.668,5.668,5.668,5.668,5.668,5.668,5.668,5.668,5.668,5.668,5.668,5.668,5.668,5.668,5.668,5.668,5.5845,5.4062,5.3976,5.3035,5.1214,5.1214,5.1214,3.5584,0.0,0.0,0.0,0.0,0.0,0.0,0.0,0.0,0.0,0.0,0.0,0.0,0.0,0.0,0.0,0.0,0.0,0.0,0.0,0.0,0.0,0.0,0.0,0.0,0.0,0.0,0.0,5.1634,5.2054,5.164,5.0497,4.9512,4.8668,4.8227,4.8001,4.8001,4.8001,4.8266,4.8812,4.9558,5.0286,5.0999,5.1744,5.2191,5.2373,5.2373,5.2373,5.2373,5.2373,5.2373,5.2373,5.2373,5.2373,5.2373,5.2373,5.2373,5.2373,5.2373,5.2373,5.2373,5.2373,5.2373,5.2373,5.2373,5.2373,5.2373,5.2373,5.2373,5.2489,5.3003,5.4063,5.5123,5.5521,5.6017,5.6448,5.6647,5.668,5.668,5.668,5.668,5.668,5.668,5.668,5.668,5.668,5.668,5.668,5.668,5.668,5.668,5.668,5.668,5.668,5.668,5.668,5.668,5.668,5.668,5.668,5.668,5.668,5.668,5.668,5.668,5.6083,5.4968,5.4317,5.3371,5.217,5.217,5.1819,0.0,0.0,0.0,0.0,0.0,0.0,0.0,4.0672,0.0,0.0,0.0,0.0,0.0,0.0,0.0,0.0,0.0,0.0,0.0,0.0,0.0,0.0,0.0,0.0,0.0,4.9774,5.0453,5.1405,5.204,5.218,5.1687,5.0535,4.9629,4.9006,4.8322,4.8001,4.8001,4.8001,4.8382,4.9127,4.9856,5.0585,5.1313,5.2042,5.2373,5.2373,5.2373,5.2373,5.2373,5.2373,5.2373,5.2373,5.2373,5.2373,5.2373,5.2373,5.2373,5.2373,5.2373,5.2373,5.2373,5.2373,5.2373,5.2373,5.2373,5.2373,5.2373,5.2373,5.2589,5.297,5.3699,5.4742,5.5703,5.6001,5.6382,5.668,5.668,5.668,5.668,5.668,5.668,5.668,5.668,5.668,5.668,5.668,5.668,5.668,5.668,5.668,5.668,5.668,5.668,5.668,5.668,5.668,5.668,5.668,5.668,5.668,5.668,5.668,5.668,5.668,5.668,5.6257,5.5296,5.4803,5.3875,5.2606,5.2606,5.2078,0.0,0.0,0.0,0.0,0.0,0.0,3.8753,3.993,4.1325,0.0,0.0,0.0,0.0,0.0,0.0,0.0,0.0,0.0,0.0,0.0,0.0,0.0,0.0,0.0,4.9927,5.009,5.0715,5.2185,5.2405,5.2162,5.1429,5.0554,4.9786,4.9231,4.8513,4.8131,4.8001,4.8049,4.8464,4.9243,4.9906,5.0634,5.1413,5.2075,5.2373,5.2373,5.2373,5.2373,5.2373,5.2373,5.2373,5.2373,5.2373,5.2373,5.2373,5.2373,5.2373,5.2373,5.2373,5.2373,5.2373,5.2373,5.2373,5.2373,5.2373,5.2373,5.2407,5.2473,5.3003,5.3715,5.4444,5.5189,5.5901,5.6531,5.668,5.668,5.668,5.668,5.668,5.668,5.668,5.668,5.668,5.668,5.668,5.668,5.668,5.668,5.668,5.668,5.668,5.668,5.668,5.668,5.668,5.668,5.668,5.668,5.668,5.668,5.668,5.668,5.668,5.668,5.668,5.6257,5.5474,5.5377,5.4369,5.2606,5.268,5.217,0.0,0.0,0.0,0.0,0.0,0.0,3.4661,3.6381,3.8034,0.0,0.0,0.0,0.0,0.0,0.0,0.0,0.0,0.0,0.0,0.0,0.0,0.0,0.0,0.0,4.9927,5.009,5.076,5.2325,5.2405,5.2246,5.2114,5.0947,5.0163,5.005,4.9342,4.8719,4.8179,4.856,4.912,5.0005,5.0154,5.0899,5.2175,5.2307,5.2373,5.2373,5.2373,5.2373,5.2373,5.2373,5.2373,5.2373,5.2373,5.2373,5.2373,5.2373,5.2373,5.2373,5.2373,5.2373,5.2373,5.2373,5.2373,5.2373,5.2373,5.2373,5.2489,5.3053,5.3748,5.4477,5.5206,5.5935,5.6514,5.6663,5.668,5.668,5.668,5.668,5.668,5.668,5.668,5.668,5.668,5.668,5.668,5.668,5.668,5.668,5.668,5.668,5.668,5.668,5.668,5.668,5.668,5.668,5.668,5.668,5.668,5.668,5.668,5.668,5.668,5.668,5.668,5.6603,5.643,5.5652,5.4369,5.2606,5.3371,5.2858,0.0,0.0,0.0,3.3393,0.0,0.0,0.0,3.6173,3.7384,3.8549,0.0,0.0,0.0,0.0,0.0,0.0,0.0,0.0,0.0,0.0,0.0,0.0,0.0,0.0,4.9963,5.0452,5.1194,5.2408,5.2452,5.2405,5.2405,5.1363,5.0805,5.0805,5.0072,4.9351,4.8668,4.9272,4.9796,5.022,5.0568,5.1313,5.2373,5.2373,5.2373,5.2373,5.2373,5.2373,5.2373,5.2373,5.2373,5.2373,5.2373,5.2373,5.2373,5.2373,5.2373,5.2373,5.2373,5.2373,5.2373,5.2373,5.2373,5.2373,5.2373,5.2373,5.2523,5.3218,5.3947,5.4692,5.5438,5.615,5.668,5.668,5.668,5.668,5.668,5.668,5.668,5.668,5.668,5.668,5.668,5.668,5.668,5.668,5.668,5.668,5.668,5.668,5.668,5.668,5.668,5.668,5.668,5.668,5.668,5.668,5.668,5.668,5.668,5.668,5.668,5.668,5.668,5.668,5.668,5.6257,5.5312,5.3945,5.3976,5.3196,0.0,0.0,0.0,0.0,0.0,3.3918,0.0,0.0,0.0,3.8753,0.0,0.0,0.0,0.0,0.0,0.0,0.0,0.0,0.0,0.0,0.0,0.0,0.0,0.0,0.0,5.0361,5.1303,5.2426,5.2063,5.2009,5.248,5.1782,5.1378,5.1378,5.077,5.0055,4.9231,5.0042,5.0342,5.0272,5.1002,5.1732,5.2373,5.2445,5.2445,5.2373,5.2373,5.2373,5.2373,5.2373,5.2373,5.2373,5.2373,5.2373,5.2373,5.2373,5.2373,5.2373,5.2373,5.2373,5.2373,5.2373,5.2373,5.2373,5.2373,5.2473,5.2721,5.3434,5.4162,5.4908,5.5636,5.6249,5.668,5.668,5.668,5.668,5.668,5.668,5.668,5.668,5.668,5.668,5.668,5.668,5.668,5.668,5.668,5.668,5.668,5.668,5.668,5.668,5.668,5.668,5.668,5.668,5.668,5.668,5.668,5.668,5.668,5.668,5.668,5.668,5.668,5.668,5.668,5.668,5.6241,5.5296,5.4401,5.3459,0.0,0.0,0.0,0.0,3.3393,0.0,0.0,0.0,3.3882,3.4154,0.0,0.0,0.0,0.0,0.0,0.0,0.0,0.0,0.0,0.0,0.0,0.0,0.0,0.0,0.0,4.8713,5.0108,5.2317,5.0524,5.0253,5.2389,5.1884,5.1551,5.1551,5.1381,5.0715,4.9529,5.0697,5.0994,5.0358,5.1295,5.1994,5.2373,5.2499,5.2499,5.2373,5.2373,5.2373,5.2373,5.2373,5.2373,5.2373,5.2373,5.2373,5.2373,5.2373,5.2373,5.2373,5.2373,5.2373,5.2373,5.2373,5.2373,5.2373,5.2373,5.2821,5.345,5.4195,5.4924,5.5653,5.6382,5.663,5.668,5.668,5.668,5.668,5.668,5.668,5.668,5.668,5.668,5.668,5.668,5.668,5.668,5.668,5.668,5.668,5.668,5.668,5.668,5.668,5.668,5.668,5.668,5.668,5.668,5.668,5.668,5.668,5.668,5.668,5.668,5.668,5.668,5.668,5.668,5.668,5.6241,5.5296,5.4401,5.3459,0.0,0.0,0.0,0.0,0.0,0.0,3.3719,0.0,3.3393,0.0,0.0,0.0,0.0,0.0,0.0,0.0,0.0,0.0,0.0,0.0,0.0,0.0,0.0,0.0,0.0,0.0,0.0,0.0,5.1556,5.143,5.2444,5.2275,5.2114,5.2114,5.2048,5.1583,5.0608,5.1629,5.1787,5.1102,5.1984,5.2533,5.2711,5.264,5.257,5.2499,5.2445,5.2373,5.2373,5.2373,5.2373,5.2373,5.2373,5.2373,5.2373,5.2373,5.2373,5.2373,5.2373,5.2373,5.2373,5.2373,5.2373,5.2373,5.2373,5.287,5.3566,5.4311,5.5057,5.5786,5.6498,5.668,5.668,5.668,5.668,5.668,5.668,5.668,5.668,5.668,5.668,5.668,5.668,5.668,5.668,5.668,5.668,5.668,5.668,5.668,5.668,5.668,5.668,5.668,5.668,5.668,5.668,5.668,5.668,5.668,5.668,5.668,5.668,5.668,5.668,5.668,5.668,5.668,5.6508,5.6083,5.4653,5.3821,3.5222,0.0,0.0,0.0,0.0,0.0,0.0,0.0,0.0,0.0,0.0,0.0,0.0,0.0,0.0,0.0,0.0,0.0,0.0,0.0,0.0,0.0,0.0,0.0,0.0,0.0,0.0,5.1466,5.152,5.1792,5.2462,5.2498,5.2498,5.2498,5.2498,5.2144,5.1396,5.2298,5.2396,5.1657,5.2639,5.2989,5.2903,5.2764,5.2624,5.2553,5.2445,5.2373,5.2373,5.2373,5.2373,5.2373,5.2373,5.2373,5.2373,5.2373,5.2373,5.2373,5.2373,5.2373,5.2373,5.2373,5.2373,5.2407,5.2605,5.3169,5.3881,5.461,5.5355,5.6034,5.6547,5.668,5.668,5.668,5.668,5.668,5.668,5.668,5.668,5.668,5.668,5.668,5.668,5.668,5.668,5.668,5.668,5.668,5.668,5.668,5.668,5.668,5.668,5.668,5.668,5.668,5.668,5.668,5.668,5.668,5.668,5.668,5.668,5.668,5.668,5.668,5.668,5.668,5.668,5.668,5.5083,5.4232,0.0,0.0,0.0,3.3991,0.0,0.0,0.0,0.0,3.3393,0.0,0.0,0.0,0.0,0.0,0.0,0.0,0.0,0.0,0.0,0.0,0.0,0.0,0.0,0.0,0.0,0.0,0.0,4.8858,4.9039,5.0053,5.2371,5.2498,5.2498,5.2498,5.2498,5.2209,5.1601,5.2498,5.259,5.1826,5.2938,5.328,5.2903,5.2903,5.2764,5.2553,5.2445,5.2373,5.2373,5.2373,5.2373,5.2373,5.2373,5.2373,5.2373,5.2373,5.2373,5.2373,5.2373,5.2373,5.2373,5.2373,5.2373,5.2506,5.3185,5.3897,5.4643,5.5388,5.61,5.6663,5.668,5.668,5.668,5.668,5.668,5.668,5.668,5.668,5.668,5.668,5.668,5.668,5.668,5.668,5.668,5.668,5.668,5.668,5.668,5.668,5.668,5.668,5.668,5.668,5.668,5.668,5.668,5.668,5.668,5.668,5.668,5.668,5.668,5.668,5.668,5.668,5.668,5.668,5.668,5.668,5.5732,5.4803,0.0,0.0,4.0601,3.6645,0.0,0.0,0.0,0.0,0.0,0.0,0.0,0.0,0.0,0.0,0.0,0.0,0.0,0.0,0.0,0.0,0.0,0.0,0.0,0.0,0.0,0.0,0.0,4.8858,5.0397,5.1647,5.2462,5.2498,5.2498,5.2498,5.2498,5.264,5.3003,5.3369,5.3538,5.3415,5.3863,5.4042,5.3895,5.3349,5.323,5.3399,5.2817,5.2516,5.2373,5.2373,5.2373,5.2373,5.2373,5.2373,5.2373,5.2373,5.2373,5.2373,5.2373,5.2373,5.2373,5.2373,5.2373,5.2523,5.3202,5.393,5.4676,5.5421,5.6133,5.668,5.668,5.668,5.668,5.668,5.668,5.668,5.668,5.668,5.668,5.668,5.668,5.668,5.668,5.668,5.668,5.668,5.668,5.668,5.668,5.668,5.668,5.668,5.668,5.668,5.668,5.668,5.668,5.668,5.668,5.668,5.668,5.668,5.668,5.668,5.668,5.668,5.668,5.668,5.668,5.668,5.6336,5.541,4.1707,4.2627,0.0,3.9049,3.9282,0.0,3.5566,0.0,0.0,0.0,0.0,0.0,0.0,0.0,0.0,0.0,0.0,0.0,0.0,0.0,0.0,0.0,0.0,0.0,0.0,0.0,4.7065,4.8786,5.0343,5.1593,0.0,0.0,5.2498,5.2498,5.2498,5.2878,5.3693,5.3838,5.4118,5.4511,5.4702,5.4747,5.4668,5.3895,5.3715,5.3895,5.3008,5.257,5.2445,5.2445,5.2373,5.2373,5.2373,5.2373,5.2373,5.2373,5.2373,5.2373,5.2373,5.2373,5.2373,5.2373,5.2373,5.2556,5.3516,5.4146,5.4676,5.5421,5.6133,5.663,5.6382,5.6498,5.668,5.668,5.668,5.668,5.668,5.668,5.668,5.668,5.668,5.668,5.668,5.668,5.668,5.668,5.668,5.668,5.668,5.668,5.668,5.668,5.668,5.668,5.668,5.668,5.668,5.668,5.668,5.668,5.668,5.668,5.6564,5.6316,5.6564,5.6564,5.6316,5.6564,5.668,5.668,5.668,5.5925]},{"header":{"parameterUnit":"m.s-1","parameterCategory":1,"la1":30.6,"la2":29.2853,"lo1":-89.7004,"lo2":-87.6739,"dx":0.0162,"dy":0.0183,"nx":112,"ny":82,"refTime":"2023-02-08T18:00:00:Z","depth":0,"parameterNumber":3,"parameterNumberName":"V-component_of_WINDS"},"data":[0.0,0.0,0.0,0.0,0.0,0.0,0.0,0.0,0.0,0.0,0.0,0.0,0.0,0.0,0.0,0.0,0.0,0.0,0.0,0.0,0.0,0.0,0.0,0.0,0.0,0.0,0.0,0.0,0.0,0.0,0.0,0.0,0.0,0.0,0.0,0.0,0.0,0.0,0.0,0.0,0.0,0.0,0.0,0.0,0.0,0.0,0.0,0.0,0.0,0.0,0.0,0.0,0.0,0.0,0.0,0.0,0.0,0.0,0.0,0.0,0.0,0.0,0.0,0.0,0.0,0.0,0.0,0.0,0.0,0.0,0.0,0.0,0.0,0.0,0.0,0.0,0.0,0.0,0.0,0.0,0.0,0.0,0.0,0.0,0.0,0.0,0.0,0.0,0.0,0.0,0.0,-3.0687,-3.2434,-3.3398,-3.324,-3.3569,-3.2752,-3.033,0.0,0.0,0.0,0.0,0.0,0.0,0.0,0.0,0.0,0.0,0.0,0.0,0.0,0.0,0.0,0.0,0.0,0.0,0.0,0.0,0.0,0.0,0.0,0.0,0.0,0.0,0.0,0.0,0.0,0.0,0.0,0.0,0.0,0.0,0.0,0.0,0.0,0.0,0.0,0.0,0.0,0.0,0.0,0.0,0.0,0.0,0.0,0.0,0.0,0.0,0.0,0.0,0.0,0.0,0.0,0.0,0.0,0.0,0.0,0.0,0.0,0.0,0.0,0.0,0.0,0.0,0.0,0.0,0.0,0.0,0.0,0.0,0.0,0.0,0.0,0.0,0.0,0.0,0.0,0.0,0.0,0.0,0.0,0.0,0.0,0.0,0.0,0.0,0.0,0.0,0.0,0.0,0.0,0.0,0.0,0.0,0.0,0.0,0.0,0.0,0.0,0.0,0.0,0.0,-3.0181,-3.2147,-3.3352,-3.3992,-3.3907,-3.3992,-3.3105,-3.0966,0.0,0.0,0.0,0.0,0.0,0.0,0.0,0.0,0.0,0.0,0.0,0.0,0.0,0.0,0.0,0.0,0.0,0.0,0.0,0.0,0.0,0.0,0.0,0.0,0.0,0.0,0.0,0.0,0.0,0.0,0.0,0.0,0.0,0.0,0.0,0.0,0.0,0.0,0.0,0.0,0.0,0.0,0.0,0.0,0.0,0.0,0.0,0.0,0.0,0.0,0.0,0.0,0.0,0.0,0.0,0.0,0.0,0.0,0.0,0.0,0.0,0.0,0.0,0.0,0.0,0.0,0.0,0.0,0.0,0.0,0.0,0.0,0.0,0.0,0.0,0.0,0.0,0.0,0.0,0.0,0.0,0.0,0.0,0.0,0.0,0.0,0.0,0.0,0.0,0.0,0.0,0.0,0.0,0.0,0.0,0.0,0.0,0.0,0.0,0.0,0.0,0.0,0.0,-3.0022,-3.0953,-3.3216,-3.381,-3.4076,-3.3894,-3.3992,-3.3105,-3.0814,-3.0911,0.0,0.0,0.0,0.0,0.0,0.0,0.0,0.0,0.0,0.0,0.0,0.0,0.0,0.0,0.0,0.0,0.0,0.0,0.0,0.0,0.0,0.0,0.0,0.0,0.0,0.0,0.0,0.0,0.0,0.0,0.0,0.0,0.0,0.0,0.0,0.0,0.0,0.0,0.0,0.0,0.0,0.0,0.0,0.0,0.0,0.0,0.0,0.0,0.0,0.0,0.0,0.0,0.0,0.0,0.0,0.0,0.0,0.0,0.0,0.0,0.0,0.0,0.0,0.0,0.0,0.0,0.0,0.0,0.0,0.0,0.0,0.0,0.0,0.0,0.0,0.0,0.0,0.0,0.0,0.0,0.0,0.0,0.0,0.0,0.0,0.0,0.0,0.0,0.0,0.0,0.0,0.0,0.0,0.0,0.0,0.0,0.0,0.0,0.0,0.0,0.0,0.0,-3.1368,-3.2201,-3.3894,-3.4076,-3.3992,-3.381,-3.3992,-3.3105,-3.0662,-3.0823,0.0,0.0,0.0,0.0,0.0,0.0,0.0,0.0,0.0,0.0,0.0,0.0,0.0,0.0,0.0,0.0,0.0,0.0,0.0,0.0,0.0,0.0,0.0,0.0,0.0,0.0,0.0,0.0,0.0,0.0,0.0,0.0,0.0,0.0,0.0,0.0,0.0,0.0,0.0,0.0,0.0,0.0,0.0,0.0,0.0,0.0,0.0,0.0,0.0,0.0,0.0,0.0,0.0,0.0,0.0,0.0,0.0,0.0,0.0,0.0,0.0,0.0,0.0,0.0,0.0,0.0,0.0,0.0,0.0,0.0,0.0,0.0,0.0,0.0,0.0,0.0,0.0,0.0,0.0,0.0,0.0,0.0,0.0,0.0,0.0,0.0,0.0,0.0,0.0,0.0,0.0,0.0,0.0,0.0,0.0,0.0,0.0,0.0,0.0,0.0,0.0,0.0,-3.2842,-3.4145,-3.4063,-3.4076,-3.4076,-3.4076,-3.4076,-3.3187,-3.1055,-3.0986,0.0,0.0,0.0,0.0,0.0,0.0,0.0,0.0,0.0,0.0,0.0,0.0,0.0,0.0,0.0,0.0,0.0,0.0,0.0,0.0,0.0,0.0,0.0,0.0,0.0,0.0,0.0,0.0,0.0,0.0,0.0,0.0,0.0,0.0,0.0,0.0,0.0,0.0,0.0,0.0,0.0,0.0,0.0,0.0,0.0,0.0,0.0,0.0,0.0,0.0,0.0,0.0,0.0,0.0,0.0,0.0,0.0,0.0,0.0,0.0,0.0,0.0,0.0,0.0,0.0,0.0,0.0,0.0,0.0,0.0,0.0,0.0,0.0,0.0,0.0,0.0,0.0,0.0,0.0,0.0,0.0,0.0,0.0,0.0,0.0,0.0,0.0,0.0,0.0,0.0,0.0,0.0,0.0,0.0,0.0,0.0,0.0,0.0,0.0,0.0,0.0,0.0,-3.2293,-3.345,0.0,-3.4314,-3.4314,-3.4314,-3.4314,-3.3349,-3.113,0.0,0.0,0.0,0.0,0.0,0.0,0.0,0.0,0.0,0.0,0.0,0.0,0.0,0.0,0.0,0.0,0.0,0.0,0.0,0.0,0.0,0.0,0.0,0.0,0.0,0.0,0.0,0.0,0.0,0.0,0.0,0.0,0.0,0.0,0.0,0.0,0.0,0.0,0.0,0.0,0.0,0.0,0.0,0.0,0.0,0.0,0.0,0.0,0.0,0.0,0.0,0.0,0.0,0.0,0.0,0.0,0.0,0.0,0.0,0.0,0.0,0.0,0.0,0.0,0.0,0.0,0.0,0.0,0.0,0.0,0.0,0.0,0.0,0.0,0.0,0.0,0.0,0.0,0.0,0.0,0.0,0.0,0.0,0.0,0.0,0.0,0.0,0.0,0.0,0.0,0.0,0.0,0.0,0.0,0.0,0.0,0.0,0.0,0.0,0.0,0.0,0.0,-3.0556,-3.2058,-3.3385,0.0,-3.4397,-3.4397,-3.4397,-3.4397,-3.3417,-3.113,0.0,0.0,0.0,0.0,0.0,0.0,0.0,0.0,0.0,0.0,0.0,0.0,0.0,0.0,0.0,0.0,0.0,0.0,0.0,0.0,0.0,0.0,0.0,0.0,0.0,0.0,0.0,0.0,0.0,0.0,0.0,0.0,0.0,0.0,0.0,0.0,0.0,0.0,0.0,0.0,0.0,0.0,0.0,0.0,0.0,0.0,0.0,0.0,0.0,0.0,0.0,0.0,0.0,0.0,0.0,0.0,0.0,0.0,0.0,0.0,0.0,0.0,0.0,0.0,0.0,0.0,0.0,0.0,0.0,0.0,0.0,0.0,0.0,0.0,0.0,0.0,0.0,0.0,0.0,0.0,0.0,0.0,0.0,0.0,0.0,0.0,0.0,0.0,0.0,0.0,0.0,0.0,0.0,0.0,0.0,0.0,0.0,0.0,0.0,0.0,0.0,0.0,-2.9922,-3.2465,-3.4397,-3.4397,-3.4397,-3.4397,-3.4397,-3.4397,-3.3417,0.0,0.0,0.0,0.0,0.0,0.0,0.0,0.0,0.0,0.0,0.0,0.0,0.0,0.0,0.0,0.0,0.0,0.0,0.0,0.0,0.0,0.0,0.0,0.0,0.0,0.0,0.0,0.0,0.0,0.0,0.0,0.0,0.0,0.0,0.0,0.0,0.0,0.0,0.0,0.0,0.0,0.0,0.0,0.0,0.0,0.0,0.0,0.0,0.0,0.0,0.0,0.0,0.0,0.0,0.0,0.0,0.0,0.0,0.0,0.0,0.0,0.0,0.0,0.0,0.0,0.0,0.0,0.0,0.0,0.0,0.0,0.0,0.0,0.0,0.0,0.0,0.0,0.0,0.0,0.0,0.0,0.0,0.0,0.0,0.0,0.0,0.0,0.0,0.0,0.0,0.0,0.0,0.0,0.0,0.0,0.0,0.0,0.0,0.0,0.0,0.0,0.0,0.0,-2.996,-3.2559,-3.4397,-3.4397,-3.4397,-3.4397,-3.4397,-3.4397,-3.3417,-3.113,0.0,0.0,0.0,0.0,0.0,0.0,0.0,0.0,0.0,0.0,0.0,0.0,0.0,0.0,0.0,0.0,0.0,0.0,0.0,0.0,0.0,0.0,0.0,0.0,0.0,0.0,0.0,0.0,0.0,0.0,0.0,0.0,0.0,0.0,0.0,0.0,0.0,0.0,0.0,0.0,0.0,0.0,0.0,0.0,0.0,0.0,0.0,0.0,0.0,0.0,0.0,0.0,0.0,0.0,0.0,0.0,0.0,0.0,0.0,0.0,0.0,0.0,0.0,0.0,0.0,0.0,0.0,0.0,0.0,0.0,0.0,0.0,0.0,0.0,0.0,0.0,0.0,0.0,0.0,0.0,0.0,0.0,0.0,0.0,0.0,0.0,0.0,0.0,0.0,0.0,0.0,0.0,0.0,0.0,0.0,0.0,0.0,0.0,0.0,0.0,0.0,0.0,-2.9561,-3.2316,-3.4397,-3.4397,-3.4397,-3.4397,-3.4397,-3.4397,-3.3613,-3.1784,0.0,0.0,0.0,0.0,0.0,0.0,0.0,0.0,0.0,0.0,0.0,0.0,0.0,0.0,0.0,0.0,0.0,0.0,0.0,0.0,0.0,0.0,0.0,0.0,0.0,0.0,0.0,0.0,0.0,0.0,0.0,0.0,0.0,0.0,0.0,0.0,0.0,0.0,0.0,0.0,0.0,0.0,0.0,0.0,0.0,0.0,0.0,0.0,0.0,0.0,0.0,0.0,0.0,0.0,0.0,0.0,0.0,0.0,0.0,0.0,0.0,0.0,0.0,0.0,0.0,0.0,0.0,0.0,0.0,0.0,0.0,0.0,0.0,0.0,0.0,0.0,0.0,0.0,0.0,0.0,0.0,0.0,0.0,0.0,0.0,0.0,0.0,0.0,0.0,0.0,0.0,0.0,0.0,0.0,0.0,0.0,0.0,0.0,0.0,0.0,0.0,0.0,-2.8991,-3.2047,-3.4397,-3.4397,-3.4397,-3.4397,-3.4397,-3.445,-3.3992,-3.2842,0.0,0.0,0.0,0.0,0.0,0.0,0.0,0.0,0.0,0.0,0.0,0.0,0.0,0.0,0.0,0.0,0.0,0.0,0.0,0.0,0.0,0.0,0.0,0.0,0.0,0.0,0.0,0.0,0.0,0.0,0.0,0.0,0.0,0.0,0.0,0.0,0.0,0.0,0.0,0.0,0.0,0.0,0.0,0.0,0.0,0.0,0.0,0.0,0.0,0.0,0.0,0.0,0.0,0.0,0.0,0.0,0.0,0.0,0.0,0.0,-2.7866,0.0,0.0,0.0,0.0,0.0,0.0,0.0,0.0,0.0,0.0,0.0,0.0,0.0,0.0,0.0,0.0,0.0,0.0,0.0,0.0,0.0,0.0,0.0,0.0,0.0,0.0,0.0,0.0,0.0,0.0,0.0,0.0,0.0,0.0,0.0,0.0,0.0,0.0,0.0,0.0,0.0,-2.9614,-3.2384,-3.4397,-3.4397,-3.4397,-3.4397,-3.4397,-3.4829,-3.462,-3.347,-3.3679,0.0,0.0,0.0,0.0,0.0,0.0,0.0,0.0,0.0,0.0,0.0,0.0,0.0,0.0,0.0,0.0,0.0,0.0,0.0,0.0,0.0,0.0,0.0,0.0,0.0,0.0,0.0,0.0,0.0,0.0,0.0,0.0,0.0,0.0,0.0,0.0,0.0,0.0,0.0,0.0,0.0,0.0,0.0,0.0,0.0,0.0,0.0,0.0,0.0,0.0,0.0,0.0,0.0,0.0,0.0,0.0,0.0,0.0,0.0,0.0,-2.8733,0.0,0.0,0.0,0.0,0.0,0.0,0.0,0.0,0.0,0.0,0.0,0.0,0.0,0.0,0.0,0.0,0.0,0.0,0.0,0.0,0.0,0.0,0.0,0.0,0.0,0.0,0.0,0.0,0.0,0.0,0.0,0.0,0.0,0.0,0.0,0.0,0.0,0.0,0.0,0.0,-2.9492,-3.2298,-3.4397,-3.4397,-3.4397,-3.4515,-3.4803,-3.5116,-3.5155,-3.4816,-3.4816,0.0,0.0,0.0,0.0,0.0,0.0,0.0,0.0,0.0,0.0,0.0,0.0,0.0,0.0,0.0,0.0,0.0,0.0,0.0,0.0,0.0,0.0,0.0,0.0,0.0,0.0,0.0,0.0,0.0,0.0,0.0,0.0,0.0,0.0,0.0,0.0,0.0,0.0,0.0,0.0,0.0,0.0,0.0,0.0,0.0,0.0,0.0,0.0,0.0,0.0,0.0,0.0,0.0,-3.1022,-3.1126,-3.1446,-3.1446,-3.22,-3.3475,-3.1369,-3.1225,-3.2319,-2.9719,0.0,0.0,0.0,0.0,0.0,0.0,0.0,0.0,0.0,0.0,0.0,0.0,0.0,0.0,0.0,0.0,0.0,0.0,0.0,0.0,0.0,0.0,0.0,0.0,-3.2306,-3.2566,0.0,0.0,0.0,0.0,0.0,0.0,0.0,0.0,0.0,0.0,0.0,0.0,-2.9719,-3.2471,-3.4397,-3.4397,-3.4489,-3.4763,-3.526,-3.5482,-3.5783,-3.6227,-3.594,-3.5652,0.0,0.0,0.0,0.0,0.0,0.0,0.0,0.0,0.0,0.0,0.0,0.0,0.0,0.0,0.0,0.0,0.0,0.0,0.0,0.0,0.0,0.0,0.0,0.0,0.0,0.0,0.0,0.0,0.0,0.0,0.0,0.0,-2.518,-2.4745,0.0,0.0,0.0,0.0,0.0,0.0,0.0,0.0,0.0,0.0,0.0,0.0,0.0,-3.1122,-3.1302,-3.2209,-3.2919,-3.3486,-3.4497,-3.4995,-3.4995,-3.4995,-3.5156,-3.5305,-3.4982,0.0,-3.3675,-3.3198,0.0,0.0,0.0,0.0,0.0,0.0,0.0,0.0,0.0,0.0,0.0,0.0,0.0,0.0,0.0,0.0,0.0,0.0,0.0,0.0,0.0,0.0,-3.3858,-3.3953,-3.4071,-3.4136,0.0,-3.2306,-3.0784,-2.9897,-3.02,0.0,0.0,0.0,0.0,0.0,0.0,0.0,-3.1928,-3.3467,-3.4397,-3.4397,-3.4868,-3.5208,-3.5286,-3.6201,-3.6815,-3.6881,-3.7312,-3.709,-3.6044,-3.5926,0.0,0.0,0.0,0.0,0.0,0.0,0.0,0.0,0.0,0.0,0.0,0.0,0.0,0.0,0.0,0.0,0.0,0.0,0.0,0.0,0.0,0.0,0.0,0.0,0.0,0.0,0.0,0.0,0.0,-2.4066,-2.4659,-2.4734,-2.4733,-2.4847,0.0,0.0,0.0,0.0,0.0,0.0,0.0,0.0,0.0,-3.2729,-3.2982,-3.3457,-3.4163,-3.4899,-3.5393,-3.5654,-3.618,-3.6429,-3.6429,-3.6429,-3.6429,-3.6429,-3.6218,-3.5757,-3.5223,-3.4322,-3.3349,-3.2331,0.0,0.0,0.0,0.0,-3.1012,-3.1415,-3.2128,-3.2452,0.0,-3.1766,0.0,0.0,0.0,0.0,0.0,0.0,0.0,0.0,0.0,0.0,-3.36,-3.4432,-3.4494,-3.4397,-3.4397,-3.3613,-3.2632,0.0,-3.0599,-2.9346,-2.7612,0.0,0.0,0.0,0.0,-3.1384,-3.2072,-3.3783,-3.4907,-3.4907,-3.5417,-3.5887,-3.6227,-3.6711,-3.7142,-3.7482,-3.7756,-3.7665,-3.7142,-3.6462,-3.5639,0.0,0.0,0.0,0.0,0.0,0.0,0.0,0.0,0.0,0.0,0.0,0.0,0.0,0.0,0.0,0.0,0.0,0.0,0.0,0.0,0.0,0.0,0.0,0.0,0.0,0.0,0.0,0.0,-2.4459,-2.5298,-2.5245,-2.6071,-2.6584,0.0,0.0,0.0,0.0,0.0,0.0,-3.2763,-3.2515,-3.3043,-3.4662,-3.501,-3.5683,-3.6536,-3.6836,-3.6978,-3.6978,-3.6978,-3.6978,-3.6978,-3.6978,-3.6978,-3.6978,-3.6693,-3.6549,-3.648,-3.5036,-3.4322,-3.4004,-3.2969,-3.2513,-3.2355,-3.2595,-3.263,-3.2806,-3.3987,-3.4316,-3.4275,-3.4054,0.0,-3.3376,-3.2732,0.0,0.0,0.0,0.0,-3.2213,-3.3552,-3.3622,-3.3594,-3.4627,-3.4743,-3.4577,-3.4481,-3.414,-3.3708,0.0,-3.1668,-2.9999,-2.8664,0.0,0.0,0.0,0.0,-3.2529,-3.2712,-3.4228,-3.5351,-3.5482,-3.6005,-3.6515,-3.6972,-3.7142,-3.7429,-3.7874,-3.79,-3.79,-3.79,-3.7037,-3.6423,-3.6109,0.0,0.0,0.0,0.0,0.0,0.0,0.0,0.0,0.0,0.0,0.0,0.0,0.0,0.0,0.0,0.0,0.0,0.0,0.0,0.0,0.0,0.0,0.0,0.0,0.0,0.0,0.0,0.0,0.0,-2.781,-2.9589,0.0,0.0,0.0,0.0,-3.1214,-3.1649,-3.2704,-3.4389,-3.4831,-3.5541,-3.6774,-3.6894,-3.6922,-3.6978,-3.6978,-3.6978,-3.6978,-3.6978,-3.6978,-3.6978,-3.6978,-3.6978,-3.6978,-3.6978,-3.6993,-3.69,-3.5963,-3.52,-3.454,-3.4031,-3.3397,-3.2883,-3.3595,-3.3774,-3.395,-3.5221,-3.5628,-3.5452,-3.4353,-3.3213,-3.2467,-3.3387,-3.2928,0.0,0.0,-3.3557,-3.3748,-3.5009,-3.5156,-3.5006,-3.5072,-3.5072,-3.499,-3.4839,-3.3463,-3.2698,0.0,-3.4241,-3.3558,-3.1876,0.0,-3.168,-3.1563,-3.1694,-3.2672,-3.4842,-3.5221,-3.5495,-3.6005,-3.6606,-3.6972,-3.6998,-3.7534,-3.7874,-3.79,-3.79,-3.79,-3.79,-3.7848,-3.7273,-3.6123,-3.6044,0.0,0.0,0.0,0.0,0.0,0.0,0.0,0.0,0.0,0.0,0.0,0.0,0.0,0.0,0.0,0.0,0.0,0.0,0.0,0.0,0.0,0.0,0.0,0.0,0.0,0.0,0.0,0.0,-2.9217,-3.027,0.0,-3.1562,-3.2447,-3.3206,-3.3804,-3.4671,-3.5475,-3.6074,-3.6256,-3.6543,-3.6978,-3.7226,-3.738,-3.738,-3.7672,-3.7749,-3.7749,-3.7749,-3.7749,-3.7749,-3.7749,-3.7749,-3.7749,-3.7534,-3.738,-3.7303,-3.6744,-3.6415,-3.6102,-3.565,-3.5324,-3.5148,-3.5094,-3.5086,-3.514,-3.5574,-3.571,-3.5642,-3.5235,-3.4801,-3.4529,-3.4884,-3.4708,-3.4543,-3.4884,-3.4847,-3.4875,-3.5453,-3.5318,-3.5168,-3.5236,-3.5154,-3.5086,-3.5003,-3.4512,-3.4179,-3.4555,-3.3603,-3.2555,-3.1876,-3.2751,-3.3104,-3.2006,-3.3117,-3.4358,-3.5195,-3.594,-3.6475,-3.6658,-3.722,-3.7586,-3.7586,-3.7782,-3.79,-3.79,-3.79,-3.79,-3.79,-3.79,-3.7704,-3.7273,-3.726,-3.6149,0.0,0.0,0.0,0.0,0.0,0.0,0.0,0.0,0.0,0.0,0.0,0.0,0.0,0.0,0.0,0.0,0.0,0.0,0.0,0.0,0.0,0.0,0.0,0.0,0.0,0.0,-3.0229,-2.9764,-3.1022,-3.2285,-3.3083,-3.4052,-3.4994,-3.577,-3.6682,-3.7226,-3.7226,-3.7289,-3.7366,-3.7366,-3.7672,-3.7839,-3.7839,-3.8066,-3.8202,-3.8202,-3.8202,-3.8202,-3.8202,-3.8202,-3.8202,-3.8202,-3.7915,-3.7839,-3.7763,-3.7519,-3.7366,-3.7366,-3.685,-3.6707,-3.6693,-3.6138,-3.5978,-3.5884,-3.571,-3.571,-3.571,-3.571,-3.571,-3.571,-3.571,-3.571,-3.571,-3.571,-3.5642,-3.5562,-3.5629,-3.548,-3.5318,-3.548,-3.5399,-3.5318,-3.5236,-3.5236,-3.5086,-3.4839,-3.3738,-3.2791,-3.2698,-3.3809,-3.411,-3.2385,-3.4084,-3.543,-3.5051,-3.6175,-3.709,-3.7286,-3.7665,-3.79,-3.79,-3.7364,-3.7273,-3.7861,-3.7351,-3.7299,-3.7874,-3.7521,-3.739,-3.7599,-3.7795,-3.6867,-3.4737,0.0,0.0,0.0,0.0,0.0,0.0,0.0,0.0,0.0,0.0,0.0,0.0,0.0,0.0,0.0,0.0,0.0,0.0,0.0,0.0,0.0,0.0,0.0,-2.9683,-2.9939,-3.0068,-2.9708,-3.2054,-3.3775,-3.3914,-3.5439,-3.6536,-3.6993,-3.738,-3.7625,-3.7625,-3.7991,-3.8202,-3.8202,-3.8202,-3.8202,-3.8202,-3.8202,-3.8202,-3.8202,-3.8202,-3.8202,-3.8202,-3.8202,-3.8202,-3.8202,-3.8202,-3.8202,-3.8202,-3.8202,-3.8202,-3.8127,-3.7289,-3.7226,-3.7471,-3.6707,-3.6405,-3.6312,-3.5884,-3.571,-3.571,-3.571,-3.571,-3.571,-3.571,-3.571,-3.571,-3.571,-3.571,-3.571,-3.571,-3.571,-3.571,-3.571,-3.571,-3.5642,-3.548,-3.5413,-3.5344,-3.4948,-3.4891,-3.4795,-3.452,-3.4933,-3.475,-3.3051,-3.4698,0.0,-3.462,-3.5966,-3.7233,-3.7769,-3.7821,-3.7821,-3.7821,-3.6266,-3.6044,-3.7795,-3.6319,-3.6136,-3.7835,-3.6776,-3.6449,-3.705,-3.7599,-3.7599,-3.7037,0.0,0.0,0.0,0.0,0.0,0.0,0.0,0.0,0.0,0.0,0.0,0.0,0.0,0.0,0.0,0.0,0.0,0.0,0.0,0.0,0.0,0.0,-3.196,-3.0785,-3.1876,-3.2944,-3.3659,-3.3897,-3.4667,-3.6424,-3.6456,-3.6716,-3.7825,-3.7976,-3.8052,-3.8052,-3.8127,-3.8202,-3.8202,-3.8202,-3.8202,-3.8202,-3.8202,-3.8202,-3.8202,-3.8202,-3.8202,-3.8202,-3.8202,-3.8202,-3.8202,-3.8202,-3.8202,-3.8202,-3.8202,-3.8202,-3.8127,-3.761,-3.7457,-3.7471,-3.6707,-3.6138,-3.5884,-3.571,-3.571,-3.571,-3.571,-3.571,-3.571,-3.571,-3.571,-3.571,-3.571,-3.571,-3.571,-3.571,-3.571,-3.571,-3.571,-3.571,-3.571,-3.5642,-3.5981,-3.6196,-3.5961,-3.6226,-3.6231,-3.5201,-3.5508,-3.5717,-3.5247,-3.607,0.0,-3.6332,-3.709,-3.7233,-3.6136,-3.6018,-3.6018,-3.6018,-3.5574,-3.6044,-3.7795,-3.7456,-3.7403,-3.7887,-3.7586,-3.7678,-3.8227,-3.7586,-3.7377,0.0,0.0,0.0,0.0,0.0,0.0,0.0,0.0,0.0,0.0,0.0,0.0,0.0,0.0,0.0,0.0,0.0,0.0,0.0,0.0,0.0,0.0,-3.2607,-3.304,-3.2396,-3.3135,-3.4108,-3.5142,-3.4924,-3.5426,-3.738,-3.712,-3.7183,-3.8127,-3.8202,-3.8202,-3.8202,-3.8202,-3.8202,-3.8202,-3.8202,-3.8202,-3.8202,-3.8202,-3.8202,-3.8202,-3.8202,-3.8202,-3.8202,-3.8202,-3.8202,-3.8202,-3.8202,-3.8202,-3.8202,-3.8202,-3.8202,0.0,0.0,0.0,0.0,0.0,-3.6363,-3.5723,-3.5898,-3.5884,-3.571,-3.571,-3.571,-3.571,-3.571,-3.571,-3.571,-3.571,-3.571,-3.571,-3.571,-3.571,-3.571,-3.571,-3.59,-3.609,-3.609,-3.6564,-3.6915,-3.6747,-3.7147,0.0,-3.6345,-3.6455,-3.6328,-3.5495,-3.6528,-3.7116,-3.6384,-3.7233,-3.7521,-3.6502,-3.6384,-3.6384,-3.6384,-3.5717,0.0,0.0,0.0,-3.7024,-3.7508,-3.7978,0.0,0.0,0.0,-3.8501,-3.9324,0.0,0.0,0.0,-3.796,-3.8461,0.0,0.0,0.0,0.0,0.0,0.0,0.0,0.0,0.0,0.0,0.0,0.0,0.0,0.0,0.0,0.0,-3.3613,-3.4134,-3.423,-3.4134,-3.4441,-3.5305,-3.5305,-3.5883,-3.7534,-3.7534,-3.7596,-3.8127,-3.8202,-3.8202,-3.8202,0.0,0.0,0.0,0.0,-3.8202,-3.8202,-3.8202,-3.8202,-3.8202,-3.8202,-3.8202,-3.8202,-3.8202,-3.8202,-3.8202,-3.8202,-3.8202,-3.8202,-3.8202,-3.8202,-3.8202,-3.8202,-3.8202,-3.8052,-3.7687,-3.6758,-3.5804,-3.6232,0.0,0.0,-3.571,-3.571,-3.571,-3.571,-3.571,-3.571,-3.571,-3.571,-3.571,-3.571,-3.5764,-3.5818,-3.5818,-3.6266,-3.67,-3.67,-3.7189,-3.7551,-3.738,-3.7852,-3.8094,-3.7665,-3.7576,-3.6946,-3.511,-3.6655,-3.7428,-3.5869,-3.6946,-3.7821,-3.7625,0.0,0.0,-3.7612,-3.6188,-3.6044,-3.7795,-3.6502,-3.6175,-3.726,-3.8331,-3.8893,-3.8893,-3.9494,-4.0305,-4.1311,-4.1311,-4.1311,-4.1246,-3.8868,-3.9305,0.0,0.0,0.0,0.0,0.0,0.0,0.0,0.0,0.0,0.0,0.0,0.0,0.0,0.0,0.0,-3.3557,-3.5053,-3.6084,-3.5156,-3.583,-3.6322,-3.6136,-3.5494,-3.583,-3.7901,-3.6844,-3.6596,-3.8127,-3.8202,-3.8202,-3.8202,-3.8202,-3.8202,-3.8202,-3.8202,-3.8202,-3.8202,-3.8202,-3.8202,-3.8202,0.0,0.0,-3.8202,-3.8202,-3.8202,-3.8202,-3.8202,-3.8202,-3.8202,-3.8202,-3.8202,-3.8202,-3.8202,-3.7976,-3.7687,-3.7289,-3.6758,-3.6232,-3.5978,-3.5804,-3.571,-3.571,-3.571,-3.571,-3.571,-3.571,0.0,-3.571,-3.571,-3.571,-3.571,-3.6076,-3.6429,-3.6429,-3.6904,-3.7351,-3.7351,-3.7826,-3.8247,-3.816,-3.8634,-3.8952,-3.8658,-3.8505,-3.8129,-3.7593,-3.8039,-3.8289,-3.7751,-3.7911,-3.7505,-3.5953,-3.5796,-3.5796,-3.5796,-3.5495,-3.6044,-3.7795,-3.7991,-3.837,-3.9076,-3.973,-4.0082,-4.0082,-4.0671,-4.1089,-4.1311,-4.1311,-4.1311,-4.1298,-4.0815,-4.0993,0.0,0.0,0.0,0.0,0.0,0.0,0.0,0.0,0.0,0.0,0.0,-3.397,0.0,0.0,-3.5409,-3.5328,-3.6261,-3.673,-3.5883,-3.6308,-3.6559,-3.6308,-3.591,-3.6136,-3.7414,-3.6766,-3.6752,-3.8127,-3.8202,-3.8202,-3.8202,-3.8202,-3.8202,-3.8202,-3.8202,-3.8202,-3.8202,-3.8202,-3.8202,-3.8202,-3.8202,-3.8202,-3.8202,-3.8202,-3.8202,-3.8202,-3.8202,-3.8202,-3.8202,-3.8202,-3.8202,-3.8202,-3.8202,-3.7976,-3.7625,-3.738,-3.6929,-3.6405,-3.6138,-3.5884,-3.571,-3.571,-3.571,-3.571,-3.571,-3.571,-3.5778,-3.6076,-3.6157,-3.6225,-3.6537,-3.6836,-3.7066,-3.7066,-3.7528,-3.7975,-3.7975,-3.8437,-3.8857,-3.8857,-3.9102,-3.9216,-3.8845,-3.8756,-3.8652,-3.8304,-3.8239,-3.8161,-3.8057,-3.8057,-3.7638,-3.6684,-3.6606,-3.6606,-3.6606,-3.6854,-3.7508,-3.8684,-3.9259,-3.9703,-4.0004,-4.0566,-4.0867,-4.0867,-4.1167,-4.1311,-4.1311,-4.1311,-4.1311,-4.1311,-4.1411,-4.1782,0.0,0.0,0.0,0.0,0.0,0.0,0.0,0.0,-3.3121,-3.4101,-3.4778,-3.5249,-3.5691,-3.6008,-3.641,-3.7056,-3.7056,-3.6808,-3.6373,-3.6373,-3.6373,-3.6215,-3.6136,-3.6452,-3.7092,-3.7014,-3.7246,-3.8127,-3.8202,-3.8202,-3.8202,-3.8202,-3.8202,-3.8202,-3.8202,-3.8202,-3.8202,-3.8202,-3.8202,-3.8202,-3.8202,-3.8202,-3.8202,-3.8202,-3.8202,-3.8202,-3.8202,-3.8202,-3.8202,-3.8202,-3.8202,-3.8202,-3.8202,-3.7976,-3.7625,-3.7625,-3.7162,-3.647,-3.6405,-3.6058,-3.571,-3.571,-3.571,-3.5737,-3.5859,-3.5886,-3.6008,-3.6619,-3.6782,-3.6904,-3.7406,-3.7623,-3.7704,-3.7704,-3.8165,-3.8586,-3.8586,-3.8966,-3.9292,-3.9203,-3.9203,-3.9114,-3.8692,-3.8666,-3.8639,-3.8291,-3.8148,-3.7992,-3.7979,-3.7979,-3.7979,-3.79,-3.79,-3.7952,-3.8057,-3.8566,-3.9141,-3.973,-4.0174,-4.0461,-4.0592,-4.105,-4.1311,-4.1311,-4.1311,-4.1311,-4.1311,-4.1311,-4.1311,-4.1311,-4.1511,-4.1967,-2.9798,-3.0928,0.0,-3.3801,-3.4062,-3.4654,0.0,0.0,-3.6171,-3.7432,-3.7692,-3.7825,-3.7881,-3.7924,-3.7818,-3.7596,-3.7197,-3.678,-3.6373,-3.661,-3.6531,-3.5789,-3.5695,-3.6267,-3.7886,-3.7337,-3.7246,-3.8127,-3.8202,-3.8202,-3.8202,-3.8202,-3.8202,-3.8202,-3.8202,-3.8202,-3.8202,-3.8202,-3.8202,-3.8202,-3.8202,-3.8202,-3.8202,-3.8202,-3.8202,-3.8202,-3.8202,-3.8202,-3.8202,-3.8202,-3.8202,-3.8202,-3.8202,-3.7976,-3.7625,-3.7625,-3.7303,-3.6915,-3.6549,-3.6058,-3.571,-3.571,-3.571,-3.5818,-3.6347,-3.6497,-3.6632,-3.7256,-3.7433,-3.7446,-3.7514,-3.7921,-3.8315,-3.8315,-3.8776,-3.921,-3.921,-3.9251,-3.9203,-3.8997,-3.8908,-3.8832,-3.8602,-3.8395,-3.8291,-3.82,-3.8408,-3.8421,-3.8213,-3.8213,-3.8135,-3.79,-3.79,-3.8096,-3.8579,-3.9168,-3.9743,-4.0292,-4.0383,-4.0657,-4.1193,-4.1272,-4.1311,-4.1311,-4.1311,-4.1311,-4.1311,-4.1311,-4.1311,-4.1311,-4.1311,-4.1597,-3.3354,0.0,0.0,0.0,-3.5517,-3.5793,-3.6852,-3.6693,-3.6664,-3.7941,-3.8202,-3.8202,-3.8202,-3.8202,-3.7976,0.0,-3.7414,-3.7414,-3.678,-3.678,-3.6766,-3.6439,-3.5949,-3.5855,-3.6582,-3.6844,-3.7014,-3.7414,-3.7414,-3.7644,-3.8202,-3.772,-3.7644,-3.8202,-3.8202,-3.8202,-3.8202,-3.8202,-3.8202,-3.8202,-3.8202,-3.8202,-3.8202,-3.8202,-3.8202,-3.8202,-3.8202,-3.8202,-3.8202,-3.8202,-3.8202,-3.8202,-3.7901,-3.7915,-3.7901,-3.7443,-3.7007,-3.6615,-3.6138,-3.5884,-3.5778,-3.6117,-3.6225,-3.6347,-3.6958,-3.7134,-3.727,-3.7881,-3.8043,-3.8125,-3.8477,-3.8735,-3.8925,-3.8925,-3.9129,-3.9305,-3.9305,-3.9203,-3.9011,-3.8908,-3.8832,-3.8666,-3.8408,-3.8304,-3.8122,-3.8057,-3.8161,-3.8161,-3.8057,-3.8057,-3.8096,-3.8331,-3.837,-3.8736,-3.9625,-3.9926,-4.0331,-4.0906,-4.0932,-4.105,-4.1311,-4.1311,-4.1311,-4.1311,-4.1311,-4.1311,-4.1311,-4.1311,-4.1311,-4.1311,-4.1511,-4.1696,-3.4791,0.0,0.0,-3.5996,-3.6577,-3.6823,-3.6823,-3.6823,-3.7099,-3.8014,-3.8202,-3.8202,-3.8202,-3.8202,0.0,-3.7337,-3.7567,-3.7644,-3.7014,-3.6688,-3.6517,-3.6517,-3.5949,-3.5534,-3.5318,-3.6281,-3.6766,-3.6517,-3.6766,-3.7092,-3.7477,-3.6922,-3.6922,-3.781,-3.781,-3.7962,-3.8202,-3.8202,-3.8202,-3.8202,-3.8202,-3.8115,-3.7955,-3.7955,-3.8043,-3.8202,-3.8202,-3.8202,-3.8202,-3.8052,-3.8052,-3.7976,-3.761,-3.7534,-3.7596,-3.707,-3.6693,-3.647,-3.6058,-3.5913,-3.6035,-3.6456,-3.6714,-3.6971,-3.7596,-3.7786,-3.7894,-3.8491,-3.8667,-3.8762,-3.9197,-3.9305,-3.9305,-3.9305,-3.9305,-3.9305,-3.9203,-3.9011,-3.8819,-3.8729,-3.8575,-3.8408,-3.8135,-3.8135,-3.8057,-3.79,-3.79,-3.79,-3.79,-3.8031,-3.8344,-3.8893,-3.9089,-3.952,-4.0344,-4.0566,-4.084,-4.1285,-4.1311,-4.1311,-4.1311,-4.1311,-4.1311,-4.1311,-4.1311,-4.1311,-4.1311,-4.1311,-4.1311,-4.1311,-4.1511,-4.1696,0.0,0.0,-3.4719,-3.5996,-3.723,-3.8144,-3.8144,-3.8144,-3.8159,-3.8188,-3.8202,-3.8202,-3.8202,-3.8202,-3.8202,-3.8127,-3.7491,-3.6936,-3.6936,-3.6188,-3.5615,-3.5615,-3.5628,-3.5305,0.0,-3.591,-3.6517,-3.5695,-3.6439,-3.6517,-3.5695,-3.5615,-3.6029,-3.6936,-3.6936,-3.7337,-3.8202,-3.8202,-3.8202,-3.8202,-3.8202,-3.7897,-3.7331,-3.7331,-3.7651,-3.8202,-3.8202,-3.8202,-3.8202,-3.7763,-3.7625,-3.7625,-3.7148,-3.6772,-3.647,-3.6405,-3.6693,-3.6915,-3.6549,-3.6442,-3.6578,-3.6592,-3.7012,-3.7623,-3.8206,-3.8383,-3.8518,-3.9102,-3.9278,-3.9278,-3.9305,-3.9305,-3.9305,-3.9305,-3.9305,-3.9203,-3.8997,-3.8908,-3.8729,-3.8291,-3.8213,-3.8135,-3.7979,-3.79,-3.79,-3.79,-3.79,-3.79,-3.79,-3.8357,-3.8919,-3.952,-4.0056,-4.0383,-4.0409,-4.0958,-4.1298,-4.1311,-4.1311,-4.1311,-4.1311,-4.1311,-4.1311,-4.1311,-4.1311,-4.1311,-4.1311,-4.1311,-4.1311,-4.1311,-4.1311,-4.1311,0.0,0.0,-3.554,-3.6816,-3.7447,-3.7839,-3.8127,-3.8202,-3.8202,-3.8202,-3.7535,-3.6939,-3.6939,-3.6939,-3.678,-3.6148,-3.701,-3.7323,-3.6188,-3.6281,-3.6042,-3.4937,-3.4772,0.0,0.0,0.0,0.0,-3.4855,-3.5114,-3.5332,-3.5628,-3.5087,-3.5413,-3.6858,-3.6936,-3.7323,-3.8202,-3.8202,-3.7999,-3.7607,-3.7607,-3.7255,-3.6518,-3.7471,-3.8014,-3.8202,-3.7915,-3.7839,-3.7763,-3.738,-3.7226,-3.7148,-3.6772,-3.6693,-3.6814,-3.6577,-3.6809,-3.7146,-3.6728,-3.6797,-3.7284,-3.7677,-3.7948,-3.8233,-3.8817,-3.9007,-3.9047,-3.9237,-3.9305,-3.9305,-3.9305,-3.9305,-3.9305,-3.9305,-3.9189,-3.9011,-3.8908,-3.8639,-3.8381,-3.82,-3.8135,-3.7979,-3.79,-3.79,-3.8031,-3.8383,-3.8436,-3.8436,-3.8436,-3.8945,-3.952,-4.0082,-4.0305,-4.0579,-4.0984,-4.1193,-4.1311,-4.1311,-4.1311,-4.1311,-4.1311,-4.1311,-4.1311,-4.1311,-4.1311,-4.1311,-4.1311,-4.1311,-4.1311,-4.1311,-4.1311,-4.1511,0.0,-3.4953,-3.6011,-3.7296,-3.7687,-3.7915,-3.8127,-3.8202,-3.8202,-3.8202,-3.7186,-3.6301,-3.6301,-3.6301,-3.5855,-3.434,-3.5666,-3.6404,-3.4913,-3.4927,-3.495,-3.4485,-3.4147,0.0,0.0,0.0,0.0,-3.3979,-3.423,-3.4468,-3.4677,-3.4538,-3.4868,-3.599,-3.6294,-3.6732,-3.739,-3.7149,-3.6949,-3.6905,-3.6831,-3.6857,-3.6892,-3.7408,-3.7774,-3.7976,-3.7534,-3.738,-3.738,-3.6915,-3.6772,-3.6786,-3.6532,-3.6615,-3.683,-3.6879,-3.7247,-3.7578,-3.7096,-3.7338,-3.7921,-3.8288,-3.8559,-3.8803,-3.9183,-3.9305,-3.9305,-3.9305,-3.9305,-3.9305,-3.9305,-3.9305,-3.9305,-3.9203,-3.91,-3.9011,-3.8729,-3.8472,-3.8304,-3.8135,-3.7979,-3.7965,-3.8161,-3.837,-3.8632,-3.8985,-3.9194,-3.9324,-3.9324,-3.9664,-4.0109,-4.0671,-4.0736,-4.0893,-4.1285,-4.1311,-4.1311,-4.1311,-4.1311,-4.1311,-4.1311,-4.1311,-4.1311,-4.1311,-4.1311,-4.1311,-4.1311,-4.1311,-4.1311,-4.1324,-4.152,-4.1813,-3.4506,-3.5402,-3.6096,-3.7234,-3.7839,-3.8202,-3.8202,-3.8202,-3.8188,-3.813,-3.707,-3.6141,0.0,0.0,-3.5336,-3.2951,-3.3733,-3.4323,-3.3444,-3.2604,-3.262,0.0,0.0,0.0,0.0,0.0,0.0,-3.3081,0.0,-3.3979,-3.3154,-3.3907,-3.4301,-3.4345,-3.5116,-3.5634,-3.5947,-3.5123,-3.5137,-3.5933,-3.5933,-3.6713,-3.7979,-3.7132,-3.6978,-3.7534,-3.7134,-3.69,-3.69,-3.6457,-3.6325,-3.6342,-3.647,-3.6619,-3.6727,-3.7351,-3.7935,-3.8342,-3.7813,-3.7989,-3.8464,-3.8464,-3.8844,-3.9305,-3.9305,-3.9305,-3.9305,-3.9305,-3.9305,-3.9305,-3.9292,-3.9305,-3.9203,-3.8908,-3.91,-3.9024,-3.8381,-3.8408,-3.8434,-3.8031,-3.7965,-3.8161,-3.8671,-3.9246,-3.9651,-3.9651,-4.0109,-4.0448,-4.0409,-4.0448,-4.0684,-4.1259,-4.1311,-4.1311,-4.1311,-4.1311,-4.1311,-4.1311,-4.1311,-4.1311,-4.1311,-4.1311,-4.1311,-4.1311,-4.1311,-4.1337,-4.1363,-4.1363,-4.1376,-4.1415,-4.1951,-4.2213,-3.4422,-3.5557,-3.6739,-3.7063,-3.7457,-3.7839,-3.8127,-3.8202,-3.7941,-3.6983,-3.5401,-3.3891,0.0,0.0,0.0,-3.333,-3.4982,0.0,-3.5108,-3.4272,0.0,0.0,0.0,-3.3081,-3.3081,-3.3081,0.0,0.0,-3.3326,-3.3326,-3.3081,-3.3326,-3.3533,-3.3744,-3.3949,-3.4353,-3.5137,-3.4627,-3.4246,-3.3966,-3.5137,-3.5452,-3.5018,-3.6106,-3.681,-3.7134,-3.6136,-3.5722,-3.5722,-3.5277,-3.5395,-3.5795,-3.5858,-3.6458,-3.7365,-3.7975,-3.8288,-3.845,-3.8749,-3.8952,-3.9074,-3.9074,-3.9169,-3.9305,-3.9305,-3.9305,-3.9305,-3.9305,-3.9305,-3.9292,-3.91,-3.8997,-3.8922,-3.8769,-3.8575,-3.8395,-3.82,-3.8148,-3.8201,-3.8423,-3.8867,-3.922,-3.9364,-3.9847,-4.0213,-4.0213,-4.071,-4.0919,-4.0474,-4.0814,-4.1141,-4.1298,-4.1311,-4.1311,-4.1311,-4.1311,-4.1311,-4.1311,-4.1311,-4.1311,-4.1311,-4.1311,-4.1311,-4.1311,-4.1311,-4.152,-4.1951,-4.1951,-4.2173,-4.2592,-4.2735,-4.2904,-3.4867,-3.5825,-3.6772,-3.6772,-3.707,-3.7238,-3.6971,-3.6857,-3.6487,-3.4938,-3.3346,0.0,0.0,0.0,0.0,0.0,0.0,0.0,-3.3422,-3.2817,-3.2644,0.0,-3.2896,0.0,-3.3081,-3.3081,-3.2968,0.0,-3.293,-3.2968,-3.2717,-3.3115,-3.32,-3.2949,-3.3333,-3.3496,-3.3551,-3.3712,-3.3537,-3.3075,-3.4192,-3.4647,-3.4377,-3.5238,-3.5628,-3.5736,0.0,-3.4581,-3.4607,-3.498,-3.5284,-3.5711,-3.6497,-3.7268,-3.7989,-3.8586,-3.8803,-3.8844,-3.9183,-3.9305,-3.9305,-3.9305,-3.9305,-3.9305,-3.9305,-3.9305,-3.9305,-3.9305,-3.9305,-3.9203,-3.8997,-3.8908,-3.8819,-3.8485,-3.8408,-3.8279,-3.7764,-3.8041,-3.8529,-3.8998,-3.9573,-3.9965,-3.9965,-4.0435,-4.0814,-4.0814,-4.1102,-4.1193,-4.0853,-4.1102,-4.1311,-4.1311,-4.1311,-4.1311,-4.1311,-4.1311,-4.1311,-4.1311,-4.1311,-4.1311,-4.1311,-4.1311,-4.1311,-4.1311,-4.1559,-4.1847,-4.216,-4.2422,-4.2709,-4.3036,-4.3271,-4.3494,-3.5505,-3.6058,-3.6405,-3.6405,-3.6693,-3.6655,-3.5508,-3.5156,-3.455,-3.2647,0.0,0.0,-2.9765,0.0,-3.1533,-2.9059,0.0,-3.2385,-3.0914,-3.0562,-3.1026,-3.2463,-3.2636,-3.2698,-3.2895,-3.2882,-3.2559,-3.1829,-3.2484,-3.2657,-3.2168,-3.2854,-3.2937,-3.2215,-3.2854,-3.2854,-3.1903,-3.2612,-3.2874,-3.267,-3.3334,-3.3998,-3.465,-3.4306,-3.4223,-3.4236,-3.3784,0.0,-3.3781,-3.494,-3.5581,-3.5818,-3.7471,-3.8189,-3.8425,-3.8836,-3.9114,-3.9114,-3.9114,-3.9114,-3.9216,-3.9305,-3.9305,-3.9305,-3.9305,-3.9203,-3.9114,-3.9203,-3.9114,-3.9011,-3.8819,-3.8819,-3.8652,-3.8188,-3.8227,-3.8188,-3.7291,-3.8273,-3.9399,-3.9612,-4.0161,-4.054,-4.054,-4.0971,-4.1311,-4.1311,-4.1311,-4.1311,-4.1311,-4.1311,-4.1311,-4.1311,-4.1311,-4.1311,-4.1311,-4.1311,-4.1311,-4.1311,-4.1311,-4.1311,-4.1311,-4.1311,-4.135,-4.1428,-4.1912,-4.2239,-4.2396,-4.2892,-4.318,-4.3258,-4.3755,-4.399,-3.5494,-3.6058,-3.6405,-3.6405,-3.6693,-3.6655,-3.5508,-3.4804,0.0,0.0,0.0,-2.8782,-2.7567,0.0,0.0,-2.9901,0.0,0.0,0.0,0.0,0.0,0.0,0.0,0.0,0.0,0.0,0.0,0.0,0.0,-3.1858,-3.1674,-3.1988,-3.2143,-3.1975,-3.2143,-3.1963,-3.1552,-3.2007,-3.2141,-3.2129,-3.2943,-3.325,-3.3116,-3.3322,-3.3577,-3.3784,-3.3129,0.0,-3.357,-3.442,-3.536,-3.6225,-3.6509,-3.7337,-3.8158,-3.7691,-3.7913,-3.8395,-3.8395,-3.8395,-3.8485,-3.9114,-3.9305,-3.9305,-3.9305,-3.8549,-3.7887,-3.8729,-3.8251,-3.7494,-3.8187,-3.8291,-3.8123,-3.7337,-3.7248,-3.7316,-3.7688,-3.8979,-4.0148,-4.0252,-4.0762,-4.1154,-4.1154,-4.1246,-4.1311,-4.1311,-4.1311,-4.1311,-4.1311,-4.1311,-4.1311,-4.1311,-4.1311,-4.1311,-4.1311,-4.1311,-4.1311,-4.1311,-4.1311,-4.1311,-4.1311,-4.1311,-4.1533,-4.2004,-4.2121,-4.2631,-4.3572,-4.3676,-4.3964,-4.4434,-4.4539,-4.4578,-3.4634,-3.5059,-3.5386,-3.5059,-3.5114,-3.4808,-3.3023,0.0,0.0,0.0,0.0,0.0,-2.5848,0.0,0.0,0.0,0.0,0.0,0.0,0.0,0.0,0.0,0.0,0.0,0.0,0.0,0.0,0.0,0.0,-3.1062,-3.1171,-3.1501,-3.1722,-3.1722,-3.2006,-3.1994,-3.1723,-3.1904,-3.195,-3.1849,-3.2251,-3.2339,-3.2189,-3.2413,-3.25,-3.2624,-3.2582,0.0,-3.3057,-3.4397,-3.5209,-3.5805,-3.6453,-3.7103,-3.7533,-3.7243,-3.7348,-3.7638,-3.7638,-3.7638,-3.7625,-3.7704,-3.7782,-3.7782,-3.7782,-3.7494,-3.7309,-3.7769,-3.7481,-3.7095,-3.7603,-3.7386,-3.693,-3.6604,-3.6861,-3.7456,-3.8936,-3.9633,-4.0143,-4.078,-4.1115,-4.1311,-4.1311,-4.1311,-4.1311,-4.1311,-4.1311,-4.1311,-4.1311,-4.1311,-4.1311,-4.1311,-4.1311,-4.1311,-4.1311,-4.1311,-4.1311,-4.1311,-4.1311,-4.1311,-4.1311,-4.1598,-4.1886,-4.216,-4.2748,-4.3323,-4.3872,-4.4173,-4.446,-4.4722,-4.4722,-4.4722,-3.3454,-3.3771,-3.4024,-3.3518,-3.3445,-3.2887,-3.0527,-2.9933,0.0,0.0,0.0,0.0,0.0,0.0,0.0,0.0,0.0,0.0,0.0,0.0,0.0,0.0,0.0,0.0,0.0,0.0,0.0,0.0,0.0,0.0,-3.0854,-3.1357,-3.1639,-3.1639,-3.208,-3.2213,-3.1937,-3.1937,-3.1849,-3.1661,-3.1661,-3.1661,-3.1661,-3.1661,-3.1733,-3.1865,-3.231,0.0,0.0,-3.4533,-3.5313,-3.545,-3.6425,-3.6871,-3.6883,-3.6696,-3.6696,-3.6883,-3.6777,-3.6684,-3.659,-3.6093,-3.6081,-3.627,-3.6163,-3.6163,-3.6351,-3.6539,-3.6439,-3.6451,-3.6902,-3.6395,-3.6009,-3.6273,-3.6812,-3.7716,-3.946,-3.9715,-3.9815,-4.0453,-4.0782,-4.0896,-4.0896,-4.1097,-4.1311,-4.1311,-4.1311,-4.1311,-4.1311,-4.1311,-4.1311,-4.1311,-4.1311,-4.1311,-4.1311,-4.1311,-4.1311,-4.1311,-4.1311,-4.1376,-4.1494,-4.1925,-4.2278,-4.2526,-4.3415,-4.3938,-4.4055,-4.45,-4.4722,-4.4722,-4.4722,-4.4722,-3.1994,-3.2438,-3.2525,-3.2438,-3.271,-3.2349,-2.9554,0.0,0.0,0.0,0.0,0.0,0.0,0.0,0.0,0.0,0.0,0.0,0.0,0.0,0.0,0.0,0.0,0.0,0.0,0.0,0.0,0.0,0.0,0.0,-3.1126,-3.1648,-3.1952,-3.1952,-3.2013,-3.1937,-3.1749,-3.1749,-3.1749,-3.1661,-3.1661,-3.1661,-3.1661,-3.1661,-3.1949,-3.243,-3.2478,0.0,0.0,-3.4829,-3.5444,-3.5891,-3.6036,-3.6061,-3.6048,-3.5295,-3.5488,-3.6048,-3.5559,-3.5355,-3.5271,-3.4775,-3.533,-3.6175,-3.5676,-3.4824,-3.4068,-3.4993,-3.4781,-3.4385,-3.5421,-3.5893,-3.6297,-3.6848,-3.7457,-3.7935,-3.804,-3.8926,-3.9287,-3.8428,-3.9067,-3.9712,-3.9712,-4.0567,-4.1311,-4.1311,-4.1311,-4.1311,-4.1311,-4.1311,-4.1311,-4.1311,-4.1311,-4.1311,-4.1311,-4.1311,-4.1311,-4.1311,-4.1311,-4.1546,-4.2056,-4.2134,-4.2657,-4.3689,-4.382,-4.4134,-4.4657,-4.4709,-4.4722,-4.4722,-4.4722,-4.4722,-3.0785,-3.1311,-3.1565,-3.1146,-3.0545,-2.957,-2.7762,0.0,0.0,0.0,-2.313,-2.2847,0.0,0.0,0.0,0.0,0.0,0.0,0.0,0.0,0.0,0.0,0.0,0.0,0.0,0.0,0.0,0.0,0.0,0.0,-3.1511,-3.1728,-3.1849,-3.1849,-3.1849,-3.1761,-3.1661,-3.1661,-3.1661,-3.1661,-3.1661,-3.1661,-3.1673,-3.201,-3.2286,-3.2527,-3.3152,0.0,0.0,-3.4366,-3.4812,-3.5199,-3.4617,-3.4519,-3.4714,-3.4028,-3.4028,-3.4311,-3.4017,-3.4017,-3.3918,-3.3411,-3.3575,-3.3958,-3.3662,-3.3476,-3.3457,-3.4146,-3.4191,-3.4108,-3.5223,-3.5864,-3.6403,-3.7343,-3.7757,-3.8113,-3.8755,-3.8755,-3.8428,-3.7995,-3.8218,-3.8755,-3.9494,-3.939,-3.9494,-4.0134,-3.9712,-3.9494,-4.0147,-4.0249,-4.0567,-4.1211,-4.1311,-4.1311,-4.1311,-4.1311,-4.1311,-4.1311,-4.1638,-4.1925,-4.216,-4.2827,-4.3402,-4.3859,-4.4212,-4.45,-4.4722,-4.4722,-4.4722,-4.4722,-4.4722,-4.4722,-2.9226,-2.9862,-3.0351,-2.9932,-2.8817,-2.7552,0.0,0.0,0.0,-2.2438,-2.2125,-2.2075,-2.2075,0.0,0.0,0.0,0.0,0.0,0.0,0.0,0.0,0.0,0.0,0.0,0.0,0.0,0.0,0.0,0.0,0.0,-3.1661,-3.1661,-3.1661,-3.1661,-3.1661,-3.1661,-3.1661,-3.1661,-3.1661,-3.1661,-3.1661,-3.1661,-3.1685,-3.225,-3.2587,-3.2779,-3.3469,0.0,0.0,-3.3789,-3.3941,-3.4237,-3.3545,-3.3446,-3.3744,-3.3346,-3.3247,-3.3147,-3.3035,-3.2935,-3.2835,-3.2319,-3.2117,-3.2139,-3.2396,-3.2644,-3.3017,-3.3367,-3.3684,-3.4102,-3.4962,-3.5436,-3.6013,-3.7168,-3.737,-3.7595,-3.8441,-3.7914,-3.7275,-3.6954,-3.7168,-3.7701,-3.8441,-3.8218,-3.8218,-3.8963,-3.8428,-3.8323,-3.9494,-3.9609,-4.0032,-4.1211,-4.1311,-4.1311,-4.1311,-4.1311,-4.1311,-4.1311,-4.186,-4.2239,-4.2409,-4.335,-4.3951,-4.4121,-4.4526,-4.4722,-4.4722,-4.4722,-4.4722,-4.4722,-4.4722,-4.4722,-2.7075,-2.8025,-2.885,-2.885,-2.8099,-2.6886,0.0,0.0,0.0,0.0,-2.1221,-2.1221,-2.1221,-2.1221,-2.1348,-2.1651,-2.1726,0.0,0.0,0.0,0.0,0.0,0.0,0.0,0.0,0.0,0.0,0.0,0.0,0.0,-3.1661,-3.1661,-3.1661,-3.1661,-3.1661,-3.1661,-3.1661,-3.1661,-3.1661,-3.1661,-3.1661,-3.1661,-3.1685,-3.225,-3.2791,0.0,0.0,0.0,0.0,-3.3446,-3.3247,-3.3247,-3.3247,-3.3247,-3.3247,-3.3247,-3.3247,-3.3147,-3.2622,-3.2409,-3.2319,-3.1823,-3.1618,-3.1717,-3.2219,-3.2372,-3.2383,-3.2383,-3.306,-3.389,-3.4392,-3.4513,-3.4847,-3.5916,-3.6243,-3.6231,-3.6231,-3.6231,-3.5916,-3.4736,-3.5488,-3.6231,-3.6231,-3.7168,-3.789,-3.7902,-3.789,-3.8323,-3.9494,-3.9609,-4.0032,-4.1211,-4.1311,-4.1311,-4.1311,-4.1311,-4.1311,-4.1311,-4.186,-4.2422,-4.2984,-4.3572,-4.4134,-4.4709,-4.4722,-4.4722,-4.4722,-4.4722,-4.4722,-4.4722,-4.4722,-4.4722,-2.6092,-2.6573,-2.6802,-2.6802,-2.5541,-2.4238,-2.371,0.0,0.0,0.0,0.0,0.0,0.0,-2.1031,-2.1221,-2.1348,-2.1348,-2.1574,0.0,0.0,0.0,0.0,0.0,0.0,0.0,0.0,0.0,0.0,0.0,0.0,-3.1661,-3.1395,-3.1306,-3.1661,-3.1661,-3.1661,-3.1661,-3.1661,-3.1661,-3.1661,-3.1306,-3.1508,-3.225,-3.24,-3.2735,0.0,0.0,0.0,0.0,-3.2823,-3.2835,-3.3147,-3.2432,-3.2331,-3.2633,-3.2229,-3.2128,-3.2026,-3.1924,-3.1823,-3.1823,-3.1629,-3.1859,-3.2175,-3.2339,-3.2383,-3.2514,-3.3169,-3.3803,-3.4327,-3.448,-3.5058,-3.5697,-3.6134,-3.6231,-3.6231,-3.6231,-3.5598,-3.4947,-3.4524,-3.4736,-3.5279,-3.6025,-3.5795,-3.5795,-3.6654,-3.6111,-3.6002,-3.718,-3.7914,-3.8847,-4.0032,-4.0883,-4.1311,-4.1311,-4.1311,-4.1481,-4.1873,-4.2435,-4.301,-4.3585,-4.4147,-4.4539,-4.4722,-4.4722,-4.4722,-4.4722,-4.4722,-4.4722,-4.4722,-4.4722,-4.4722,0.0,-2.5362,-2.5644,-2.5738,-2.4364,0.0,0.0,0.0,0.0,0.0,0.0,0.0,0.0,-2.0646,-2.085,-2.0967,-2.0967,-2.1156,0.0,0.0,0.0,0.0,0.0,0.0,0.0,0.0,0.0,0.0,0.0,0.0,-3.1116,-3.0847,-3.0758,-3.1116,-3.1116,-3.1116,-3.1116,-3.1116,-3.1116,-3.1116,-3.0956,-3.1237,-3.1955,-3.2277,-3.2672,0.0,0.0,0.0,0.0,-3.2319,-3.2319,-3.2533,-3.1823,-3.1823,-3.2015,-3.1721,-3.1618,-3.1618,-3.1618,-3.1618,-3.1651,-3.1848,-3.2372,-3.2918,-3.2918,-3.2918,-3.3082,-3.3857,-3.4294,-3.4524,-3.4524,-3.5058,-3.5598,-3.5598,-3.5598,-3.5598,-3.5598,-3.4947,-3.4524,-3.4524,-3.4524,-3.4736,-3.5488,-3.4947,-3.4736,-3.5488,-3.4947,-3.4958,-3.6013,-3.7168,-3.8218,-3.8859,-4.0032,-4.0758,-4.099,-4.1422,-4.1794,-4.2147,-4.2905,-4.3506,-4.3859,-4.4421,-4.4722,-4.4722,-4.4722,-4.4722,-4.4722,-4.4722,-4.4722,-4.4722,-4.4722,-4.4722,0.0,0.0,0.0,0.0,0.0,0.0,0.0,0.0,0.0,0.0,0.0,0.0,0.0,0.0,-2.0205,-2.0518,-2.0571,-2.1048,0.0,0.0,0.0,0.0,0.0,0.0,0.0,0.0,0.0,0.0,0.0,0.0,-3.0216,-3.0216,-3.0125,-3.0125,-3.0125,-3.0125,-3.0216,-3.0216,-3.0239,-3.0273,-3.0663,-3.0926,-3.1029,-3.1956,-3.25,0.0,0.0,0.0,0.0,-3.1823,-3.1618,-3.1618,-3.1618,-3.1618,-3.1618,-3.1618,-3.1618,-3.1618,-3.1618,-3.164,-3.1771,-3.2306,-3.3082,-3.3803,-3.3835,-3.3846,-3.3945,-3.4403,-3.4524,-3.4524,-3.4524,-3.4524,-3.4524,-3.4524,-3.4524,-3.4524,-3.4524,-3.4524,-3.4524,-3.4524,-3.4524,-3.4524,-3.4524,-3.4524,-3.4524,-3.4524,-3.4524,-3.4847,-3.5916,-3.7061,-3.7796,-3.7796,-3.8779,-3.9769,-4.0413,-4.1428,-4.22,-4.2278,-4.3284,-4.3885,-4.3938,-4.4447,-4.4722,-4.4722,-4.4722,-4.4722,-4.4722,-4.4722,-4.4722,-4.4722,-4.4722,-4.4722,0.0,0.0,0.0,0.0,0.0,0.0,0.0,0.0,0.0,0.0,0.0,0.0,0.0,0.0,0.0,-2.0205,-2.0205,-2.061,0.0,0.0,0.0,0.0,0.0,0.0,0.0,0.0,0.0,0.0,0.0,-3.0216,-3.0216,-2.9852,-2.9669,-2.9669,-2.9301,-2.9485,-3.0216,-3.0216,-3.0411,-3.0709,-3.0461,-3.0997,-3.2013,-3.1984,-3.2104,0.0,0.0,0.0,-3.1823,-3.1618,-3.1618,-3.1618,-3.1618,-3.1618,-3.1618,-3.1618,-3.1618,-3.1618,-3.1618,-3.188,-3.235,-3.3191,-3.3617,-3.3868,-3.424,-3.4349,-3.4382,-3.4491,-3.4524,-3.4524,-3.4524,-3.4524,-3.4524,-3.4524,-3.4524,-3.4524,-3.4524,-3.4524,-3.4524,-3.4524,-3.4524,-3.4524,-3.4524,-3.4524,-3.4524,-3.4524,-3.4524,-3.4635,-3.4847,-3.5904,-3.6654,-3.6654,-3.7953,-3.9324,-4.045,-4.079,-4.1683,-4.3415,-4.3716,-4.4068,-4.4513,-4.4657,-4.4722,-4.4722,-4.4722,-4.4722,-4.4722,-4.4722,-4.4722,-4.4722,-4.4722,-4.4722,0.0,0.0,0.0,0.0,0.0,0.0,0.0,0.0,0.0,0.0,0.0,0.0,0.0,0.0,0.0,0.0,-2.0931,0.0,0.0,0.0,0.0,0.0,0.0,0.0,0.0,0.0,0.0,0.0,0.0,-2.9577,-2.9577,-2.9301,-2.9209,-2.9209,-2.8943,-2.9035,-2.9577,-2.9802,-2.9967,-3.0236,-3.0397,-3.0982,-3.1681,-3.1628,-3.1783,0.0,0.0,0.0,-3.1618,-3.1618,-3.1618,-3.1618,-3.1618,-3.1618,-3.1618,-3.1618,-3.1618,-3.1662,-3.1891,-3.2437,-3.3115,-3.3628,-3.3945,-3.4185,-3.4447,-3.4524,-3.4524,-3.4524,-3.4524,-3.4524,-3.4524,-3.4524,-3.4524,-3.4524,-3.4524,-3.4524,-3.4524,-3.4524,-3.4524,-3.4524,-3.4524,-3.4524,-3.4524,-3.4524,-3.4524,-3.4524,-3.4524,-3.4524,-3.4524,-3.5488,-3.6105,-3.578,-3.7015,-3.8354,-3.9503,-3.9539,-4.078,-4.3714,-4.4121,-4.4408,-4.4709,-4.4722,-4.4722,-4.4722,-4.4722,-4.4722,-4.4722,-4.4722,-4.4722,-4.4722,-4.4722,-4.4722,0.0,0.0,0.0,0.0,0.0,0.0,0.0,0.0,0.0,0.0,0.0,0.0,0.0,0.0,0.0,0.0,0.0,0.0,0.0,0.0,0.0,0.0,0.0,0.0,0.0,0.0,0.0,0.0,0.0,-2.8757,-2.8757,-2.8757,-2.8757,-2.8757,-2.8757,-2.879,-2.8866,-2.9281,-2.9554,-2.9707,-3.0515,-3.093,-3.1018,-3.1433,-3.1618,-3.1618,0.0,0.0,-3.1618,-3.1618,-3.1618,-3.1618,-3.1618,-3.1618,-3.1618,-3.1618,-3.1673,-3.1826,-3.2405,-3.3126,-3.3803,-3.3879,-3.4185,-3.4524,-3.4524,-3.4524,-3.4524,-3.4524,-3.4524,-3.4524,-3.4524,-3.4524,-3.4524,-3.4524,-3.4524,-3.4524,-3.4524,-3.4524,-3.4524,-3.4524,-3.4524,-3.4524,-3.4524,-3.4412,-3.4412,-3.4524,-3.4412,-3.4412,-3.4524,-3.5445,-3.5857,-3.5168,-3.6105,-3.7201,-3.8274,-3.8527,-3.9926,-4.3213,-4.4002,-4.4505,-4.4722,-4.4722,-4.4722,-4.4722,-4.4722,-4.4722,-4.4722,-4.4722,-4.4722,-4.4722,-4.4722,-4.4722,0.0,0.0,0.0,0.0,0.0,0.0,0.0,0.0,0.0,0.0,0.0,0.0,0.0,0.0,0.0,0.0,0.0,0.0,0.0,0.0,0.0,0.0,0.0,0.0,0.0,0.0,0.0,0.0,0.0,-2.8757,-2.8757,-2.8757,-2.8757,-2.8757,-2.8757,-2.8953,-2.9368,-2.9445,-2.9882,-3.0679,-3.0821,-3.1116,-3.1509,-3.1586,-3.1618,-3.1618,0.0,-3.1618,-3.1618,-3.1618,-3.1618,-3.1618,-3.1618,-3.1618,-3.1618,-3.1618,-3.1902,-3.2394,-3.3268,-3.3672,-3.3868,-3.4272,-3.4458,-3.4524,-3.4524,-3.4524,-3.4524,-3.4524,-3.4524,-3.4524,-3.4524,-3.4524,-3.4524,-3.4524,-3.4524,-3.4524,-3.4524,-3.4524,-3.4524,-3.4524,-3.4524,-3.4524,-3.4524,-3.4311,-3.4199,-3.4412,-3.4311,-3.4199,-3.4524,-3.4964,-3.5249,-3.4902,-3.5732,-3.6832,-3.7995,-3.8498,-3.9418,-4.1046,-4.2376,-4.3577,-4.4613,-4.4722,-4.4722,-4.4722,-4.4722,-4.4722,-4.4722,-4.4722,-4.4722,-4.4722,-4.4722,-4.4722,0.0,0.0,0.0,0.0,0.0,0.0,0.0,0.0,0.0,0.0,0.0,0.0,0.0,0.0,0.0,0.0,0.0,0.0,0.0,0.0,0.0,0.0,0.0,0.0,0.0,0.0,0.0,0.0,0.0,0.0,-2.8757,-2.8757,-2.8757,-2.8757,-2.9019,-2.9379,-2.9871,-3.0122,-3.0461,-3.0898,-3.116,-3.14,-3.1618,-3.1618,-3.1618,-3.1618,0.0,-3.1618,-3.1618,-3.1618,-3.1618,-3.1618,-3.1618,-3.1618,-3.1662,-3.1935,-3.2503,-3.3213,-3.365,-3.3967,-3.4229,-3.4447,-3.4524,-3.4524,-3.4524,-3.4524,-3.4524,-3.4524,-3.4524,-3.4524,-3.4524,-3.4524,-3.4524,-3.4524,-3.4524,-3.4524,-3.4524,-3.4524,-3.4524,-3.4524,-3.4412,-3.4311,-3.4311,-3.4086,-3.3861,-3.3963,-3.3851,-3.3947,-3.4318,-3.4533,-3.4866,-3.5264,-3.5703,-3.6285,-3.7372,-3.7462,-3.8625,-4.1419,-4.2213,-4.3245,-4.4409,-4.4626,-4.4722,-4.4722,-4.4722,-4.4722,-4.4722,-4.4722,-4.4722,-4.4722,-4.4722,-4.4722,0.0,0.0,0.0,0.0,0.0,0.0,0.0,0.0,0.0,0.0,0.0,0.0,0.0,0.0,0.0,0.0,0.0,0.0,0.0,0.0,0.0,0.0,0.0,0.0,0.0,0.0,0.0,0.0,0.0,0.0,-2.8664,-2.8757,-2.8811,-2.8921,-2.9292,-2.9773,-3.0373,-3.0723,-3.0952,-3.1072,-3.1444,-3.1618,-3.1618,-3.1618,-3.1618,-3.1618,-3.1618,-3.1618,-3.1618,-3.1618,-3.1618,-3.1618,-3.1618,-3.1695,-3.188,-3.2492,-3.3169,-3.3814,-3.3934,-3.4207,-3.4524,-3.4423,-3.4423,-3.4412,-3.4412,-3.4412,-3.4412,-3.4423,-3.4423,-3.4423,-3.4423,-3.43,-3.4278,-3.4412,-3.4311,-3.4322,-3.4423,-3.43,-3.43,-3.43,-3.4076,-3.3974,-3.3974,-3.3749,-3.3512,-3.3625,-3.3607,-3.3809,-3.4285,-3.4529,-3.4923,-3.5516,-3.5685,-3.6029,-3.6646,-3.6423,-3.7692,-4.1179,-4.1749,-4.2675,-4.4203,-4.4518,-4.4626,-4.4626,-4.4626,-4.4626,-4.4626,-4.4626,-4.4722,-4.4722,-4.4722,-4.4722,-1.8338,-1.8889,0.0,0.0,0.0,0.0,0.0,0.0,0.0,0.0,0.0,0.0,0.0,0.0,0.0,0.0,0.0,0.0,0.0,0.0,0.0,0.0,0.0,0.0,0.0,0.0,0.0,0.0,0.0,0.0,-2.8395,-2.8664,-2.8964,-2.9423,-2.9467,-2.9915,-3.0832,-3.0876,-3.1116,-3.1575,-3.1607,-3.1618,-3.1618,-3.1618,-3.1618,-3.1618,-3.1618,-3.1618,-3.1618,-3.1618,-3.1618,-3.1618,-3.1618,-3.1913,-3.2437,-3.3355,-3.3737,-3.3857,-3.4316,-3.4491,-3.4423,-3.4231,-3.4119,-3.4086,-3.4086,-3.4086,-3.4097,-3.4119,-3.4129,-3.4129,-3.4129,-3.3952,-3.3786,-3.4076,-3.3904,-3.3699,-3.4097,-3.3861,-3.3625,-3.3625,-3.3625,-3.3625,-3.3625,-3.3409,-3.3306,-3.3512,-3.3654,-3.3949,-3.4222,-3.5082,-3.5516,-3.5218,-3.5617,-3.5879,-3.5921,-3.5921,-3.6635,-3.8029,-3.9779,-4.1761,-4.419,-4.4518,-4.4626,-4.4313,-4.4518,-4.4626,-4.4313,-4.4626,-4.4722,-4.4722,-4.4722,-4.4722,-1.6863,-1.7795,0.0,0.0,0.0,0.0,0.0,0.0,0.0,0.0,0.0,0.0,0.0,0.0,0.0,0.0,0.0,0.0,0.0,0.0,0.0,0.0,0.0,0.0,0.0,0.0,0.0,0.0,0.0,0.0,-2.8186,-2.8559,-2.8912,-2.9202,-2.9677,-3.024,-3.0887,-3.1001,-3.124,-3.1618,-3.1618,-3.1618,-3.1618,-3.1618,-3.1618,-3.1618,-3.1618,-3.1618,-3.1618,-3.1618,-3.1618,-3.1651,-3.1968,-3.2394,-3.2885,-3.3551,-3.3988,-3.4272,-3.4458,-3.4434,-3.422,-3.4108,-3.4006,-3.3802,-3.3802,-3.377,-3.3749,-3.3759,-3.3689,-3.3629,-3.371,-3.3678,-3.3646,-3.3749,-3.3646,-3.3657,-3.3749,-3.3749,-3.3625,-3.3625,-3.3523,-3.3296,-3.3296,-3.3069,-3.3049,-3.3435,-3.3507,-3.383,-3.4533,-3.4899,-3.5223,-3.525,-3.5694,-3.5798,-3.5552,-3.5798,-3.638,-3.7429,-3.9075,-4.0834,-4.2451,-4.3628,-4.4107,-4.3997,-4.4313,-4.4422,-4.4313,-4.4518,-4.4722,-4.4722,-4.4722,-4.4722,-1.6171,0.0,0.0,0.0,0.0,0.0,0.0,0.0,0.0,0.0,0.0,0.0,0.0,0.0,0.0,0.0,0.0,0.0,0.0,0.0,0.0,0.0,0.0,0.0,0.0,0.0,0.0,0.0,0.0,0.0,0.0,-2.8445,-2.8871,-2.9139,-2.981,-3.0392,-3.0835,-3.0955,-3.1127,-3.1322,-3.1322,-3.1424,-3.1527,-3.1527,-3.1516,-3.1424,-3.1424,-3.1527,-3.1629,-3.1424,-3.1511,-3.1777,-3.2202,-3.2659,-3.3268,-3.365,-3.4063,-3.4379,-3.4289,-3.4209,-3.4119,-3.3904,-3.3689,-3.3473,-3.3473,-3.3441,-3.3512,-3.3512,-3.3349,-3.3163,-3.3245,-3.3359,-3.3349,-3.342,-3.3399,-3.3285,-3.3409,-3.3399,-3.3296,-3.3296,-3.3182,-3.3079,-3.3079,-3.2851,-3.2882,-3.3317,-3.3503,-3.3875,-3.4662,-3.4879,-3.5086,-3.5387,-3.5552,-3.5675,-3.5418,-3.5665,-3.6023,-3.6714,-3.8495,-4.014,-4.1395,-4.306,-4.3887,-4.3764,-4.3997,-4.4094,-4.3971,-4.43,-4.4518,-4.4518,-4.4518,-4.4626,0.0,0.0,0.0,0.0,0.0,0.0,0.0,0.0,0.0,0.0,0.0,0.0,0.0,0.0,0.0,0.0,0.0,0.0,0.0,0.0,0.0,0.0,0.0,0.0,0.0,0.0,0.0,0.0,0.0,0.0,0.0,-2.8264,-2.8923,-2.9402,-2.9881,-3.0349,-3.0827,-3.0838,-3.0838,-3.0838,-3.0838,-3.0931,-3.123,-3.1424,-3.1424,-3.123,-3.123,-3.1322,-3.1527,-3.1034,-3.1198,-3.192,-3.2146,-3.2684,-3.3345,-3.3512,-3.3759,-3.408,-3.3717,-3.3861,-3.3995,-3.3412,-3.3152,-3.3193,-3.3193,-3.3193,-3.3193,-3.3193,-3.3193,-3.3079,-3.2737,-3.2727,-3.2727,-3.3079,-3.2965,-3.2737,-3.3079,-3.2965,-3.2727,-3.2727,-3.2727,-3.2727,-3.2727,-3.2737,-3.2882,-3.3317,-3.3782,-3.4248,-3.4714,-3.5148,-3.5418,-3.5418,-3.5418,-3.5418,-3.5418,-3.5418,-3.5418,-3.5418,-3.7801,-3.9908,-4.1395,-4.306,-4.3764,-4.3394,-4.3764,-4.3764,-4.3394,-4.3764,-4.3997,-4.4313,-4.4313,-4.4409,0.0,0.0,0.0,0.0,0.0,0.0,0.0,0.0,0.0,0.0,0.0,0.0,0.0,0.0,0.0,0.0,0.0,0.0,0.0,0.0,0.0,0.0,0.0,0.0,0.0,0.0,0.0,0.0,0.0,0.0,0.0,-2.8359,-2.8917,-2.9579,-2.9858,-3.0276,-3.0827,-3.0609,-3.0609,-3.0838,-3.0838,-3.0827,-3.0931,-3.1034,-3.1023,-3.0931,-3.0931,-3.0931,-3.1056,-3.1168,-3.143,-3.1722,-3.2373,-3.2857,-3.3117,-3.3439,-3.3717,-3.3706,-3.3614,-3.3565,-3.3391,-3.3245,-3.2986,-3.2851,-3.2851,-3.2851,-3.2851,-3.2851,-3.2851,-3.2841,-3.2727,-3.2727,-3.2727,-3.2851,-3.2737,-3.2727,-3.2841,-3.2737,-3.2727,-3.2727,-3.2727,-3.2727,-3.2727,-3.2985,-3.3337,-3.3793,-3.4258,-3.4714,-3.5169,-3.5335,-3.5418,-3.5418,-3.5418,-3.5418,-3.5418,-3.5418,-3.5418,-3.5418,-3.7801,-3.9451,-3.9908,-4.2024,-4.3209,-4.3085,-4.3406,-4.3517,-4.3394,-4.3764,-4.3899,-4.3997,-4.4203,-4.4203,0.0,0.0,0.0,0.0,0.0,0.0,0.0,0.0,0.0,0.0,0.0,0.0,0.0,0.0,0.0,0.0,0.0,0.0,0.0,0.0,0.0,0.0,0.0,0.0,0.0,0.0,0.0,0.0,0.0,0.0,0.0,-2.8535,-2.9112,-2.9484,-2.985,-3.0203,-3.0516,-3.0297,-3.0297,-3.0516,-3.0516,-3.0516,-3.0516,-3.0724,-3.0724,-3.062,-3.0724,-3.0726,-3.0821,-3.119,-3.1593,-3.1913,-3.2325,-3.2763,-3.3065,-3.3149,-3.3317,-3.3388,-3.3285,-3.3214,-3.3152,-3.309,-3.2841,-3.2727,-3.2727,-3.2727,-3.2727,-3.2727,-3.2727,-3.2727,-3.2727,-3.2727,-3.2727,-3.2727,-3.2727,-3.2727,-3.2727,-3.2727,-3.2727,-3.2727,-3.2727,-3.2789,-3.2954,-3.3203,-3.3596,-3.4248,-3.4724,-3.5117,-3.5387,-3.5418,-3.5418,-3.5418,-3.5418,-3.5418,-3.5418,-3.5418,-3.5418,-3.5418,-3.7801,-3.9216,-3.9216,-4.1684,-4.2974,-4.2974,-4.3184,-4.3295,-4.3295,-4.3432,-4.3543,-4.3653,-4.3861,-4.3984,0.0,0.0,0.0,0.0,0.0,0.0,0.0,0.0,0.0,0.0,0.0,0.0,0.0,0.0,0.0,0.0,0.0,0.0,0.0,0.0,0.0,0.0,0.0,0.0,0.0,0.0,0.0,0.0,0.0,0.0,0.0,-2.8825,-2.9321,-2.9363,-2.9777,-2.9994,-2.9994,-2.9994,-2.9994,-2.9994,-2.9994,-2.9994,-2.9994,-3.0516,-3.0609,-3.0391,-3.0662,-3.0727,-3.0698,-3.1082,-3.1713,-3.2469,-3.2184,-3.2475,-3.3161,-3.2841,-3.2944,-3.3151,-3.2841,-3.2851,-3.3079,-3.2851,-3.2727,-3.2727,-3.2727,-3.2727,-3.2727,-3.2727,-3.2727,-3.2727,-3.2727,-3.2727,-3.2727,-3.2727,-3.2727,-3.2727,-3.2727,-3.2727,-3.2727,-3.2727,-3.2758,-3.2913,-3.3317,-3.3451,-3.3803,-3.4683,-3.5159,-3.5418,-3.5418,-3.5418,-3.5418,-3.5418,-3.5418,-3.5418,-3.5418,-3.5418,-3.5418,-3.5418,-3.7681,-3.9098,-3.9216,-4.1684,-4.2974,-4.2974,-4.2974,-4.2974,-4.2974,-4.2974,-4.3073,-4.3394,-4.3394,-4.353,0.0,0.0,0.0,0.0,0.0,0.0,0.0,0.0,0.0,0.0,0.0,0.0,0.0,0.0,0.0,0.0,0.0,0.0,0.0,0.0,0.0,0.0,0.0,0.0,0.0,0.0,0.0,0.0,0.0,0.0,-2.8442,-2.9001,-2.9477,-2.9839,-2.9942,-2.9994,-2.9994,-2.9994,-2.9994,0.0,-2.9994,-2.9994,-2.9994,-3.0099,-3.0099,-3.012,-3.0589,-3.0701,-3.0739,-3.1454,-3.1916,-3.2163,-3.2488,-3.2613,-3.2841,-3.2727,-3.2727,-3.2841,-3.2727,-3.2727,-3.2851,-3.2737,-3.2727,-3.2727,-3.2727,-3.2727,-3.2727,-3.2727,-3.2727,-3.2727,-3.2727,-3.2727,-3.2727,-3.2727,-3.2727,-3.2727,-3.2727,-3.2727,-3.2727,-3.2727,-3.3006,-3.3265,-3.3358,-3.3979,-3.4641,-3.52,-3.5355,-3.5418,-3.5418,-3.5418,-3.5418,-3.5418,-3.5418,-3.5418,-3.5418,-3.5418,-3.5418,-3.5418,-3.6835,-3.8138,-3.911,-4.1684,-4.2974,-4.2974,-4.2974,-4.2974,-4.2974,-4.2974,-4.2974,-4.3085,-4.3283,-4.3295,0.0,0.0,0.0,0.0,0.0,0.0,0.0,0.0,0.0,0.0,0.0,0.0,0.0,0.0,0.0,0.0,0.0,0.0,0.0,0.0,0.0,0.0,0.0,0.0,0.0,0.0,0.0,0.0,0.0,-2.7944,-2.8918,-2.9384,-2.9746,-2.9984,-2.9994,-2.9994,-2.9994,-2.9994,-2.9994,-2.9994,-2.9994,-2.9994,-2.9994,-2.9994,-2.9994,-3.0025,-3.0491,-3.0812,-3.1071,-3.1754,-3.2137,-3.2313,-3.2613,-3.2727,-3.2727,-3.2727,-3.2727,-3.2727,-3.2727,-3.2727,-3.2727,-3.2727,-3.2727,-3.2727,-3.2727,-3.2727,-3.2727,-3.2727,-3.2727,-3.2727,-3.2727,-3.2727,-3.2727,-3.2727,-3.2727,-3.2727,-3.2727,-3.2727,-3.2789,-3.3006,-3.3223,-3.3513,-3.3958,-3.461,-3.5159,-3.5387,-3.5418,-3.5418,-3.5418,-3.5418,-3.5418,-3.5418,-3.5418,-3.5418,-3.5418,-3.5418,-3.5418,-3.5418,-3.6603,-3.7539,-3.8257,-4.0152,-4.1456,-4.2037,-4.2037,-4.2037,-4.2037,-4.2737,-4.2974,-4.2974,-4.3184,-4.3073,0.0,0.0,0.0,0.0,0.0,0.0,0.0,0.0,0.0,0.0,0.0,0.0,0.0,0.0,0.0,0.0,0.0,0.0,0.0,0.0,0.0,0.0,0.0,0.0,0.0,0.0,0.0,0.0,0.0,-2.7475,-2.9178,-2.9528,-2.9774,-2.9994,-2.9994,-2.9994,-2.9994,-2.9994,-2.9994,-2.9994,-2.9994,-2.9994,-3.0005,-3.0098,-3.0129,-3.0139,-3.0605,-3.1071,-3.1526,-3.1981,-3.2385,-3.2727,-3.2727,-3.2727,-3.2727,-3.2727,-3.2727,-3.2727,-3.2727,-3.2727,-3.2727,-3.2727,-3.2727,-3.2727,-3.2727,-3.2727,-3.2727,-3.2727,-3.2727,-3.2727,-3.2727,-3.2727,-3.2727,-3.2727,-3.2727,-3.2727,-3.2727,-3.2789,-3.2954,-3.3306,-3.3503,-3.3886,-3.4734,-3.518,-3.5418,-3.5418,-3.5418,-3.5418,-3.5418,-3.5418,-3.5418,-3.5418,-3.5418,-3.5418,-3.5418,-3.5418,-3.5418,-3.5418,-3.6359,-3.7067,-3.7298,-3.8149,-3.9098,-4.0384,-4.0858,-4.11,-4.11,-4.2388,-4.2974,-4.2974,-4.2974,-4.2974,0.0,0.0,0.0,0.0,0.0,0.0,0.0,0.0,0.0,0.0,0.0,0.0,0.0,0.0,0.0,0.0,0.0,0.0,0.0,0.0,0.0,0.0,0.0,0.0,0.0,0.0,0.0,0.0,-2.5284,-2.6634,-2.9167,-2.8755,-2.889,-2.9994,-2.9994,-2.9994,-2.9994,-2.9994,-2.9994,-2.9994,-2.9994,-2.9994,-3.0015,-3.0384,-3.056,-3.0615,-3.1081,-3.1536,-3.1992,-3.2447,-3.2675,-3.2727,-3.2727,-3.2727,-3.2727,-3.2727,-3.2727,-3.2727,-3.2727,-3.2727,-3.2727,-3.2727,-3.2727,-3.2727,-3.2727,-3.2727,-3.2727,-3.2727,-3.2727,-3.2727,-3.2727,-3.2727,-3.2727,-3.2727,-3.2727,-3.2727,-3.2727,-3.3027,-3.3306,-3.3368,-3.402,-3.4734,-3.5242,-3.5376,-3.5418,-3.5418,-3.5418,-3.5418,-3.5418,-3.5418,-3.5418,-3.5418,-3.5418,-3.5418,-3.5418,-3.5418,-3.5418,-3.5418,-3.5541,-3.6125,-3.7298,-3.6359,-3.6481,-3.7779,-4.0024,-4.11,-4.11,-4.2388,-4.2974,-4.2974,-4.2974,-4.2974,0.0,0.0,0.0,0.0,0.0,0.0,0.0,0.0,0.0,0.0,0.0,0.0,0.0,0.0,0.0,0.0,0.0,0.0,0.0,0.0,0.0,0.0,0.0,0.0,0.0,0.0,0.0,0.0,-2.4885,-2.6129,-2.9559,-2.878,-2.8774,-2.9994,-2.9994,-2.9994,-2.9994,-2.9994,-2.9994,-2.9994,-2.9994,-2.9994,-3.0015,-3.0522,-3.0642,-3.0694,-3.1464,-3.1857,-3.2075,-3.254,-3.2727,-3.2727,-3.2727,-3.2727,-3.2727,-3.2727,-3.2727,-3.2727,-3.2727,-3.2727,-3.2727,-3.2727,-3.2727,-3.2727,-3.2727,-3.2727,-3.2727,-3.2727,-3.2727,-3.2727,-3.2727,-3.2727,-3.2727,-3.2727,-3.2913,-3.3089,-3.3089,-3.3244,-3.3534,-3.4051,-3.4683,-3.519,-3.5387,-3.5418,-3.5418,-3.5418,-3.5418,-3.5418,-3.5418,-3.5418,-3.5418,-3.5418,-3.5418,-3.5418,-3.5418,-3.5418,-3.5418,-3.5418,-3.5418,-3.5654,-3.6247,-3.5654,-3.5654,-3.6247,-3.8744,-4.0036,-4.0036,-4.2037,-4.2974,-4.2974,-4.2974,-4.2974,0.0,0.0,0.0,0.0,0.0,0.0,0.0,0.0,0.0,0.0,0.0,0.0,0.0,0.0,0.0,0.0,0.0,0.0,0.0,0.0,0.0,0.0,0.0,0.0,0.0,0.0,0.0,0.0,-2.441,-2.5433,-2.9313,-2.8445,-2.8339,-2.9554,-2.9879,-2.9994,-2.9994,-2.9994,-2.9994,-2.9994,-2.9994,-3.0056,-3.018,-3.0646,-3.0957,-3.1055,-3.1663,-3.2106,-3.224,-3.2592,-3.2727,-3.2727,-3.2727,-3.2727,-3.2727,-3.2727,-3.2727,-3.2727,-3.2727,-3.2727,-3.2727,-3.2727,-3.2727,-3.2727,-3.2727,-3.2727,-3.2727,-3.2727,-3.2727,-3.2727,-3.2727,-3.2727,-3.2727,-3.2727,-3.3058,-3.3441,-3.3679,-3.3731,-3.3969,-3.4776,-3.519,-3.5418,-3.5418,-3.5418,-3.5418,-3.5418,-3.5418,-3.5418,-3.5418,-3.5418,-3.5418,-3.5418,-3.5418,-3.5418,-3.5418,-3.5418,-3.5418,-3.5418,-3.5418,-3.5418,-3.5418,-3.5418,-3.5418,-3.5418,-3.755,-3.8862,-3.9228,-4.1444,-4.2737,-4.2974,-4.2974,-4.2974,0.0,0.0,0.0,0.0,0.0,0.0,0.0,0.0,0.0,0.0,0.0,0.0,0.0,0.0,0.0,0.0,0.0,0.0,0.0,0.0,0.0,0.0,0.0,0.0,0.0,0.0,0.0,0.0,-2.3668,-2.425,-2.8096,-2.7248,-2.714,-2.8223,-2.9438,-2.9994,-2.9994,-2.9994,-2.9994,-2.9994,-2.9994,-3.0222,-3.0667,-3.1133,-3.1578,-3.1971,-3.2023,-3.2292,-3.2696,-3.2716,-3.2727,-3.2727,-3.2727,-3.2727,-3.2727,-3.2727,-3.2727,-3.2727,-3.2727,-3.2727,-3.2727,-3.2727,-3.2727,-3.2727,-3.2727,-3.2727,-3.2727,-3.2727,-3.2727,-3.2727,-3.2727,-3.2727,-3.2727,-3.2727,-3.3058,-3.3617,-3.4496,-3.4693,-3.4828,-3.5293,-3.5407,-3.5418,-3.5418,-3.5418,-3.5418,-3.5418,-3.5418,-3.5418,-3.5418,-3.5418,-3.5418,-3.5418,-3.5418,-3.5418,-3.5418,-3.5418,-3.5418,-3.5418,-3.5418,-3.5418,-3.5418,-3.5418,-3.5418,-3.5418,-3.6714,-3.8018,-3.9216,-4.0512,-4.1797,-4.2974,-4.2974,-4.2974,0.0,0.0,0.0,0.0,0.0,0.0,0.0,0.0,0.0,0.0,0.0,0.0,0.0,0.0,0.0,0.0,0.0,0.0,0.0,0.0,0.0,0.0,0.0,0.0,0.0,0.0,0.0,0.0,0.0,-2.385,-2.6915,-2.6698,-2.7023,-2.8116,-2.9333,-2.9994,-2.9994,-2.9994,-2.9994,-3.0005,-3.0294,-3.0522,-3.0708,-3.1454,-3.1888,-3.2064,-3.2354,-3.2582,-3.2727,-3.2727,-3.2727,-3.2727,-3.2727,-3.2727,-3.2727,-3.2727,-3.2727,-3.2727,-3.2727,-3.2727,-3.2727,-3.2727,-3.2727,-3.2727,-3.2727,-3.2727,-3.2727,-3.2727,-3.2727,-3.2727,-3.2727,-3.2727,-3.2871,-3.3451,-3.3938,-3.4434,-3.5055,-3.519,-3.5231,-3.5387,-3.5418,-3.5418,-3.5418,-3.5418,-3.5418,-3.5418,-3.5418,-3.5418,-3.5418,-3.5418,-3.5418,-3.5418,-3.5418,-3.5418,-3.5418,-3.5418,-3.5418,-3.5418,-3.5418,-3.5418,-3.5418,-3.5418,-3.5418,-3.5418,-3.589,-3.7078,-3.9216,-4.0512,-4.1797,-4.2974,-4.2974,-4.2974,0.0,0.0,0.0,0.0,0.0,0.0,0.0,0.0,0.0,0.0,0.0,0.0,0.0,0.0,0.0,0.0,0.0,0.0,0.0,0.0,0.0,0.0,0.0,0.0,0.0,0.0,0.0,0.0,0.0,0.0,-2.5845,-2.6155,-2.7131,-2.8774,-2.9554,-2.9994,-2.9994,-2.9994,-2.9994,-3.0005,-3.047,-3.077,-3.0946,-3.1692,-3.2126,-3.2292,-3.2602,-3.2727,-3.2727,-3.2727,-3.2727,-3.2727,-3.2727,-3.2727,-3.2727,-3.2727,-3.2727,-3.2727,-3.2727,-3.2727,-3.2727,-3.2727,-3.2727,-3.2727,-3.2727,-3.2727,-3.2727,-3.2727,-3.2727,-3.2727,-3.2727,-3.284,-3.3182,-3.4082,-3.4527,-3.4879,-3.5324,-3.5418,-3.5418,-3.5418,-3.5418,-3.5418,-3.5418,-3.5418,-3.5418,-3.5418,-3.5418,-3.5418,-3.5418,-3.5418,-3.5418,-3.5418,-3.5418,-3.5418,-3.5418,-3.5418,-3.5418,-3.5418,-3.5418,-3.5418,-3.5418,-3.5418,-3.5418,-3.5418,-3.5418,-3.6613,-3.9216,-4.0036,-4.1329,-4.2974,-4.2974,-4.2974,0.0,0.0,0.0,0.0,0.0,0.0,0.0,0.0,0.0,0.0,0.0,0.0,0.0,0.0,0.0,0.0,0.0,0.0,0.0,0.0,0.0,0.0,0.0,0.0,0.0,0.0,0.0,0.0,-2.2688,-2.2893,-2.4667,-2.5507,-2.7229,-2.9879,-2.9994,-2.9994,-2.9994,-2.9994,-3.0005,-3.0025,-3.0491,-3.0946,-3.1412,-3.1857,-3.2302,-3.2727,-3.2727,-3.2727,-3.2727,-3.2727,-3.2727,-3.2727,-3.2727,-3.2727,-3.2727,-3.2727,-3.2727,-3.2727,-3.2727,-3.2727,-3.2727,-3.2727,-3.2727,-3.2727,-3.2727,-3.2727,-3.2727,-3.2727,-3.2727,-3.2727,-3.2747,-3.3078,-3.3648,-3.4548,-3.4766,-3.49,-3.5335,-3.5418,-3.5418,-3.5418,-3.5418,-3.5418,-3.5418,-3.5418,-3.5418,-3.5418,-3.5418,-3.5418,-3.5418,-3.5418,-3.5418,-3.5418,-3.5418,-3.5418,-3.5418,-3.5418,-3.5418,-3.5418,-3.5418,-3.5418,-3.5418,-3.5418,-3.5418,-3.5418,-3.5418,-3.6613,-3.9098,-3.9216,-4.0512,-4.2974,-4.2974,-4.2974,-1.4377,0.0,0.0,0.0,0.0,0.0,0.0,0.0,0.0,0.0,0.0,0.0,0.0,0.0,0.0,0.0,0.0,0.0,0.0,0.0,0.0,0.0,0.0,0.0,0.0,0.0,0.0,0.0,-2.1918,-2.223,-2.3127,-2.5177,-2.7023,-2.8668,-2.9554,-2.9994,-2.9994,-2.9994,-3.016,-3.0501,-3.0967,-3.1422,-3.1868,-3.2333,-3.2613,-3.2727,-3.2727,-3.2727,-3.2727,-3.2727,-3.2727,-3.2727,-3.2727,-3.2727,-3.2727,-3.2727,-3.2727,-3.2727,-3.2727,-3.2727,-3.2727,-3.2727,-3.2727,-3.2727,-3.2727,-3.2727,-3.2727,-3.2727,-3.2727,-3.2799,-3.312,-3.3782,-3.4445,-3.4693,-3.5004,-3.5273,-3.5397,-3.5418,-3.5418,-3.5418,-3.5418,-3.5418,-3.5418,-3.5418,-3.5418,-3.5418,-3.5418,-3.5418,-3.5418,-3.5418,-3.5418,-3.5418,-3.5418,-3.5418,-3.5418,-3.5418,-3.5418,-3.5418,-3.5418,-3.5418,-3.5418,-3.5418,-3.5418,-3.5418,-3.5418,-3.6247,-3.7779,-3.8744,-4.0036,-4.1684,-4.1684,-4.215,0.0,0.0,0.0,0.0,0.0,0.0,0.0,-1.6226,0.0,0.0,0.0,0.0,0.0,0.0,0.0,0.0,0.0,0.0,0.0,0.0,0.0,0.0,0.0,0.0,0.0,-2.0236,-2.0641,-2.1556,-2.1556,-2.1881,-2.2877,-2.5058,-2.6806,-2.8009,-2.9323,-2.9994,-2.9994,-2.9994,-3.0232,-3.0698,-3.1153,-3.1609,-3.2064,-3.252,-3.2727,-3.2727,-3.2727,-3.2727,-3.2727,-3.2727,-3.2727,-3.2727,-3.2727,-3.2727,-3.2727,-3.2727,-3.2727,-3.2727,-3.2727,-3.2727,-3.2727,-3.2727,-3.2727,-3.2727,-3.2727,-3.2727,-3.2727,-3.2727,-3.2861,-3.3099,-3.3555,-3.4207,-3.4807,-3.4993,-3.5231,-3.5418,-3.5418,-3.5418,-3.5418,-3.5418,-3.5418,-3.5418,-3.5418,-3.5418,-3.5418,-3.5418,-3.5418,-3.5418,-3.5418,-3.5418,-3.5418,-3.5418,-3.5418,-3.5418,-3.5418,-3.5418,-3.5418,-3.5418,-3.5418,-3.5418,-3.5418,-3.5418,-3.5418,-3.5418,-3.5418,-3.6013,-3.7298,-3.8018,-3.9322,-4.11,-4.11,-4.1797,0.0,0.0,0.0,0.0,0.0,0.0,-1.5657,-1.6133,-1.6696,0.0,0.0,0.0,0.0,0.0,0.0,0.0,0.0,0.0,0.0,0.0,0.0,0.0,0.0,0.0,-2.0172,-2.0237,-2.0619,-2.1616,-2.1439,-2.1873,-2.3167,-2.4931,-2.6472,-2.7571,-2.9006,-2.9784,-2.9994,-2.9879,-3.0137,-3.077,-3.1184,-3.164,-3.2126,-3.254,-3.2727,-3.2727,-3.2727,-3.2727,-3.2727,-3.2727,-3.2727,-3.2727,-3.2727,-3.2727,-3.2727,-3.2727,-3.2727,-3.2727,-3.2727,-3.2727,-3.2727,-3.2727,-3.2727,-3.2727,-3.2727,-3.2727,-3.2747,-3.2789,-3.312,-3.3565,-3.402,-3.4486,-3.4931,-3.5324,-3.5418,-3.5418,-3.5418,-3.5418,-3.5418,-3.5418,-3.5418,-3.5418,-3.5418,-3.5418,-3.5418,-3.5418,-3.5418,-3.5418,-3.5418,-3.5418,-3.5418,-3.5418,-3.5418,-3.5418,-3.5418,-3.5418,-3.5418,-3.5418,-3.5418,-3.5418,-3.5418,-3.5418,-3.5418,-3.5418,-3.5418,-3.6013,-3.7067,-3.7177,-3.8602,-4.11,-4.0973,-4.1684,0.0,0.0,0.0,0.0,0.0,0.0,-1.3741,-1.4331,-1.4982,0.0,0.0,0.0,0.0,0.0,0.0,0.0,0.0,0.0,0.0,0.0,0.0,0.0,0.0,0.0,-2.0172,-2.0237,-2.0508,-2.1274,-2.1439,-2.1774,-2.1987,-2.43,-2.5836,-2.6054,-2.7492,-2.8698,-2.9669,-2.889,-2.9514,-3.1247,-3.134,-3.1805,-3.2602,-3.2685,-3.2727,-3.2727,-3.2727,-3.2727,-3.2727,-3.2727,-3.2727,-3.2727,-3.2727,-3.2727,-3.2727,-3.2727,-3.2727,-3.2727,-3.2727,-3.2727,-3.2727,-3.2727,-3.2727,-3.2727,-3.2727,-3.2727,-3.2799,-3.3151,-3.3586,-3.4041,-3.4496,-3.4952,-3.5314,-3.5407,-3.5418,-3.5418,-3.5418,-3.5418,-3.5418,-3.5418,-3.5418,-3.5418,-3.5418,-3.5418,-3.5418,-3.5418,-3.5418,-3.5418,-3.5418,-3.5418,-3.5418,-3.5418,-3.5418,-3.5418,-3.5418,-3.5418,-3.5418,-3.5418,-3.5418,-3.5418,-3.5418,-3.5418,-3.5418,-3.5418,-3.5418,-3.5541,-3.5777,-3.6835,-3.8602,-4.11,-4.0036,-4.0743,0.0,0.0,0.0,-1.3492,0.0,0.0,0.0,-1.4431,-1.482,-1.538,0.0,0.0,0.0,0.0,0.0,0.0,0.0,0.0,0.0,0.0,0.0,0.0,0.0,0.0,-2.0186,-2.0384,-2.0684,-2.1174,-2.1325,-2.1439,-2.1439,-2.3407,-2.4505,-2.4505,-2.5927,-2.7356,-2.8668,-2.8447,-2.9332,-3.1381,-3.1598,-3.2064,-3.2727,-3.2727,-3.2727,-3.2727,-3.2727,-3.2727,-3.2727,-3.2727,-3.2727,-3.2727,-3.2727,-3.2727,-3.2727,-3.2727,-3.2727,-3.2727,-3.2727,-3.2727,-3.2727,-3.2727,-3.2727,-3.2727,-3.2727,-3.2727,-3.282,-3.3254,-3.371,-3.4176,-3.4641,-3.5086,-3.5418,-3.5418,-3.5418,-3.5418,-3.5418,-3.5418,-3.5418,-3.5418,-3.5418,-3.5418,-3.5418,-3.5418,-3.5418,-3.5418,-3.5418,-3.5418,-3.5418,-3.5418,-3.5418,-3.5418,-3.5418,-3.5418,-3.5418,-3.5418,-3.5418,-3.5418,-3.5418,-3.5418,-3.5418,-3.5418,-3.5418,-3.5418,-3.5418,-3.5418,-3.5418,-3.6013,-3.7309,-3.9193,-3.9216,-4.0268,0.0,0.0,0.0,0.0,0.0,-1.3704,0.0,0.0,0.0,-1.5657,0.0,0.0,0.0,0.0,0.0,0.0,0.0,0.0,0.0,0.0,0.0,0.0,0.0,0.0,0.0,-2.0347,-2.0728,-2.1181,-2.1035,-2.1013,-2.1203,-2.2515,-2.3279,-2.3279,-2.4488,-2.5918,-2.7571,-2.7882,-2.9211,-3.1261,-3.1715,-3.2169,-3.2727,-3.2612,-3.2612,-3.2727,-3.2727,-3.2727,-3.2727,-3.2727,-3.2727,-3.2727,-3.2727,-3.2727,-3.2727,-3.2727,-3.2727,-3.2727,-3.2727,-3.2727,-3.2727,-3.2727,-3.2727,-3.2727,-3.2727,-3.2789,-3.2944,-3.3389,-3.3844,-3.431,-3.4766,-3.5148,-3.5418,-3.5418,-3.5418,-3.5418,-3.5418,-3.5418,-3.5418,-3.5418,-3.5418,-3.5418,-3.5418,-3.5418,-3.5418,-3.5418,-3.5418,-3.5418,-3.5418,-3.5418,-3.5418,-3.5418,-3.5418,-3.5418,-3.5418,-3.5418,-3.5418,-3.5418,-3.5418,-3.5418,-3.5418,-3.5418,-3.5418,-3.5418,-3.5418,-3.5418,-3.5418,-3.5418,-3.6002,-3.7298,-3.8625,-3.9919,0.0,0.0,0.0,0.0,-1.3492,0.0,0.0,0.0,-1.3689,-1.3799,0.0,0.0,0.0,0.0,0.0,0.0,0.0,0.0,0.0,0.0,0.0,0.0,0.0,0.0,0.0,-1.9681,-2.0245,-2.1137,-2.0413,-2.0303,-2.1167,-2.2425,-2.3087,-2.3087,-2.3416,-2.4735,-2.7032,-2.6673,-2.7976,-3.1011,-3.1126,-3.1706,-3.2727,-3.2487,-3.2487,-3.2727,-3.2727,-3.2727,-3.2727,-3.2727,-3.2727,-3.2727,-3.2727,-3.2727,-3.2727,-3.2727,-3.2727,-3.2727,-3.2727,-3.2727,-3.2727,-3.2727,-3.2727,-3.2727,-3.2727,-3.3006,-3.3399,-3.3865,-3.432,-3.4776,-3.5231,-3.5387,-3.5418,-3.5418,-3.5418,-3.5418,-3.5418,-3.5418,-3.5418,-3.5418,-3.5418,-3.5418,-3.5418,-3.5418,-3.5418,-3.5418,-3.5418,-3.5418,-3.5418,-3.5418,-3.5418,-3.5418,-3.5418,-3.5418,-3.5418,-3.5418,-3.5418,-3.5418,-3.5418,-3.5418,-3.5418,-3.5418,-3.5418,-3.5418,-3.5418,-3.5418,-3.5418,-3.5418,-3.6002,-3.7298,-3.8625,-3.9919,0.0,0.0,0.0,0.0,0.0,0.0,-1.3623,0.0,-1.3492,0.0,0.0,0.0,0.0,0.0,0.0,0.0,0.0,0.0,0.0,0.0,0.0,0.0,0.0,0.0,0.0,0.0,0.0,0.0,-2.083,-2.0779,-2.1189,-2.1653,-2.1987,-2.1987,-2.2093,-2.2966,-2.482,-2.5882,-2.7536,-2.9653,-3.0927,-3.1721,-3.2143,-3.2258,-3.2373,-3.2487,-3.2612,-3.2727,-3.2727,-3.2727,-3.2727,-3.2727,-3.2727,-3.2727,-3.2727,-3.2727,-3.2727,-3.2727,-3.2727,-3.2727,-3.2727,-3.2727,-3.2727,-3.2727,-3.2727,-3.3037,-3.3472,-3.3938,-3.4403,-3.4859,-3.5304,-3.5418,-3.5418,-3.5418,-3.5418,-3.5418,-3.5418,-3.5418,-3.5418,-3.5418,-3.5418,-3.5418,-3.5418,-3.5418,-3.5418,-3.5418,-3.5418,-3.5418,-3.5418,-3.5418,-3.5418,-3.5418,-3.5418,-3.5418,-3.5418,-3.5418,-3.5418,-3.5418,-3.5418,-3.5418,-3.5418,-3.5418,-3.5418,-3.5418,-3.5418,-3.5418,-3.5418,-3.5418,-3.5654,-3.6247,-3.8268,-3.9463,-1.4231,0.0,0.0,0.0,0.0,0.0,0.0,0.0,0.0,0.0,0.0,0.0,0.0,0.0,0.0,0.0,0.0,0.0,0.0,0.0,0.0,0.0,0.0,0.0,0.0,0.0,0.0,-2.0794,-2.0815,-2.0925,-2.1196,-2.1211,-2.1211,-2.1211,-2.1211,-2.1866,-2.3287,-2.5366,-2.7131,-2.8634,-3.0545,-3.1682,-3.1787,-3.2018,-3.2248,-3.2363,-3.2612,-3.2727,-3.2727,-3.2727,-3.2727,-3.2727,-3.2727,-3.2727,-3.2727,-3.2727,-3.2727,-3.2727,-3.2727,-3.2727,-3.2727,-3.2727,-3.2727,-3.2747,-3.2871,-3.3223,-3.3668,-3.4124,-3.459,-3.5014,-3.5335,-3.5418,-3.5418,-3.5418,-3.5418,-3.5418,-3.5418,-3.5418,-3.5418,-3.5418,-3.5418,-3.5418,-3.5418,-3.5418,-3.5418,-3.5418,-3.5418,-3.5418,-3.5418,-3.5418,-3.5418,-3.5418,-3.5418,-3.5418,-3.5418,-3.5418,-3.5418,-3.5418,-3.5418,-3.5418,-3.5418,-3.5418,-3.5418,-3.5418,-3.5418,-3.5418,-3.5418,-3.5418,-3.5418,-3.5418,-3.7681,-3.8862,0.0,0.0,0.0,-1.3733,0.0,0.0,0.0,0.0,-1.3492,0.0,0.0,0.0,0.0,0.0,0.0,0.0,0.0,0.0,0.0,0.0,0.0,0.0,0.0,0.0,0.0,0.0,0.0,-1.974,-1.9813,-2.0223,-2.1159,-2.1211,-2.1211,-2.1211,-2.1211,-2.1759,-2.2974,-2.504,-2.6796,-2.8286,-3.0103,-3.1228,-3.1787,-3.1787,-3.2018,-3.2363,-3.2612,-3.2727,-3.2727,-3.2727,-3.2727,-3.2727,-3.2727,-3.2727,-3.2727,-3.2727,-3.2727,-3.2727,-3.2727,-3.2727,-3.2727,-3.2727,-3.2727,-3.2809,-3.3234,-3.3679,-3.4145,-3.461,-3.5055,-3.5407,-3.5418,-3.5418,-3.5418,-3.5418,-3.5418,-3.5418,-3.5418,-3.5418,-3.5418,-3.5418,-3.5418,-3.5418,-3.5418,-3.5418,-3.5418,-3.5418,-3.5418,-3.5418,-3.5418,-3.5418,-3.5418,-3.5418,-3.5418,-3.5418,-3.5418,-3.5418,-3.5418,-3.5418,-3.5418,-3.5418,-3.5418,-3.5418,-3.5418,-3.5418,-3.5418,-3.5418,-3.5418,-3.5418,-3.5418,-3.5418,-3.6714,-3.8018,0.0,0.0,-1.6714,-1.5085,0.0,0.0,0.0,0.0,0.0,0.0,0.0,0.0,0.0,0.0,0.0,0.0,0.0,0.0,0.0,0.0,0.0,0.0,0.0,0.0,0.0,0.0,0.0,-1.974,-2.0362,-2.0867,-2.1196,-2.1211,-2.1211,-2.1211,-2.1211,-2.1536,-2.209,-2.3901,-2.5536,-2.707,-2.879,-2.9648,-2.9874,-3.0956,-3.1199,-3.083,-3.1893,-3.2498,-3.2727,-3.2727,-3.2727,-3.2727,-3.2727,-3.2727,-3.2727,-3.2727,-3.2727,-3.2727,-3.2727,-3.2727,-3.2727,-3.2727,-3.2727,-3.282,-3.3244,-3.3699,-3.4165,-3.4631,-3.5076,-3.5418,-3.5418,-3.5418,-3.5418,-3.5418,-3.5418,-3.5418,-3.5418,-3.5418,-3.5418,-3.5418,-3.5418,-3.5418,-3.5418,-3.5418,-3.5418,-3.5418,-3.5418,-3.5418,-3.5418,-3.5418,-3.5418,-3.5418,-3.5418,-3.5418,-3.5418,-3.5418,-3.5418,-3.5418,-3.5418,-3.5418,-3.5418,-3.5418,-3.5418,-3.5418,-3.5418,-3.5418,-3.5418,-3.5418,-3.5418,-3.5418,-3.589,-3.7199,-1.7811,-1.8094,0.0,-1.6274,-1.6171,0.0,-1.437,0.0,0.0,0.0,0.0,0.0,0.0,0.0,0.0,0.0,0.0,0.0,0.0,0.0,0.0,0.0,0.0,0.0,0.0,0.0,-1.9016,-1.9711,-2.034,-2.0845,0.0,0.0,-2.1211,-2.1211,-2.1211,-2.1364,-2.1693,-2.327,-2.4663,-2.5855,-2.7423,-2.8197,-2.8307,-2.9874,-3.0236,-2.9874,-3.1536,-3.2373,-3.2612,-3.2612,-3.2727,-3.2727,-3.2727,-3.2727,-3.2727,-3.2727,-3.2727,-3.2727,-3.2727,-3.2727,-3.2727,-3.2727,-3.2727,-3.284,-3.3441,-3.3834,-3.4165,-3.4631,-3.5076,-3.5387,-3.5231,-3.5304,-3.5418,-3.5418,-3.5418,-3.5418,-3.5418,-3.5418,-3.5418,-3.5418,-3.5418,-3.5418,-3.5418,-3.5418,-3.5418,-3.5418,-3.5418,-3.5418,-3.5418,-3.5418,-3.5418,-3.5418,-3.5418,-3.5418,-3.5418,-3.5418,-3.5418,-3.5418,-3.5418,-3.5418,-3.5418,-3.5418,-3.5345,-3.519,-3.5345,-3.5345,-3.519,-3.5345,-3.5418,-3.5418,-3.5418,-3.6492]}]]